[[{"header":{"parameterUnit":"m.s-1","parameterCategory":1,"la1":30.6,"la2":28.766,"lo1":-90.7593,"lo2":-88.6598,"dy":0.0162,"dx":0.0183,"nx":116,"ny":114,"refTime":"2024-03-04T18:00:00:Z","depth":0,"parameterNumber":2,"parameterNumberName":"U-component_of_WINDS"},"data":[0.0,0.0,0.0,0.0,0.0,0.0,0.0,0.0,0.0,0.0,0.0,0.0,0.0,0.0,0.0,0.0,0.0,0.0,0.0,0.0,0.0,0.0,0.0,0.0,0.0,0.0,0.0,0.0,0.0,0.0,0.0,0.0,0.0,0.0,0.0,0.0,0.0,0.0,0.0,0.0,0.0,0.0,0.0,0.0,0.0,0.0,0.0,0.0,0.0,0.0,0.0,0.0,0.0,0.0,0.0,0.0,0.0,0.0,0.0,0.0,0.0,0.0,0.0,0.0,0.0,0.0,0.0,0.0,0.0,0.0,0.0,0.0,0.0,0.0,0.0,0.0,0.0,0.0,0.0,0.0,0.0,0.0,0.0,0.0,0.0,0.0,0.0,0.0,0.0,0.0,0.0,0.0,0.0,0.0,0.0,0.0,0.0,0.0,0.0,0.0,0.0,0.0,0.0,0.0,0.0,0.0,0.0,0.0,0.0,0.0,0.0,0.0,0.0,0.0,0.0,0.0,0.0,0.0,0.0,0.0,0.0,0.0,0.0,0.0,0.0,0.0,0.0,0.0,0.0,0.0,0.0,0.0,0.0,0.0,0.0,0.0,0.0,0.0,0.0,0.0,0.0,0.0,0.0,0.0,0.0,0.0,0.0,0.0,0.0,0.0,0.0,0.0,0.0,0.0,0.0,0.0,0.0,0.0,0.0,0.0,0.0,0.0,0.0,0.0,0.0,0.0,0.0,0.0,0.0,0.0,0.0,0.0,0.0,0.0,0.0,0.0,0.0,0.0,0.0,0.0,0.0,0.0,0.0,0.0,0.0,0.0,0.0,0.0,0.0,0.0,0.0,0.0,0.0,0.0,0.0,0.0,0.0,0.0,0.0,0.0,0.0,0.0,0.0,0.0,0.0,0.0,0.0,0.0,0.0,0.0,0.0,0.0,0.0,0.0,0.0,0.0,0.0,0.0,0.0,0.0,0.0,0.0,0.0,0.0,0.0,0.0,0.0,0.0,0.0,0.0,0.0,0.0,0.0,0.0,0.0,0.0,0.0,0.0,0.0,0.0,0.0,0.0,0.0,0.0,0.0,0.0,0.0,0.0,0.0,0.0,0.0,0.0,0.0,0.0,0.0,0.0,0.0,0.0,0.0,0.0,0.0,0.0,0.0,0.0,0.0,0.0,0.0,0.0,0.0,0.0,0.0,0.0,0.0,0.0,0.0,0.0,0.0,0.0,0.0,0.0,0.0,0.0,0.0,0.0,0.0,0.0,0.0,0.0,0.0,0.0,0.0,0.0,0.0,0.0,0.0,0.0,0.0,0.0,0.0,0.0,0.0,0.0,0.0,0.0,0.0,0.0,0.0,0.0,0.0,0.0,0.0,0.0,0.0,0.0,0.0,0.0,0.0,0.0,0.0,0.0,0.0,0.0,0.0,0.0,0.0,0.0,0.0,0.0,0.0,0.0,0.0,0.0,0.0,0.0,0.0,0.0,0.0,0.0,0.0,0.0,0.0,0.0,0.0,0.0,0.0,0.0,0.0,0.0,0.0,0.0,0.0,0.0,0.0,0.0,0.0,0.0,0.0,0.0,0.0,0.0,0.0,0.0,0.0,0.0,0.0,0.0,0.0,0.0,0.0,0.0,0.0,0.0,0.0,0.0,0.0,0.0,0.0,0.0,0.0,0.0,0.0,0.0,0.0,0.0,0.0,0.0,0.0,0.0,0.0,0.0,0.0,0.0,0.0,0.0,0.0,0.0,0.0,0.0,0.0,0.0,0.0,0.0,0.0,0.0,0.0,0.0,0.0,0.0,0.0,0.0,0.0,0.0,0.0,0.0,0.0,0.0,0.0,0.0,0.0,0.0,0.0,0.0,0.0,0.0,0.0,0.0,0.0,0.0,0.0,0.0,0.0,0.0,0.0,0.0,0.0,0.0,0.0,0.0,0.0,0.0,0.0,0.0,0.0,0.0,0.0,0.0,0.0,0.0,0.0,0.0,0.0,0.0,0.0,0.0,0.0,0.0,0.0,0.0,0.0,0.0,0.0,0.0,0.0,0.0,0.0,0.0,0.0,0.0,0.0,0.0,0.0,0.0,0.0,0.0,0.0,0.0,0.0,0.0,0.0,0.0,0.0,0.0,0.0,0.0,0.0,0.0,0.0,0.0,0.0,0.0,0.0,0.0,0.0,0.0,0.0,0.0,0.0,0.0,0.0,0.0,0.0,0.0,0.0,0.0,0.0,0.0,0.0,0.0,0.0,0.0,0.0,0.0,0.0,0.0,0.0,0.0,0.0,0.0,0.0,0.0,0.0,0.0,0.0,0.0,0.0,0.0,0.0,0.0,0.0,0.0,0.0,0.0,0.0,0.0,0.0,0.0,0.0,0.0,0.0,0.0,0.0,0.0,0.0,0.0,0.0,0.0,0.0,0.0,0.0,0.0,0.0,0.0,0.0,0.0,0.0,0.0,0.0,0.0,0.0,0.0,0.0,0.0,0.0,0.0,0.0,0.0,0.0,0.0,0.0,0.0,0.0,0.0,0.0,0.0,0.0,0.0,0.0,0.0,0.0,0.0,0.0,0.0,0.0,0.0,0.0,0.0,0.0,0.0,0.0,0.0,0.0,0.0,0.0,0.0,0.0,0.0,0.0,0.0,0.0,0.0,0.0,0.0,0.0,0.0,0.0,0.0,0.0,0.0,0.0,0.0,0.0,0.0,0.0,0.0,0.0,0.0,0.0,0.0,0.0,0.0,0.0,0.0,0.0,0.0,0.0,0.0,0.0,0.0,0.0,0.0,0.0,0.0,0.0,0.0,0.0,0.0,0.0,0.0,0.0,0.0,0.0,0.0,0.0,0.0,0.0,0.0,0.0,0.0,0.0,0.0,0.0,0.0,0.0,0.0,0.0,0.0,0.0,0.0,0.0,0.0,0.0,0.0,0.0,0.0,0.0,0.0,0.0,0.0,0.0,0.0,0.0,0.0,0.0,0.0,0.0,0.0,0.0,0.0,0.0,0.0,0.0,0.0,0.0,0.0,0.0,0.0,0.0,0.0,0.0,0.0,0.0,0.0,0.0,0.0,0.0,0.0,0.0,0.0,0.0,0.0,0.0,0.0,0.0,0.0,0.0,0.0,0.0,0.0,0.0,0.0,0.0,0.0,0.0,0.0,0.0,0.0,0.0,0.0,0.0,0.0,0.0,0.0,0.0,0.0,0.0,0.0,0.0,0.0,0.0,0.0,0.0,0.0,0.0,0.0,0.0,0.0,0.0,0.0,0.0,0.0,0.0,0.0,0.0,0.0,0.0,0.0,0.0,0.0,0.0,0.0,0.0,0.0,0.0,0.0,0.0,0.0,0.0,0.0,0.0,0.0,0.0,0.0,0.0,0.0,0.0,0.0,0.0,0.0,0.0,0.0,0.0,0.0,0.0,0.0,0.0,0.0,0.0,0.0,0.0,0.0,0.0,0.0,0.0,0.0,0.0,0.0,0.0,0.0,0.0,0.0,0.0,0.0,0.0,0.0,0.0,0.0,0.0,0.0,0.0,0.0,0.0,0.0,0.0,0.0,0.0,0.0,0.0,0.0,0.0,0.0,0.0,0.0,0.0,0.0,0.0,0.0,0.0,0.0,0.0,0.0,0.0,0.0,0.0,0.0,0.0,0.0,0.0,0.0,0.0,0.0,0.0,0.0,0.0,0.0,0.0,0.0,0.0,0.0,0.0,0.0,0.0,0.0,0.0,0.0,0.0,0.0,0.0,0.0,0.0,0.0,0.0,0.0,0.0,0.0,0.0,0.0,0.0,0.0,0.0,0.0,0.0,0.0,0.0,0.0,0.0,0.0,0.0,0.0,0.0,0.0,0.0,0.0,0.0,0.0,0.0,0.0,0.0,0.0,0.0,0.0,0.0,0.0,0.0,0.0,0.0,0.0,0.0,0.0,0.0,0.0,0.0,0.0,0.0,0.0,0.0,0.0,0.0,0.0,0.0,0.0,0.0,0.0,0.0,0.0,0.0,0.0,0.0,0.0,0.0,0.0,0.0,0.0,0.0,0.0,0.0,0.0,0.0,0.0,0.0,0.0,0.0,0.0,0.0,0.0,0.0,0.0,0.0,0.0,0.0,0.0,0.0,0.0,0.0,0.0,0.0,0.0,0.0,0.0,0.0,0.0,0.0,0.0,0.0,0.0,0.0,0.0,0.0,0.0,0.0,0.0,0.0,0.0,0.0,0.0,0.0,0.0,0.0,0.0,0.0,0.0,0.0,0.0,0.0,0.0,0.0,0.0,0.0,0.0,0.0,0.0,0.0,0.0,0.0,0.0,0.0,0.0,0.0,0.0,0.0,0.0,0.0,0.0,0.0,0.0,0.0,0.0,0.0,0.0,0.0,0.0,0.0,0.0,0.0,0.0,0.0,0.0,0.0,0.0,0.0,0.0,0.0,0.0,0.0,0.0,0.0,0.0,0.0,0.0,0.0,0.0,0.0,0.0,0.0,0.0,0.0,0.0,0.0,0.0,0.0,0.0,0.0,0.0,0.0,0.0,0.0,0.0,0.0,0.0,0.0,0.0,0.0,0.0,0.0,0.0,0.0,0.0,0.0,0.0,0.0,0.0,0.0,0.0,0.0,0.0,0.0,0.0,0.0,0.0,0.0,0.0,0.0,0.0,0.0,0.0,0.0,0.0,0.0,0.0,0.0,0.0,0.0,0.0,0.0,0.0,0.0,0.0,0.0,0.0,0.0,0.0,0.0,0.0,0.0,0.0,0.0,0.0,0.0,0.0,0.0,0.0,0.0,0.0,0.0,0.0,0.0,0.0,0.0,0.0,0.0,0.0,0.0,0.0,0.0,0.0,0.0,0.0,0.0,0.0,0.0,0.0,0.0,0.0,0.0,0.0,0.0,0.0,0.0,0.0,0.0,0.0,0.0,0.0,0.0,0.0,0.0,0.0,0.0,0.0,0.0,0.0,0.0,0.0,0.0,0.0,0.0,0.0,0.0,0.0,0.0,0.0,0.0,0.0,0.0,0.0,0.0,0.0,0.0,0.0,0.0,0.0,0.0,0.0,0.0,0.0,0.0,0.0,0.0,0.0,0.0,0.0,0.0,0.0,0.0,0.0,0.0,0.0,0.0,0.0,0.0,0.0,0.0,0.0,0.0,0.0,0.0,0.0,0.0,0.0,0.0,0.0,0.0,0.0,0.0,0.0,0.0,0.0,0.0,0.0,0.0,0.0,0.0,0.0,0.0,0.0,0.0,0.0,0.0,0.0,0.0,0.0,0.0,0.0,0.0,0.0,0.0,0.0,0.0,0.0,0.0,0.0,0.0,0.0,0.0,0.0,0.0,0.0,0.0,0.0,0.0,0.0,0.0,0.0,0.0,0.0,0.0,0.0,0.0,0.0,0.0,0.0,0.0,0.0,0.0,0.0,0.0,0.0,0.0,0.0,0.0,0.0,0.0,0.0,0.0,0.0,0.0,0.0,0.0,0.0,0.0,0.0,0.0,0.0,0.0,0.0,0.0,0.0,0.0,0.0,0.0,0.0,0.0,0.0,0.0,0.0,0.0,0.0,0.0,0.0,0.0,0.0,0.0,0.0,0.0,0.0,0.0,0.0,0.0,0.0,0.0,0.0,0.0,0.0,0.0,0.0,0.0,0.0,0.0,0.0,0.0,0.0,0.0,0.0,0.0,0.0,0.0,0.0,0.0,0.0,0.0,0.0,0.0,0.0,0.0,0.0,0.0,0.0,0.0,0.0,0.0,0.0,0.0,0.0,0.0,0.0,0.0,0.0,0.0,0.0,0.0,0.0,0.0,0.0,0.0,0.0,0.0,0.0,0.0,0.0,0.0,0.0,0.0,0.0,0.0,0.0,0.0,0.0,0.0,0.0,0.0,0.0,0.0,0.0,0.0,0.0,0.0,0.0,0.0,0.0,0.0,0.0,0.0,0.0,0.0,0.0,0.0,0.0,0.0,0.0,0.0,0.0,0.0,0.0,0.0,0.0,0.0,0.0,0.0,0.0,0.0,0.0,0.0,0.0,0.0,0.0,0.0,0.0,0.0,0.0,0.0,0.0,0.0,0.0,0.0,0.0,0.0,0.0,0.0,0.0,0.0,0.0,-0.4344,0.0,0.0,0.0,0.0,0.0,0.0,0.0,0.0,0.0,0.0,0.0,0.0,0.0,0.0,0.0,0.0,0.0,0.0,0.0,0.0,0.0,0.0,0.0,0.0,0.0,0.0,0.0,0.0,0.0,0.0,0.0,0.0,0.0,0.0,0.0,-0.3697,-0.5127,-0.6426,-0.7554,-0.7149,-0.712,-0.7456,-0.7049,-0.6619,-0.6149,0.0,0.0,0.0,0.0,0.0,0.0,0.0,0.0,0.0,0.0,0.0,0.0,0.0,0.0,0.0,0.0,0.0,0.0,0.0,0.0,0.0,0.0,0.0,0.0,0.0,0.0,0.0,0.0,0.0,0.0,0.0,0.0,0.0,0.0,0.0,0.0,0.0,0.0,0.0,0.0,0.0,0.0,0.0,0.0,0.0,0.0,0.0,0.0,0.0,0.0,0.0,0.0,0.0,0.0,0.0,0.0,0.0,0.0,0.0,0.0,0.0,0.0,0.0,0.0,0.0,0.0,0.0,0.0,0.0,0.0,0.0,-0.5231,0.0,0.0,0.0,0.0,0.0,0.0,0.0,0.0,0.0,0.0,0.0,0.0,0.0,0.0,0.0,0.0,0.0,0.0,0.0,0.0,0.0,0.0,0.0,-0.7121,-0.7639,-0.7918,-0.7842,-0.7709,0.0,0.0,0.0,0.0,0.0,-0.7238,-0.7686,-0.5613,-0.548,-0.7403,-0.7473,-0.754,-0.7603,-0.7943,-0.7918,-0.7602,-0.7018,0.0,0.0,0.0,0.0,0.0,0.0,0.0,0.0,0.0,0.0,0.0,0.0,0.0,0.0,0.0,0.0,0.0,0.0,0.0,0.0,0.0,0.0,0.0,0.0,0.0,0.0,0.0,0.0,0.0,0.0,0.0,0.0,0.0,0.0,0.0,0.0,0.0,0.0,0.0,0.0,0.0,0.0,0.0,0.0,0.0,0.0,0.0,0.0,0.0,0.0,0.0,0.0,0.0,0.0,0.0,0.0,0.0,0.0,0.0,0.0,0.0,0.0,0.0,0.0,-0.8723,-0.9011,-0.8732,-0.8318,-0.78,-0.7887,-0.7374,-0.6435,0.0,0.0,0.0,0.0,0.0,0.0,0.0,0.0,0.0,0.0,0.0,0.0,0.0,0.0,0.0,0.0,0.0,0.0,0.0,0.0,0.0,0.0,-0.6639,-0.7267,-0.7315,-0.7818,-0.7731,-0.6804,0.0,-0.6494,-0.4515,-0.4407,-0.543,-0.7647,-0.7252,-0.7149,-0.7403,-0.854,-0.8976,-0.8799,-0.9921,-1.0186,-0.9624,-0.7783,-0.6972,-0.6919,0.0,0.0,0.0,0.0,0.0,0.0,0.0,0.0,0.0,0.0,0.0,0.0,0.0,0.0,0.0,0.0,0.0,0.0,0.0,0.0,0.0,0.0,0.0,0.0,0.0,0.0,0.0,0.0,0.0,0.0,0.0,0.0,0.0,0.0,0.0,0.0,0.0,0.0,0.0,0.0,0.0,-0.777,-0.9457,0.0,0.0,0.0,0.0,0.0,0.0,0.0,0.0,0.0,0.0,0.0,0.0,0.0,0.0,-0.8445,-0.9453,-0.9782,-0.9463,-1.0914,-1.1299,-1.0688,-1.0924,-1.087,-1.058,-1.0472,0.0,-0.6669,-0.6683,0.0,0.0,0.0,0.0,0.0,0.0,0.0,0.0,0.0,0.0,0.0,0.0,0.0,0.0,0.0,0.0,0.0,0.0,0.0,0.0,0.0,-0.784,-0.809,-0.809,-0.8609,-0.8557,-0.7663,-0.8112,-0.7879,-0.6694,-0.643,-0.6807,-0.784,-0.7773,-0.7949,-0.8422,-0.9189,-0.9605,-0.9695,-1.0217,-1.0323,-1.0058,-0.9139,-0.8444,-0.7888,-0.707,0.0,0.0,0.0,0.0,0.0,0.0,0.0,0.0,0.0,0.0,0.0,0.0,0.0,0.0,0.0,0.0,0.0,0.0,0.0,0.0,0.0,0.0,0.0,0.0,0.0,0.0,0.0,0.0,0.0,0.0,0.0,0.0,0.0,0.0,0.0,0.0,0.0,0.0,0.0,-0.8318,-0.9631,-1.0046,-1.0678,-1.096,0.0,0.0,0.0,0.0,0.0,0.0,0.0,0.0,0.0,-1.0314,-0.9821,-0.9743,-1.011,-1.0642,-1.0971,-1.1069,-1.1605,-1.1844,-1.1779,-1.1691,-1.1596,-1.1496,-1.1417,-1.0575,-0.9178,-0.8445,-0.8166,-0.8178,0.0,0.0,0.0,0.0,0.0,-0.6923,0.0,0.0,0.0,0.0,0.0,0.0,0.0,0.0,0.0,0.0,0.0,0.0,-0.9081,-0.9207,-0.9228,-0.9377,-0.9536,-0.9419,-0.8919,-0.8802,-0.8656,-0.8435,-0.8276,-0.8173,-0.8105,-0.8202,-0.8648,-0.9459,-1.0,-1.0463,-1.0807,-1.0733,-1.083,-1.1019,-1.0481,-0.9739,-0.8803,-0.817,-0.7567,-0.6981,0.0,0.0,0.0,0.0,0.0,0.0,0.0,0.0,0.0,0.0,0.0,0.0,0.0,0.0,0.0,0.0,0.0,0.0,0.0,0.0,0.0,0.0,0.0,0.0,0.0,0.0,0.0,0.0,0.0,0.0,0.0,0.0,0.0,0.0,0.0,0.0,0.0,-0.9894,-1.0937,-1.09,-1.1543,-1.1878,0.0,0.0,0.0,0.0,0.0,0.0,-1.0883,-1.0884,-1.1072,-1.1471,-1.1238,-1.1271,-1.1545,-1.1601,-1.181,-1.2201,-1.2058,-1.2191,-1.2573,-1.224,-1.2102,-1.2156,-1.2011,-1.1792,-1.1446,-1.0219,-0.9581,-0.9366,-0.902,-0.863,-0.8295,-0.8585,-0.8463,-0.8225,0.0,0.0,0.0,0.0,0.0,0.0,0.0,0.0,0.0,0.0,0.0,-0.949,-1.0161,-1.0229,-1.0418,-1.094,-1.0371,-1.0048,-1.0196,-0.9208,-0.8659,-0.8761,-0.8404,-0.8248,-0.8368,-0.8936,-0.9539,-1.0157,-1.1257,-1.202,-1.2473,-1.2344,-1.2755,-1.3529,-1.1554,-1.026,-0.9538,-0.916,-0.861,-0.7877,-0.7286,0.0,0.0,0.0,0.0,0.0,0.0,0.0,0.0,0.0,0.0,0.0,0.0,0.0,0.0,0.0,0.0,0.0,0.0,0.0,0.0,0.0,0.0,0.0,0.0,0.0,0.0,0.0,0.0,0.0,0.0,0.0,0.0,0.0,0.0,0.0,0.0,0.0,0.0,-1.2834,-1.302,0.0,0.0,0.0,0.0,-1.2087,-1.1749,-1.1964,-1.2896,-1.2114,-1.2082,-1.3046,-1.2045,-1.1715,-1.2237,-1.2249,-1.2229,-1.2214,-1.2758,-1.3035,-1.3072,-1.2908,-1.296,-1.3112,-1.2579,-1.2383,-1.2372,-1.1464,-1.0638,-0.9952,-0.9923,-0.965,-0.9257,-0.9602,-0.9468,-0.9235,0.0,0.0,0.0,0.0,0.0,0.0,0.0,0.0,-0.6792,-0.6912,-0.9082,-1.0925,-1.1764,-1.1638,-1.19,-1.283,-1.1789,-1.0984,-1.0691,-1.0028,-0.9441,-0.901,-0.8687,-0.8825,-0.9488,-1.0218,-1.1006,-1.187,-1.2226,-1.2469,-1.252,-1.2488,-1.2489,-1.2485,-1.2015,-1.1388,-1.0651,-1.0018,-0.9346,-0.8666,-0.8201,-0.7629,0.0,0.0,0.0,0.0,0.0,0.0,0.0,0.0,0.0,0.0,0.0,0.0,0.0,0.0,0.0,0.0,0.0,0.0,0.0,0.0,0.0,0.0,0.0,0.0,0.0,0.0,0.0,0.0,0.0,0.0,0.0,0.0,0.0,0.0,0.0,0.0,0.0,-1.2938,-1.306,0.0,-1.2707,-1.2741,-1.2787,-1.2787,-1.2689,-1.278,-1.3146,-1.2857,-1.2671,-1.2672,-1.2634,-1.253,-1.2368,-1.2718,-1.2876,-1.2855,-1.3059,-1.3163,-1.3163,-1.3112,-1.3129,-1.3181,-1.3007,-1.2773,-1.2556,-1.2644,-1.1922,-1.0774,-1.0774,-1.0668,-1.0562,-1.0857,-1.0866,-1.0751,0.0,0.0,0.0,0.0,0.0,0.0,0.0,0.0,-0.7717,-0.8214,-1.0122,-1.1756,-1.2576,-1.2814,-1.3269,-1.4184,-1.2829,-1.1796,-1.1558,-1.0498,-0.9641,-0.9147,-0.9181,-0.9546,-1.0277,-1.1391,-1.2323,-1.3097,-1.323,-1.3348,-1.3456,-1.3194,-1.3074,-1.3104,-1.2788,-1.244,-1.2061,-1.124,-1.0322,-0.9393,-0.8895,-0.8508,-0.8159,0.0,0.0,0.0,0.0,0.0,0.0,0.0,0.0,0.0,0.0,0.0,0.0,0.0,0.0,0.0,0.0,0.0,0.0,0.0,0.0,0.0,0.0,0.0,0.0,0.0,0.0,0.0,0.0,0.0,0.0,0.0,0.0,0.0,0.0,0.0,-1.3403,-1.3501,-1.3748,-1.3933,-1.4008,-1.3895,-1.3796,-1.3796,-1.3663,-1.356,-1.356,-1.356,-1.3343,-1.2857,-1.3183,-1.3146,-1.2676,-1.3023,-1.3198,-1.3198,-1.3198,-1.3198,-1.321,-1.3403,-1.3509,-1.3504,-1.3679,-1.3628,-1.3405,-1.3651,-1.3162,-1.2198,-1.1746,-1.147,-1.133,-1.1449,-1.1431,-1.1263,0.0,0.0,0.0,0.0,0.0,0.0,0.0,-0.751,-0.9177,-1.0588,-1.1346,-1.1987,-1.2602,-1.368,-1.4566,-1.5024,-1.3393,-1.2467,-1.2765,-1.0549,-0.9218,-0.9234,-0.9867,-1.0399,-1.0767,-1.2379,-1.3417,-1.3762,-1.42,-1.4744,-1.5382,-1.4536,-1.4686,-1.5584,-1.3951,-1.3368,-1.3656,-1.2802,-1.1567,-1.0103,-0.9443,-0.9351,-0.9495,0.0,0.0,0.0,0.0,0.0,0.0,0.0,0.0,0.0,0.0,0.0,0.0,0.0,0.0,0.0,0.0,0.0,0.0,0.0,0.0,0.0,0.0,0.0,0.0,0.0,0.0,0.0,0.0,0.0,0.0,0.0,0.0,0.0,-1.239,-1.3196,-1.4139,-1.4682,-1.5186,-1.5676,-1.6154,-1.5599,-1.5196,-1.5196,-1.4659,-1.4314,-1.43,-1.43,-1.4124,-1.3702,-1.3698,-1.3531,-1.3198,-1.3198,-1.3198,-1.3198,-1.3223,-1.3223,-1.3248,-1.384,-1.4128,-1.4154,-1.4676,-1.4896,-1.4877,-1.4499,-1.4321,-1.4189,-1.2842,-1.2012,-1.1527,-1.1394,-1.1142,-1.0822,0.0,0.0,0.0,0.0,0.0,0.0,-0.3331,-0.739,-1.0383,-1.0306,-1.1791,-1.3216,-1.4168,-1.5325,-1.6149,-1.6418,-1.4578,-1.3176,-1.2688,-1.0753,-0.9723,-0.9916,-1.0657,-1.1457,-1.2272,-1.3458,-1.4371,-1.5008,-1.4739,-1.4864,-1.5309,-1.4989,-1.4894,-1.5054,-1.5218,-1.4696,-1.372,-1.3814,-1.3049,-1.1713,-1.0971,-1.0409,-0.9921,0.0,0.0,0.0,0.0,0.0,0.0,0.0,0.0,0.0,0.0,0.0,0.0,0.0,0.0,0.0,0.0,0.0,0.0,0.0,0.0,0.0,0.0,0.0,0.0,0.0,0.0,0.0,0.0,0.0,0.0,0.0,-1.4523,-1.4809,-1.4399,-1.4635,-1.5078,-1.5698,-1.5478,-1.5513,-1.6149,-1.5599,-1.5196,-1.5196,-1.506,-1.4754,-1.4314,-1.43,-1.4124,-1.3702,-1.3698,-1.3531,-1.3198,-1.3198,-1.3198,-1.321,-1.3634,-1.3858,-1.3871,-1.4437,-1.4689,-1.4689,-1.484,-1.4896,-1.4921,-1.5204,-1.5102,-1.4601,-1.3252,-1.2819,-1.2883,-1.2368,-1.2084,-1.1884,0.0,0.0,0.0,0.0,0.0,0.0,-0.5677,-0.8489,-1.0361,-1.0392,-1.2306,-1.388,-1.4428,-1.5737,-1.6427,-1.6016,-1.4417,-1.3068,-1.2242,-1.1089,-1.0509,-1.0699,-1.1799,-1.2806,-1.3638,-1.4865,-1.5505,-1.5544,-1.5705,-1.5747,-1.569,-1.5803,-1.5844,-1.5857,-1.6148,-1.5866,-1.5203,-1.513,-1.4708,-1.3994,-1.3368,-1.2422,-1.1307,-1.1006,-1.0857,-1.0766,-1.0391,-1.012,-0.9876,-0.9247,0.0,0.0,0.0,0.0,0.0,0.0,0.0,0.0,0.0,0.0,0.0,0.0,0.0,0.0,0.0,0.0,0.0,0.0,0.0,0.0,0.0,0.0,0.0,0.0,-1.5469,-1.6137,-1.6421,-1.6168,-1.6167,-1.6724,-1.6668,-1.6806,-1.7365,-1.6845,-1.6463,-1.6463,-1.6193,-1.5868,-1.5532,-1.5518,-1.5145,-1.4322,-1.4509,-1.4111,-1.3082,-1.33,-1.3412,-1.3412,-1.3825,-1.4137,-1.4375,-1.4965,-1.5236,0.0,-1.5467,-1.5567,-1.558,-1.5906,-1.5856,0.0,0.0,0.0,0.0,0.0,-1.2228,-1.2365,0.0,0.0,0.0,0.0,0.0,0.0,-1.0061,-1.0095,-0.9765,-1.0498,-1.2576,-1.392,-1.371,-1.5189,-1.5709,-1.4507,-1.3507,-1.2577,-1.1723,-1.1509,-1.1481,-1.1709,-1.3183,-1.428,-1.4869,-1.6349,-1.6726,-1.5942,-1.6836,-1.7005,-1.6503,-1.6811,-1.7126,-1.7427,-1.6979,-1.7019,-1.7359,-1.6697,-1.6406,-1.6367,-1.6012,-1.4865,-1.3277,-1.2625,-1.2525,-1.27,-1.2334,-1.1954,-1.1517,-1.0957,0.0,0.0,0.0,0.0,0.0,0.0,0.0,0.0,0.0,0.0,0.0,0.0,0.0,0.0,0.0,0.0,0.0,0.0,0.0,0.0,0.0,0.0,0.0,0.0,-1.6488,-1.7548,-1.8216,-1.7693,-1.7384,-1.7729,-1.8182,-1.8636,-1.9064,-1.855,-1.8201,-1.8201,-1.765,-1.727,-1.718,0.0,0.0,0.0,0.0,-1.4894,-1.311,-1.3515,-1.376,-1.3809,-1.3933,-1.428,-1.4834,-1.5502,-1.5781,-1.5819,-1.6287,-1.65,-1.65,-1.65,-1.65,-1.6416,-1.5507,-1.4313,-1.2993,-1.2099,-1.2171,0.0,0.0,0.0,0.0,0.0,0.0,0.0,-0.917,-1.0278,-1.0412,-0.947,-1.133,-1.2674,-1.2481,-1.3939,-1.448,-1.3333,-1.3129,-1.2811,-1.2191,-1.2024,-1.2472,-1.3688,-1.4707,-1.548,-1.5975,-1.7127,-1.781,-1.8032,-1.7544,-1.7631,-1.8266,-1.7624,-1.7639,-1.8278,-1.8497,-1.836,-1.7955,-1.8145,-1.7781,-1.7103,-1.701,-1.6117,-1.4792,-1.463,-1.441,-1.4134,-1.3698,-1.3463,-1.323,-1.211,-1.1901,-1.1997,-1.1182,-1.0645,0.0,0.0,0.0,0.0,0.0,0.0,0.0,0.0,0.0,0.0,0.0,0.0,0.0,0.0,0.0,0.0,0.0,0.0,0.0,-1.6597,-1.745,-1.823,-1.884,-1.8782,-1.8711,-1.8805,-1.8483,-1.8473,-1.9058,-1.855,-1.8201,-1.8201,-1.8085,-1.776,-1.7153,-1.6343,0.0,-1.5581,-1.4992,-1.454,-1.4195,-1.3982,-1.4082,-1.4515,0.0,0.0,-1.5514,-1.6086,-1.6337,-1.6337,-1.645,-1.65,-1.65,-1.65,-1.65,-1.6416,-1.5699,-1.4971,-1.4277,-1.3595,-1.3678,-1.4002,0.0,0.0,0.0,0.0,0.0,0.0,-0.9729,-1.0737,-1.086,-1.0104,-1.1523,-1.251,-1.2226,-1.3289,-1.3499,-1.226,-1.1749,-1.171,-1.2215,-1.2476,-1.3434,-1.5277,-1.6024,-1.6774,-1.7572,-1.8425,-1.8738,-1.8508,-1.8598,-1.8555,-1.8408,-1.8184,-1.8475,-1.9095,-1.9043,-1.9231,-1.9636,-1.9395,-1.9176,-1.8944,-1.8776,-1.8291,-1.7564,-1.6688,-1.6118,-1.5763,-1.5541,-1.5158,-1.4674,-1.3815,-1.3363,-1.3077,-1.2341,-1.1849,-1.1528,0.0,0.0,0.0,0.0,0.0,0.0,0.0,0.0,0.0,0.0,0.0,0.0,0.0,0.0,-1.428,-1.4422,0.0,-1.6874,-1.7274,-1.8075,-1.8753,-1.9058,-1.9101,-1.9101,-1.9101,-1.884,-1.8782,-1.9072,-1.855,-1.8332,-1.8637,-1.8375,-1.8003,-1.7568,-1.7398,-1.689,-1.6032,-1.5893,-1.5486,-1.4704,-1.4302,-1.4237,-1.4546,-1.4624,-1.4988,-1.5616,-1.6216,-1.65,-1.65,-1.65,-1.65,-1.65,-1.65,-1.65,-1.6475,-1.6093,-1.55,-1.4781,-1.4181,-1.4086,-1.4205,0.0,0.0,0.0,0.0,0.0,0.0,0.0,-1.1044,-1.1092,-1.085,-1.1759,-1.2333,-1.2033,-1.2534,-1.2468,-1.1427,-1.0518,-1.0751,-1.2481,-1.3101,-1.4409,-1.6624,-1.7356,-1.814,-1.9054,-1.9669,-1.959,-1.884,-1.9737,-1.9569,-1.8454,-1.8899,-1.9366,-1.9815,-1.9378,-1.9948,-2.1135,-2.0461,-2.036,-2.07,-2.0431,-2.0214,-1.991,-1.85,-1.775,-1.7429,-1.7252,-1.6567,-1.5689,-1.512,-1.4425,-1.3675,-1.3196,-1.2828,-1.2536,-1.2265,-1.2222,0.0,0.0,0.0,0.0,0.0,0.0,0.0,0.0,-1.271,-1.3155,-1.3209,-1.4123,-1.4937,-1.502,-1.6532,-1.7756,-1.7767,-1.8516,-1.9101,-1.9101,-1.9101,-1.9058,-1.8941,-1.8927,-1.8946,-1.8987,-1.8528,-1.8422,-1.8961,-1.8611,-1.8303,-1.8169,-1.8464,-1.8007,-1.6633,-1.6969,-1.6485,-1.508,-1.476,-1.4613,-1.4594,-1.4698,-1.5081,-1.5716,-1.6257,-1.65,-1.65,-1.65,-1.65,-1.65,-1.65,-1.65,-1.65,-1.6436,-1.5893,-1.5082,-1.4538,-1.4354,-1.4416,0.0,0.0,0.0,0.0,0.0,0.0,0.0,0.0,-1.0865,-1.0198,-1.0759,-1.1128,-1.0896,-1.1049,-1.1133,-1.1043,-1.0727,-1.1495,-1.3807,-1.4318,-1.553,-1.78,-1.8937,-1.9577,-1.9708,-2.0294,-2.0556,-2.0428,-2.0681,-2.05,-1.9978,-2.0137,-2.0264,-2.0331,-2.0262,-2.0584,-2.119,-2.1101,-2.108,-2.1126,-2.1094,-2.0599,-1.9901,-1.9727,-1.9403,-1.9024,-1.8116,-1.7048,-1.5933,-1.504,-1.4234,-1.3601,-1.3545,-1.3212,-1.2846,-1.2892,-1.2489,-1.2038,-1.2024,-1.2057,-1.2219,-1.2644,-1.2926,-1.3228,0.0,-1.4087,-1.4386,-1.4612,-1.5018,-1.5513,-1.6107,-1.694,-1.7731,-1.8303,-1.8798,-1.9101,-1.9101,-1.9101,-1.8898,-1.8357,-1.8303,-1.8396,-1.8634,-1.8376,-1.8323,-1.8634,-1.8812,-1.8859,-1.8722,-1.7875,-1.7482,-1.7624,-1.7022,-1.6342,-1.5613,-1.5694,-1.5585,-1.5303,-1.5303,-1.5678,-1.6391,-1.6475,-1.65,-1.65,-1.65,-1.65,-1.65,-1.65,-1.65,-1.65,-1.65,-1.617,-1.567,-1.5314,-1.5435,-1.5709,0.0,0.0,0.0,0.0,0.0,0.0,0.0,0.0,0.0,-1.0691,-1.0988,-1.1132,-1.0897,-1.092,-1.0991,-1.105,-1.0873,-1.1749,-1.4041,-1.4552,-1.5909,-1.8453,-1.9368,-2.0113,-2.078,-2.0726,-2.0844,-2.1184,-2.0901,-2.0732,-2.0611,-2.0398,-2.0476,-2.0785,-2.0523,-2.0687,-2.119,-2.119,-2.119,-2.119,-2.119,-2.0797,-2.0151,-1.9879,-1.9132,-1.8171,-1.7634,-1.6764,0.0,-1.4935,-1.4247,-1.3711,-1.3323,-1.3265,-1.3291,-1.2888,-1.2751,-1.2727,-1.2659,-1.2719,-1.2868,-1.3174,-1.3722,-1.419,-1.4202,-1.4483,-1.4773,-1.4877,-1.5466,-1.6146,-1.6655,-1.7482,-1.8242,0.0,-1.8988,-1.9101,-1.9101,-1.8796,-1.8491,-1.8245,-1.7519,-1.7288,-1.7959,-1.778,-1.7887,-1.8552,-1.8495,-1.8381,-1.8278,-1.8149,-1.7953,-1.7702,-1.7421,-1.7183,-1.6921,-1.6171,-1.5754,-1.5693,-1.5492,-1.5583,-1.5932,-1.6307,-1.65,-1.65,-1.65,-1.65,-1.65,-1.65,-1.65,-1.65,-1.65,-1.638,-1.6185,-1.601,-1.5834,-1.5714,0.0,0.0,0.0,0.0,0.0,0.0,0.0,0.0,0.0,0.0,-1.1262,-1.1307,-1.112,-1.1073,-1.1073,-1.1143,-1.0991,-1.1786,-1.3844,-1.4492,-1.5889,-1.8323,-1.9316,-2.0191,-2.1002,-2.0805,-2.0883,-2.1276,-2.1197,-2.1147,-2.1094,-2.1081,-2.1244,-2.1488,-2.1167,-2.1144,-2.14,-2.14,-2.1316,-2.1178,-2.104,-2.0572,-1.993,-1.9385,-1.8174,-1.6768,-1.6773,-1.6074,-1.5026,-1.4273,-1.3805,-1.3451,-1.2955,-1.3162,-1.3495,-1.3045,-1.3089,-1.3275,-1.3272,-1.3356,-1.3517,-1.3825,-1.4516,-1.5044,-1.4747,-1.5037,-1.5349,-1.5349,-1.5926,-1.6591,-1.7112,-1.7818,-1.8481,-1.9007,-1.9101,-1.9043,-1.8883,-1.8477,-1.8053,-1.7693,-1.6793,-1.6474,-1.7148,-1.7297,-1.7625,-1.8253,-1.8361,-1.8314,-1.8127,-1.8456,-1.8398,-1.7871,-1.794,-1.786,-1.7583,-1.6696,-1.6138,-1.5904,-1.5836,-1.5799,-1.5769,-1.627,-1.65,-1.65,-1.65,-1.65,-1.65,-1.65,-1.65,-1.65,-1.65,-1.65,-1.65,-1.6457,-1.611,-1.5714,0.0,0.0,0.0,0.0,0.0,0.0,0.0,0.0,0.0,0.0,0.0,0.0,0.0,-1.1273,-1.1227,-1.1296,-1.105,-1.162,-1.3308,-1.4296,-1.552,-1.7173,-1.8885,-1.9826,-1.9852,-2.0412,-2.0712,-2.0725,-2.1799,-2.2079,-2.1597,-2.2765,-2.3045,-2.2537,-2.2537,-2.2286,-2.1877,-2.1877,-2.1608,-2.1144,-2.063,-1.9838,-1.8856,-1.8148,-1.6755,-1.5246,-1.5751,-1.5004,-1.3633,-1.2831,-1.2603,-1.2608,-1.255,-1.2874,-1.3347,-1.359,-1.3456,-1.3311,-1.3837,-1.3871,-1.3976,-1.4771,-1.5313,-1.5668,-1.5668,-1.6061,-1.645,-1.645,-1.6484,-1.6761,-1.7632,-1.7794,-1.8088,-1.8969,-1.9101,-1.8898,-1.8317,-1.8216,-1.7722,-1.6416,-1.6227,-1.6214,0.0,-1.7182,-1.7713,-1.7548,-1.8667,-1.9151,-1.8702,-1.8562,-1.8498,-1.847,-1.8484,-1.8015,-1.703,-1.7509,-1.7136,-1.5916,-1.656,-1.668,-1.638,-1.6466,-1.65,-1.65,-1.65,-1.65,-1.65,-1.65,-1.65,-1.65,-1.65,-1.65,-1.65,-1.65,-1.6362,-1.6166,0.0,0.0,0.0,0.0,0.0,0.0,0.0,0.0,0.0,0.0,0.0,0.0,0.0,0.0,0.0,0.0,-1.1192,-1.1629,-1.2856,-1.386,-1.4763,-1.5559,-1.7581,-1.8675,-1.8675,-1.9211,-1.9902,-2.0699,-2.0281,-2.0587,-2.1534,-2.1213,-2.1388,-2.1938,-2.2046,-2.1981,-2.1801,-2.1487,-2.1085,-2.057,-1.9356,-1.8409,-1.7564,-1.6244,-1.5232,-1.4402,0.0,-1.3148,-1.2756,-1.223,-1.2042,-1.2101,-1.2295,-1.2748,-1.3204,-1.3332,-1.3531,-1.3754,-1.384,-1.4347,-1.496,-1.5367,-1.5852,-1.6233,-1.6233,-1.6362,-1.65,-1.65,-1.6233,-1.6155,-1.6764,-1.6727,-1.6944,-1.7926,-1.8331,-1.8433,-1.8245,-1.8201,-1.7708,-1.6358,-1.6213,0.0,0.0,0.0,0.0,-1.7767,-1.879,-1.9199,-1.8731,-1.8576,-1.8498,-1.8498,-1.8498,-1.8341,-1.8001,-1.7866,-1.7592,-1.7149,-1.6886,-1.665,-1.6392,-1.6414,-1.6457,-1.65,-1.65,-1.65,-1.65,-1.65,-1.65,-1.65,-1.65,-1.65,-1.65,-1.6457,-1.6098,-1.5712,0.0,0.0,0.0,0.0,0.0,0.0,0.0,0.0,0.0,0.0,0.0,0.0,0.0,0.0,0.0,0.0,0.0,-1.1559,-1.236,-1.3182,-1.3814,-1.4249,-1.6011,-1.7022,-1.7089,-1.7521,-1.8157,-1.8984,-1.852,-1.8872,-1.9969,-1.9666,-1.9939,-2.0655,-2.0947,-2.0991,-2.0825,-2.0507,-1.9872,-1.8947,-1.8007,-1.6854,-1.5619,-1.5046,-1.4337,0.0,-1.2519,-1.2308,-1.2392,-1.183,-1.1985,-1.241,-1.2404,-1.2844,-1.3399,-1.3642,-1.3895,-1.4184,-1.45,-1.5047,-1.5587,-1.5923,-1.6258,-1.65,-1.65,-1.6337,-1.6199,-1.6199,-1.5781,-1.5551,-1.6055,-1.6072,-1.6291,-1.718,-1.7616,-1.7853,-1.7853,-1.7853,-1.7534,-1.6663,-1.6561,-1.6658,0.0,0.0,0.0,-1.8045,-1.8962,-1.9328,-1.8793,-1.8697,-1.86,-1.8498,-1.8498,-1.8498,-1.8498,-1.8195,-1.7902,-1.7612,-1.7005,-1.6595,-1.6392,-1.6392,-1.6436,-1.65,-1.65,-1.65,-1.65,-1.65,-1.65,-1.65,-1.65,-1.65,-1.6466,-1.6207,-1.581,-1.5456,0.0,0.0,0.0,0.0,0.0,0.0,0.0,0.0,0.0,0.0,0.0,0.0,0.0,0.0,0.0,0.0,0.0,0.0,-1.1856,-1.232,-1.2757,-1.3152,-1.4288,-1.4988,-1.5148,-1.5461,-1.571,-1.586,-1.6659,-1.7076,-1.7175,-1.8214,-1.8702,-1.8777,-1.9355,-1.9391,-1.8979,-1.8942,-1.8002,-1.6521,-1.6586,-1.5187,-1.3212,-1.4438,-1.3925,-1.2542,-1.2327,-1.2402,-1.2491,-1.1693,-1.2355,-1.3407,-1.2833,-1.3197,-1.3948,-1.4441,-1.4477,-1.4609,-1.5689,-1.5873,-1.5856,-1.6362,-1.65,-1.6488,-1.6463,-1.607,-1.568,-1.5655,-1.5236,-1.5019,-1.5509,-1.5769,-1.6099,-1.6673,-1.7013,-1.7214,-1.7258,-1.7287,-1.727,0.0,0.0,0.0,0.0,0.0,0.0,-1.8397,0.0,-1.9533,-1.8898,-1.8893,-1.876,-1.8517,-1.8498,-1.8498,-1.8498,-1.8498,-1.8082,-1.7291,-1.6921,-1.6595,-1.6392,-1.6392,-1.6436,-1.65,-1.65,-1.65,-1.65,-1.65,-1.65,-1.65,-1.65,-1.65,-1.6423,-1.5842,-1.5511,-1.5411,0.0,0.0,0.0,0.0,0.0,0.0,0.0,0.0,0.0,0.0,0.0,0.0,0.0,0.0,0.0,0.0,0.0,0.0,-1.1527,-1.1878,-1.1919,-1.1602,-1.2969,-1.3556,-1.3144,-1.4092,-1.488,-1.5438,-1.5125,-1.5448,-1.6359,-1.6064,-1.6155,-1.6612,-1.7127,-1.7267,-1.7128,-1.6833,-1.6279,-1.5457,-1.434,-1.3434,-1.2676,-1.2208,-1.2091,-1.2106,-1.1812,-1.2194,-1.2724,-1.2128,-1.2714,-1.3698,-1.3539,-1.3911,-1.4398,-1.4382,-1.4928,-1.5592,-1.5752,-1.6036,-1.6325,-1.6463,-1.65,-1.6387,-1.6007,-1.5793,-1.558,-1.5185,-1.4714,-1.441,-1.4501,-1.4663,-1.5144,-1.6182,-1.6826,0.0,-1.7864,-1.8332,0.0,-1.7316,-1.765,-1.8118,-1.852,-1.8637,0.0,0.0,-1.9465,-1.924,-1.8639,-1.86,-1.8562,-1.8498,-1.8498,-1.8498,-1.8498,-1.8498,-1.8055,-1.7227,-1.7123,-1.6778,-1.6253,-1.6253,-1.634,-1.65,-1.65,-1.65,-1.65,-1.65,-1.65,-1.65,-1.65,-1.6479,-1.6392,-1.6132,-1.5478,-1.4835,0.0,0.0,0.0,0.0,0.0,0.0,0.0,0.0,0.0,0.0,0.0,0.0,0.0,0.0,0.0,0.0,0.0,0.0,0.0,-1.1434,-1.1392,-1.1052,-1.1865,-1.2224,-1.197,-1.2485,-1.3005,-1.3496,-1.3205,-1.3413,-1.4128,-1.3902,-1.3985,-1.4319,-1.4852,-1.5101,-1.5065,-1.4851,-1.4302,0.0,0.0,-1.2094,-1.1187,-1.1541,-1.1647,-1.1646,-1.1562,-1.2002,-1.262,-1.2788,-1.3271,-1.3844,-1.4079,-1.4345,-1.4626,-1.5021,-1.569,-1.627,-1.6174,-1.6514,-1.6835,-1.6563,-1.65,-1.635,-1.5819,-1.5545,-1.5237,-1.4664,-1.4188,-1.3879,-1.3808,-1.4129,-1.4609,-1.5308,-1.6179,-1.7011,-1.7679,-1.8317,-1.855,-1.8085,-1.8522,-1.9114,-1.9778,-1.9753,-1.999,0.0,-2.001,-1.9314,-1.8716,-1.8678,-1.862,-1.8498,-1.8498,-1.8498,-1.8498,-1.8498,-1.8055,-1.7199,-1.7199,-1.682,-1.611,-1.611,-1.6241,-1.6457,0.0,-1.6479,-1.65,-1.65,-1.65,-1.65,-1.65,-1.6457,-1.6349,-1.6001,-1.5276,-1.4549,0.0,0.0,0.0,0.0,0.0,0.0,0.0,0.0,0.0,0.0,0.0,0.0,0.0,0.0,0.0,0.0,0.0,0.0,0.0,0.0,-1.112,-1.1108,-1.1097,-1.1192,-1.1365,-1.1073,-1.1027,-1.1239,-1.1424,-1.1545,-1.1584,-1.2021,-1.221,-1.2237,-1.275,-1.3019,-1.3099,-1.3084,-1.2478,-1.1575,-1.2156,-1.1215,-0.9688,0.0,-1.179,-1.1176,-1.1575,-1.2019,-1.258,-1.35,-1.3804,-1.3879,-1.4428,-1.4592,-1.4813,-1.586,-1.647,-1.6785,-1.6701,-1.7027,-1.7272,-1.6638,-1.6437,-1.6237,-1.5718,-1.5232,-1.4714,-1.4103,-1.3722,-1.3476,-1.3391,-1.395,-1.4417,-1.45,-1.5457,-1.6474,-1.7229,-1.7838,-1.8433,-1.9029,-1.9453,-2.0062,-2.0967,-2.1005,-2.1124,-2.1507,-2.0494,-1.9617,-1.9008,-1.8898,-1.8783,-1.861,-1.8624,-1.8624,-1.8624,-1.8624,-1.8138,-1.7199,-1.7199,-1.6786,-1.5988,-1.5988,-1.6154,-1.6392,0.0,0.0,-1.65,-1.6479,-1.6457,-1.6457,-1.6457,-1.6414,-1.6284,-1.569,-1.5039,-1.4491,0.0,0.0,0.0,0.0,0.0,0.0,0.0,0.0,0.0,0.0,-1.1167,-1.1192,0.0,0.0,0.0,0.0,0.0,0.0,0.0,0.0,0.0,-1.1192,-1.112,-1.112,-1.1143,-1.1097,-1.1155,-1.1376,-1.1259,-1.1266,-1.1433,-1.1292,-1.1239,-1.1239,-1.1288,-1.1592,-1.2059,-1.2006,-1.1857,-1.1666,-1.1722,-1.1236,-1.0499,-1.0871,0.0,0.0,-1.1912,-1.2874,-1.3717,-1.3842,-1.3854,-1.3879,-1.4428,-1.4847,-1.5279,-1.587,-1.6655,-1.7254,-1.669,-1.697,-1.7272,-1.6638,-1.617,-1.5693,-1.516,-1.4683,-1.4163,-1.3483,-1.342,-1.3459,-1.3267,-1.3868,-1.4554,-1.4981,-1.5693,-1.6634,-1.7835,-1.8129,-1.8433,-1.9029,-1.9453,-1.972,-1.9806,-2.0426,0.0,0.0,0.0,-2.0026,-1.9355,-1.8844,-1.8782,-1.9242,-1.9256,-1.9256,-1.9256,-1.9256,-1.8563,-1.7199,-1.7199,-1.6786,-1.5988,-1.5988,-1.6154,-1.6392,0.0,0.0,-1.6414,-1.6297,-1.6253,-1.6253,-1.6253,-1.6188,-1.6066,-1.5944,-1.5231,-1.4456,0.0,0.0,0.0,0.0,0.0,0.0,0.0,-1.1027,-1.1097,-1.1097,-1.112,-1.1132,-1.1097,-1.1155,-1.1192,0.0,0.0,0.0,0.0,0.0,0.0,0.0,-1.112,-1.1097,-1.1097,-1.1408,-1.1611,-1.1708,0.0,-1.1611,-1.1696,-1.1263,-1.105,-1.105,-1.1015,-1.1146,-1.1402,-1.1683,-1.1756,-1.1691,-1.1652,-1.1462,-1.1139,0.0,0.0,0.0,-1.21,-1.2931,-1.3677,-1.3887,-1.3911,-1.393,-1.4406,-1.4865,-1.5331,-1.5809,-1.6646,-1.7327,-1.6672,-1.6936,-1.7272,-1.6638,-1.6107,-1.5563,-1.5009,-1.4569,-1.4065,-1.3437,-1.3442,-1.3514,-1.3374,-1.3802,-1.4325,-1.4725,-1.5499,-1.643,-1.7531,-1.7983,-1.8506,-1.9325,-2.0083,-2.0724,-2.1224,-2.2061,-2.2371,0.0,0.0,-2.064,-1.9007,-1.8666,-1.8624,-1.8919,-1.9256,-1.939,-1.939,-1.9183,-1.8615,-1.7664,-1.7097,-1.6522,-1.5891,-1.5891,-1.6001,-1.6197,-1.611,0.0,-1.6297,-1.6244,-1.62,-1.62,-1.62,-1.6122,-1.5988,-1.5988,-1.5288,-1.4363,0.0,0.0,0.0,0.0,0.0,0.0,0.0,-1.1103,-1.1294,-1.1294,-1.1294,-1.1294,-1.1294,-1.1181,-1.1097,0.0,0.0,0.0,0.0,0.0,0.0,0.0,0.0,0.0,0.0,0.0,0.0,-1.2012,-1.1872,0.0,0.0,0.0,0.0,0.0,-1.1167,-1.1216,-1.1435,-1.1745,-1.1807,0.0,0.0,-1.1639,0.0,0.0,0.0,0.0,0.0,-1.3002,-1.3552,-1.3918,-1.3977,-1.3937,-1.4241,-1.4678,-1.5152,-1.5631,-1.6481,-1.7166,-1.6647,-1.6936,-1.7272,-1.6638,-1.6019,-1.5424,-1.4997,-1.4498,-1.3983,-1.3497,-1.3497,-1.3564,-1.3514,-1.3752,-1.4052,-1.4278,-1.5077,-1.5982,-1.6809,-1.7543,-1.834,-1.9277,-2.0515,-2.1585,-2.2332,-2.3388,0.0,0.0,0.0,0.0,-1.8908,-1.8857,-1.8965,-1.9093,-1.9506,-1.9689,-1.9621,-1.9169,-1.8577,-1.7908,-1.7046,-1.6349,-1.5792,-1.5792,-1.5869,-1.5988,-1.5979,0.0,0.0,-1.6134,-1.61,-1.61,-1.61,-1.6057,-1.5957,-1.5957,-1.5266,-1.4328,0.0,0.0,0.0,0.0,0.0,0.0,0.0,-1.1551,-1.1928,-1.1928,-1.1928,-1.1928,-1.1928,-1.1422,-1.1097,0.0,0.0,0.0,0.0,0.0,0.0,0.0,0.0,0.0,0.0,0.0,0.0,-1.2012,-1.145,0.0,0.0,0.0,0.0,0.0,0.0,-1.1707,-1.269,-1.2068,0.0,0.0,0.0,0.0,0.0,0.0,0.0,0.0,0.0,-1.367,-1.4122,-1.416,-1.4056,-1.3888,-1.387,-1.4224,-1.4743,-1.5221,-1.6061,-1.679,-1.6556,-1.6936,-1.7272,-1.6638,-1.5731,-1.4959,-1.4916,-1.4212,-1.3544,-1.3421,-1.3459,-1.3514,-1.3497,-1.3719,-1.395,-1.4019,-1.4574,-1.5219,-1.5919,-1.6761,-1.7548,-1.8255,-2.0098,-2.1164,-2.0835,-2.2494,0.0,0.0,0.0,0.0,0.0,-2.0055,-2.048,-2.102,-2.0876,-2.0619,-2.0302,-1.9663,-1.8645,-1.7277,-1.7183,-1.6671,-1.5792,-1.5792,-1.5869,-1.5988,0.0,0.0,0.0,-1.5903,-1.5836,-1.5836,-1.5836,-1.5836,-1.5814,-1.5814,-1.5175,-1.4374,0.0,0.0,0.0,0.0,0.0,0.0,-1.0837,-1.1128,-1.1366,-1.1438,-1.139,-1.1353,-1.139,-1.1178,-1.105,-1.1097,0.0,0.0,0.0,0.0,0.0,0.0,0.0,0.0,0.0,0.0,-1.1759,-1.2012,-1.1759,0.0,0.0,0.0,0.0,0.0,0.0,0.0,-1.1693,-1.1766,0.0,0.0,0.0,0.0,0.0,0.0,0.0,0.0,0.0,0.0,-1.4219,-1.4252,-1.4105,-1.3855,-1.3579,-1.3805,-1.4232,-1.4554,-1.5433,-1.6273,-1.6061,-1.6434,-1.6722,-1.617,-1.5462,-1.4828,-1.4488,-1.3933,-1.348,-1.3476,-1.3493,-1.3514,-1.3547,-1.3615,-1.3785,-1.4181,-1.4485,-1.4993,-1.595,-1.6727,-1.7517,-1.8404,-2.0563,-2.1969,0.0,0.0,0.0,0.0,0.0,0.0,0.0,-2.0415,-2.0328,-2.0161,-2.0437,-2.0522,-2.04,-1.9199,-1.8483,-1.8218,-1.6966,-1.6326,-1.6283,-1.5958,-1.5836,-1.5869,0.0,0.0,0.0,-1.5814,-1.5792,-1.5792,-1.5792,-1.5792,-1.5792,-1.5792,-1.5153,-1.4328,0.0,0.0,0.0,0.0,0.0,-1.0621,-1.0741,-1.1,-1.122,-1.1306,-1.1256,-1.1246,-1.1256,-1.1126,-1.105,-1.1097,-1.1097,0.0,0.0,0.0,0.0,0.0,0.0,0.0,0.0,0.0,-1.183,-1.2012,-1.2012,-1.2012,0.0,0.0,0.0,0.0,0.0,0.0,0.0,0.0,0.0,0.0,0.0,0.0,0.0,0.0,0.0,0.0,0.0,0.0,0.0,0.0,0.0,-1.3842,-1.3576,-1.3658,-1.392,-1.4019,-1.4756,-1.5542,-1.5504,-1.5751,-1.5944,-1.5563,-1.5079,-1.4582,-1.4191,-1.3798,-1.3497,-1.3497,-1.3493,-1.3497,-1.3581,-1.3531,-1.3615,-1.4084,-1.4342,-1.4834,-1.5854,-1.668,-1.7534,-1.8461,0.0,-2.208,0.0,0.0,0.0,0.0,0.0,0.0,0.0,-2.067,-2.0372,-1.9719,-2.0253,-2.0415,-2.0119,-1.8868,-1.8297,-1.8366,-1.6938,-1.6286,-1.6355,-1.596,-1.5792,-1.5792,0.0,0.0,0.0,-1.5792,-1.5726,-1.5592,-1.5592,-1.5491,-1.5356,-1.5356,-1.4903,-1.4271,0.0,0.0,0.0,0.0,0.0,0.0,-1.0861,-1.1457,-1.1871,-1.1807,-1.191,-1.196,-1.191,-1.1414,-1.1097,-1.1097,-1.1097,0.0,0.0,0.0,0.0,0.0,0.0,0.0,0.0,0.0,-1.1394,-1.2012,-1.2012,-1.2012,-1.2012,-1.1998,-1.196,-1.1869,0.0,0.0,0.0,0.0,0.0,0.0,0.0,0.0,0.0,0.0,0.0,0.0,0.0,0.0,0.0,0.0,0.0,0.0,0.0,-1.3891,-1.3874,-1.3732,-1.4076,-1.4596,-1.4917,-1.4954,-1.4928,-1.4916,-1.4556,-1.4194,-1.4121,-1.3798,-1.3497,-1.3497,-1.3459,-1.3442,-1.3581,-1.348,-1.3459,-1.3598,-1.4052,-1.4658,-1.5391,-1.6493,-1.7481,0.0,0.0,-2.1001,-2.1741,0.0,0.0,0.0,0.0,0.0,0.0,-2.097,-2.1012,-2.0414,-2.0726,-2.0411,-1.9424,-1.8863,-1.8123,-1.7225,-1.7251,-1.6759,-1.5804,-1.5792,-1.5792,0.0,0.0,0.0,0.0,-1.5792,-1.5525,-1.5108,-1.5108,-1.4777,-1.4328,-1.4328,-1.4317,-1.4235,0.0,0.0,0.0,0.0,0.0,0.0,0.0,-1.0978,-1.1113,-1.1187,-1.1138,-1.1125,-1.115,-1.1045,-1.0956,-1.0956,-1.105,0.0,0.0,0.0,0.0,0.0,0.0,0.0,0.0,0.0,-1.1394,-1.2012,-1.1948,-1.2198,-1.2672,-1.2119,-1.1871,-1.187,-1.1221,0.0,0.0,0.0,0.0,0.0,0.0,0.0,0.0,0.0,0.0,0.0,0.0,0.0,0.0,0.0,0.0,0.0,0.0,0.0,0.0,-1.3775,-1.418,-1.4623,-1.4543,-1.4858,-1.5132,-1.4728,-1.4461,-1.417,-1.3769,-1.3552,-1.3425,-1.3425,-1.3408,-1.3408,-1.3459,-1.3425,-1.3459,-1.3648,-1.4463,-1.5206,-1.5569,-1.6933,0.0,-1.876,-2.0709,-2.2279,0.0,0.0,0.0,0.0,0.0,0.0,0.0,-2.097,-2.1012,-2.0414,-2.0514,-2.0203,-1.9424,-1.8495,-1.7952,-1.7744,-1.707,-1.6599,-1.6343,-1.596,0.0,0.0,0.0,0.0,0.0,-1.5792,-1.5513,-1.5108,-1.5108,-1.4777,-1.4305,-1.4305,-1.4264,-1.4213,0.0,0.0,0.0,0.0,0.0,0.0,0.0,-1.0729,-1.0753,-1.0813,-1.0801,-1.0777,-1.0801,-1.0873,-1.0932,-1.0932,-1.1038,0.0,0.0,0.0,0.0,0.0,0.0,0.0,-1.1062,-1.1038,-1.1322,-1.191,-1.2108,-1.2441,-1.2886,-1.2609,-1.225,-1.1806,-1.1383,-1.1045,0.0,0.0,0.0,0.0,0.0,0.0,-1.2546,0.0,0.0,0.0,0.0,0.0,0.0,0.0,0.0,0.0,0.0,0.0,0.0,0.0,-1.4087,-1.4345,-1.4093,-1.4382,-1.4629,-1.4262,-1.4136,-1.3998,-1.3604,-1.3476,-1.3425,-1.3408,-1.3357,-1.334,-1.3425,-1.3374,-1.3391,-1.3598,-1.4577,-1.5475,-1.5867,0.0,0.0,-1.9377,0.0,0.0,0.0,0.0,0.0,0.0,0.0,0.0,0.0,0.0,-2.1125,-2.0759,-2.0745,-2.0428,-1.9789,-1.8899,-1.8432,-1.8301,-1.7458,-1.6898,-1.6555,-1.6225,0.0,0.0,0.0,0.0,0.0,-1.5792,-1.5401,-1.48,-1.48,-1.4385,-1.3776,-1.3776,-1.3858,-1.3982,0.0,0.0,0.0,0.0,0.0,0.0,0.0,-1.0693,-1.0753,-1.0693,-1.0801,-1.0861,-1.0801,-1.0908,-1.0991,-1.0991,0.0,0.0,0.0,0.0,0.0,0.0,0.0,0.0,-1.0991,-1.0932,-1.1214,-1.1863,-1.2416,-1.2747,-1.2857,-1.3351,-1.2966,-1.1854,-1.1787,-1.1407,-1.0828,-1.0828,-1.0828,-1.0923,-1.2102,-1.2534,0.0,0.0,0.0,0.0,0.0,0.0,0.0,0.0,0.0,0.0,0.0,0.0,0.0,0.0,0.0,0.0,0.0,-1.3615,-1.3632,-1.3615,-1.3695,-1.3741,-1.3543,-1.348,0.0,-1.3408,-1.3301,-1.3279,-1.351,-1.3348,-1.3296,-1.351,-1.4512,-1.552,-1.6198,-1.7508,0.0,0.0,-2.1318,0.0,0.0,0.0,0.0,0.0,0.0,0.0,0.0,0.0,-2.1316,-2.1316,-2.1316,-2.0984,-2.0344,-1.9784,-1.9239,-1.8717,-1.8213,-1.7449,-1.65,-1.65,0.0,0.0,0.0,0.0,0.0,-1.577,-1.521,-1.4351,-1.4281,-1.3705,-1.2954,-1.2905,-1.3216,-1.3631,0.0,0.0,0.0,0.0,0.0,0.0,0.0,0.0,0.0,0.0,-1.0693,-1.0741,-1.0729,-1.0801,-1.0849,0.0,0.0,0.0,0.0,0.0,0.0,0.0,0.0,0.0,-1.092,-1.0908,-1.1421,-1.2485,-1.2526,-1.3145,-1.4283,-1.3661,-1.3345,-1.3275,-1.2608,-1.2211,-1.2089,-1.2089,-1.2089,-1.2156,-1.2932,-1.3186,0.0,0.0,0.0,0.0,-1.3874,-1.3841,0.0,0.0,0.0,0.0,0.0,0.0,0.0,0.0,-1.3804,-1.3821,-1.3758,0.0,-1.3885,-1.3775,-1.3695,-1.3628,0.0,-1.3374,-1.3267,-1.325,-1.3215,-1.3358,-1.3862,-1.3631,-1.3479,-1.3892,-1.5136,-1.6084,-1.6199,0.0,0.0,-2.0117,0.0,0.0,0.0,0.0,0.0,0.0,0.0,0.0,0.0,0.0,-2.1316,-2.1316,-2.1316,-2.0773,-1.9649,-1.9036,-1.8514,-1.8024,-1.7902,-1.7366,-1.65,-1.65,0.0,0.0,0.0,0.0,-1.577,-1.5401,-1.5131,-1.4846,-1.4048,-1.3634,-1.3382,-1.3017,-1.3356,-1.3978,0.0,0.0,0.0,0.0,0.0,0.0,0.0,0.0,0.0,0.0,0.0,-1.0621,-1.0621,-1.0668,0.0,0.0,0.0,0.0,0.0,0.0,0.0,0.0,0.0,-1.0908,-1.0801,-1.1087,-1.1651,-1.2523,-1.2751,-1.345,-1.4511,-1.3961,-1.3691,-1.3573,-1.2824,-1.236,-1.2102,-1.2373,-1.248,-1.2506,-1.3159,0.0,0.0,0.0,0.0,0.0,-1.3507,-1.3386,0.0,-1.3143,-1.3221,-1.3386,0.0,0.0,0.0,0.0,-1.3804,-1.3804,-1.3804,-1.4076,-1.4341,-1.4197,-1.4102,-1.4037,-1.3899,-1.3582,-1.3267,-1.3215,-1.3198,-1.332,-1.371,-1.3903,-1.4089,-1.4369,-1.582,0.0,0.0,0.0,-2.0547,-2.0477,0.0,0.0,0.0,0.0,0.0,0.0,0.0,0.0,0.0,0.0,-2.1316,-2.1316,-2.1026,-2.0555,-1.9859,-1.9228,-1.8785,-1.8528,-1.8024,-1.7462,-1.6808,-1.6607,0.0,0.0,0.0,0.0,-1.5792,-1.5525,-1.5142,-1.4686,-1.4118,-1.3658,-1.3248,-1.2992,-1.3174,-1.3584,0.0,0.0,0.0,0.0,0.0,0.0,0.0,0.0,0.0,0.0,0.0,0.0,0.0,0.0,0.0,0.0,0.0,0.0,0.0,0.0,0.0,0.0,-1.0849,-1.0842,-1.0816,-1.1303,-1.1858,-1.247,-1.3105,-1.3689,-1.4238,-1.4314,-1.406,-1.3512,-1.301,-1.2495,-1.2034,-1.2549,-1.2707,-1.2689,-1.3201,0.0,0.0,0.0,0.0,0.0,0.0,0.0,0.0,-1.2293,-1.2489,-1.2917,-1.2979,0.0,0.0,0.0,0.0,0.0,-1.3804,-1.434,-1.4787,-1.4523,-1.4488,-1.4466,-1.4192,-1.3734,-1.334,-1.3215,-1.3198,-1.33,-1.3672,-1.4215,-1.4739,0.0,0.0,0.0,-1.8874,-1.9638,-2.0222,-2.0581,0.0,0.0,0.0,0.0,0.0,0.0,0.0,0.0,0.0,0.0,0.0,-2.1012,-2.0512,-2.0203,-2.0119,-1.955,-1.927,-1.9249,-1.8268,-1.7598,-1.7178,-1.6714,-1.6241,0.0,0.0,0.0,-1.5792,-1.5726,-1.5232,-1.4513,-1.4451,-1.3886,-1.3123,-1.312,-1.3076,-1.3062,0.0,0.0,0.0,0.0,0.0,0.0,0.0,0.0,0.0,0.0,0.0,0.0,0.0,0.0,0.0,0.0,0.0,0.0,0.0,0.0,0.0,-1.0644,-1.0644,-1.0887,-1.1373,-1.1402,-1.2019,-1.3224,-1.3679,-1.4084,-1.4452,-1.4799,-1.4678,-1.4164,-1.407,-1.3943,-1.3814,-1.3909,-1.3872,-1.3763,-1.3872,0.0,0.0,0.0,0.0,0.0,0.0,0.0,0.0,-1.2048,-1.2415,-1.2902,-1.2917,0.0,0.0,0.0,0.0,0.0,-1.3804,-1.4488,-1.4968,-1.3934,-1.398,-1.4103,-1.3511,-1.3295,-1.3215,-1.3198,-1.3198,-1.3614,-1.493,-1.4691,-1.4798,0.0,0.0,-1.7953,0.0,0.0,0.0,0.0,0.0,0.0,0.0,0.0,0.0,0.0,0.0,0.0,0.0,0.0,0.0,-1.9691,-1.9607,-1.9312,-1.8793,-1.868,-1.8638,-1.8638,-1.8077,-1.7598,-1.7178,-1.6714,-1.6241,0.0,0.0,-1.5792,-1.577,-1.5356,-1.5356,-1.5538,-1.5121,-1.4605,-1.4101,-1.4143,-1.3851,-1.3477,0.0,0.0,0.0,0.0,0.0,0.0,0.0,0.0,0.0,0.0,0.0,0.0,0.0,0.0,0.0,0.0,0.0,0.0,0.0,0.0,-1.0594,-1.0963,-1.0938,-1.1083,-1.1429,-1.245,-1.3202,-1.3661,-1.4587,-1.4954,-1.4825,-1.4681,-1.4281,-1.3671,-1.398,-1.3937,-1.3637,-1.3945,-1.4029,-1.3944,0.0,0.0,0.0,0.0,0.0,0.0,0.0,0.0,0.0,0.0,-1.1474,-1.2038,-1.2309,0.0,0.0,0.0,0.0,0.0,-1.3695,-1.4183,-1.4571,-1.4016,-1.4497,-1.5025,-1.4645,-1.4337,-1.4124,-1.4124,-1.4124,-1.4348,-1.505,-1.5462,-1.6236,-1.788,0.0,-1.897,0.0,0.0,0.0,0.0,0.0,0.0,0.0,0.0,0.0,0.0,0.0,0.0,0.0,0.0,0.0,0.0,-1.939,-1.9115,-1.8512,-1.8498,-1.8366,-1.8115,-1.7679,-1.7248,-1.682,-1.6349,-1.6013,-1.5816,0.0,-1.6078,-1.5816,-1.5865,-1.5556,-1.5006,-1.5019,-1.4441,-1.3577,-1.3816,-1.3725,-1.3574,0.0,0.0,0.0,0.0,0.0,0.0,0.0,0.0,0.0,0.0,0.0,0.0,0.0,0.0,0.0,0.0,0.0,0.0,0.0,-1.0299,-1.0599,-1.1269,-1.1386,-1.1625,-1.2044,-1.3473,-1.4275,-1.4426,-1.5403,-1.56,-1.5036,-1.4469,-1.3883,-1.3331,-1.3786,-1.373,-1.3327,-1.3781,-1.3944,-1.3888,0.0,0.0,0.0,0.0,0.0,0.0,0.0,0.0,0.0,0.0,0.0,0.0,0.0,0.0,0.0,-1.3432,-1.3587,-1.3598,-1.3581,-1.3873,-1.4237,-1.4364,-1.4942,-1.5486,-1.552,-1.5097,-1.4752,-1.4859,-1.4896,-1.4973,-1.5215,-1.6399,0.0,-1.8641,-1.9387,0.0,0.0,0.0,0.0,0.0,0.0,0.0,0.0,0.0,0.0,0.0,0.0,0.0,0.0,0.0,0.0,0.0,-1.92,-1.8975,-1.8498,-1.8498,-1.8254,-1.7787,-1.7393,-1.6947,-1.6466,-1.6001,-1.5792,-1.5816,-1.6235,-1.6187,-1.5828,-1.6247,-1.5649,-1.4534,-1.503,-1.4418,-1.3253,-1.3439,-1.3506,-1.3574,0.0,0.0,0.0,0.0,0.0,0.0,0.0,0.0,0.0,0.0,0.0,0.0,0.0,0.0,0.0,0.0,0.0,0.0,0.0,-1.0299,-1.0599,-1.1269,-1.1823,-1.2718,-1.3971,-1.3946,-1.458,-1.5946,-1.5855,-1.5496,-1.4905,-1.4423,-1.4114,-1.3933,-1.3973,-1.3937,-1.3855,-1.3894,-1.3871,-1.3804,-1.3804,0.0,0.0,0.0,0.0,0.0,0.0,0.0,0.0,0.0,0.0,0.0,0.0,0.0,-1.2899,-1.2883,-1.321,-1.3598,-1.3514,-1.385,-1.4308,-1.4828,-1.4582,-1.4355,-1.4853,-1.4538,-1.4286,-1.4802,-1.4896,-1.5183,-1.612,-1.7445,-1.8283,-1.7948,-1.86,0.0,0.0,0.0,0.0,0.0,0.0,0.0,0.0,0.0,0.0,0.0,0.0,0.0,0.0,0.0,0.0,0.0,0.0,-1.854,-1.8498,-1.8498,-1.8254,-1.7787,-1.7393,-1.6947,-1.6466,-1.6001,-1.5792,-1.5792,-1.5828,-1.585,-1.5792,-1.5828,-1.5538,-1.5108,-1.5635,-1.5196,-1.4227,-1.369,-1.3506,-1.3574,0.0,0.0,0.0,0.0,0.0,0.0,0.0,0.0,0.0,0.0,0.0,0.0,0.0,0.0,0.0,0.0,0.0,0.0,0.0,-1.0651,-1.1162,-1.1823,-1.2361,-1.3264,-1.461,-1.4919,-1.5327,-1.5843,-1.5425,-1.5101,-1.4835,-1.4269,-1.3957,-1.3891,-1.3891,-1.3858,-1.3838,-1.3838,-1.3821,-1.3804,-1.3804,-1.3804,0.0,0.0,0.0,0.0,0.0,0.0,0.0,0.0,-1.0443,-1.0704,-1.1029,-1.1652,-1.2338,-1.2652,-1.2946,-1.3207,-1.3391,-1.3639,-1.4007,-1.4745,-1.4771,-1.484,-1.5693,-1.5731,-1.5643,-1.5856,-1.5894,-1.6101,-1.6772,0.0,-1.77,-1.774,0.0,0.0,0.0,0.0,0.0,0.0,0.0,0.0,0.0,0.0,0.0,0.0,0.0,0.0,0.0,0.0,0.0,0.0,0.0,-1.8366,-1.8075,-1.8062,-1.77,-1.6997,-1.7136,-1.6799,-1.6044,-1.5881,-1.5792,-1.5816,-1.6163,-1.6307,-1.6284,-1.5973,-1.5567,-1.5026,-1.4297,-1.3957,-1.3801,-1.3582,-1.3506,-1.3525,0.0,0.0,0.0,0.0,0.0,0.0,0.0,0.0,0.0,0.0,0.0,0.0,0.0,0.0,0.0,0.0,0.0,0.0,-1.0299,-1.086,-1.149,-1.2109,-1.2631,-1.35,-1.4791,-1.522,-1.5525,-1.5718,-1.5176,-1.4756,-1.4484,-1.4076,-1.3871,-1.3804,-1.3804,-1.3804,-1.3804,-1.3804,-1.3804,-1.3804,-1.3804,-1.3804,0.0,0.0,0.0,0.0,0.0,0.0,0.0,0.0,-1.0275,-1.034,-1.0677,-1.1283,-1.1936,-1.2291,-1.2692,-1.3087,-1.3288,-1.339,-1.3705,-1.465,-1.4896,-1.5185,-1.6271,-1.6362,-1.6308,-1.6463,-1.65,-1.6586,-1.6884,-1.7039,0.0,0.0,0.0,0.0,0.0,0.0,0.0,0.0,0.0,0.0,0.0,0.0,0.0,0.0,0.0,0.0,0.0,0.0,0.0,0.0,0.0,-1.8115,-1.7787,-1.7679,-1.7248,-1.65,-1.6842,-1.6552,-1.5792,-1.5792,-1.5792,-1.5816,-1.6199,-1.6355,-1.6309,-1.5835,-1.5224,-1.4521,-1.3345,-1.3057,-1.333,-1.3457,-1.3418,-1.335,0.0,0.0,0.0,0.0,0.0,0.0,0.0,0.0,0.0,0.0,0.0,0.0,0.0,0.0,0.0,0.0,0.0,0.0,-1.0299,-1.0873,-1.1448,-1.1981,-1.2585,-1.3438,-1.4576,-1.4585,-1.498,-1.579,-1.5185,-1.4509,-1.3804,-1.3871,-1.3871,-1.3804,-1.3804,-1.3804,-1.3804,-1.3804,-1.3804,-1.3804,-1.3804,-1.3804,-1.3739,0.0,0.0,0.0,0.0,0.0,0.0,0.0,-1.0199,-1.0199,-1.0122,-1.0879,-1.1784,-1.171,-1.2497,-1.3357,-1.3232,-1.321,-1.3473,-1.462,-1.4916,-1.5198,-1.6249,-1.6095,-1.5856,-1.6387,-1.65,-1.6479,-1.6414,-1.6731,0.0,0.0,0.0,0.0,0.0,0.0,0.0,0.0,0.0,0.0,0.0,0.0,0.0,0.0,0.0,0.0,0.0,0.0,0.0,0.0,0.0,0.0,-1.7787,-1.7393,-1.6968,-1.65,-1.65,-1.6262,-1.5792,-1.5792,-1.5792,-1.5792,-1.5792,-1.5792,-1.5782,-1.53,-1.4501,-1.3549,-1.3089,-1.2905,-1.2954,-1.335,-1.3242,-1.2998,0.0,0.0,0.0,0.0,0.0,0.0,0.0,0.0,0.0,0.0,0.0,0.0,0.0,0.0,0.0,0.0,0.0,0.0,-1.0287,-1.1212,-1.1825,-1.198,-1.2991,-1.37,-1.404,-1.404,-1.4332,-1.4967,-1.4414,-1.4012,-1.3804,-1.3821,-1.3821,-1.3804,-1.3804,-1.3804,-1.3788,-1.3695,-1.3661,-1.3661,-1.3611,-1.3594,-1.3581,0.0,0.0,0.0,0.0,0.0,0.0,0.0,0.0,0.0,-1.0046,-1.0646,-1.1414,-1.1575,-1.2127,-1.2768,-1.3112,-1.3648,-1.4242,-1.477,-1.5475,-1.612,-1.6425,-1.6375,-1.63,-1.6463,-1.65,-1.6479,-1.6414,-1.65,0.0,0.0,0.0,0.0,0.0,0.0,0.0,0.0,0.0,0.0,0.0,0.0,0.0,0.0,0.0,0.0,0.0,0.0,0.0,0.0,0.0,0.0,-1.7372,-1.6934,-1.6466,-1.6001,-1.6001,-1.5935,-1.5792,-1.5792,-1.5792,-1.5792,-1.5792,-1.6008,-1.6298,-1.546,-1.4514,-1.3549,-1.3089,-1.2905,-1.2925,-1.3018,-1.2757,-1.2435,0.0,0.0,0.0,0.0,0.0,0.0,0.0,0.0,0.0,0.0,-0.9632,-0.9802,0.0,0.0,0.0,0.0,0.0,0.0,0.0,-1.1299,-1.1919,-1.2007,-1.316,-1.3804,-1.3804,-1.3804,-1.3961,-1.4289,-1.3961,-1.3804,-1.3804,-1.3804,-1.3758,-1.3725,-1.3725,-1.3708,-1.3674,-1.3581,-1.3564,-1.3564,-1.3514,-1.3497,-1.3497,0.0,0.0,0.0,0.0,0.0,0.0,0.0,0.0,0.0,-1.0236,-1.0778,-1.1434,-1.1808,-1.23,-1.2785,-1.3112,-1.3758,-1.4422,-1.4795,-1.5563,-1.6245,-1.645,-1.65,-1.65,-1.6479,-1.6479,-1.6457,-1.6284,-1.6284,0.0,0.0,0.0,0.0,0.0,0.0,0.0,0.0,0.0,0.0,0.0,0.0,0.0,0.0,0.0,0.0,0.0,0.0,0.0,0.0,0.0,0.0,-1.6926,-1.6457,-1.6066,-1.5792,-1.5792,-1.5792,-1.5792,-1.5792,-1.5792,-1.5792,-1.5614,-1.5724,-1.5939,-1.492,-1.4137,-1.3549,-1.3089,-1.2905,-1.2905,-1.2905,-1.2554,-1.2175,0.0,0.0,-0.9106,-0.9106,0.0,0.0,0.0,0.0,0.0,0.0,-0.9432,-0.9592,0.0,0.0,0.0,-0.997,-0.997,-1.0072,-1.0287,-1.1175,-1.179,-1.1993,-1.316,-1.3804,-1.3804,-1.3804,-1.3804,-1.3804,-1.3804,-1.3804,-1.3804,-1.3788,-1.3725,-1.3598,-1.3598,-1.3539,-1.3433,-1.3403,-1.3416,-1.3416,-1.3403,-1.3425,-1.3476,-1.3476,0.0,0.0,0.0,0.0,0.0,0.0,0.0,0.0,-1.0567,-1.1103,-1.1612,-1.2161,-1.2693,-1.3129,-1.3163,-1.3654,-1.4286,-1.479,-1.5349,-1.5906,-1.6387,-1.65,-1.6479,-1.6414,-1.6457,-1.6392,-1.6054,-1.61,0.0,0.0,0.0,0.0,0.0,0.0,0.0,0.0,0.0,0.0,0.0,0.0,0.0,0.0,0.0,0.0,0.0,0.0,0.0,0.0,0.0,0.0,-1.65,-1.6022,-1.5792,0.0,-1.5792,-1.5792,-1.5792,-1.5792,-1.5792,-1.577,-1.5356,-1.5153,-1.5085,-1.4082,-1.3658,-1.361,-1.3089,-1.2905,-1.2905,-1.2905,-1.2529,-1.2101,0.0,0.0,-0.9106,-0.9106,0.0,0.0,0.0,0.0,0.0,0.0,0.0,0.0,0.0,-0.9526,0.0,-0.9762,-0.9762,-0.9918,-1.0287,-1.1175,-1.179,-1.1993,-1.316,-1.3804,-1.3804,-1.3804,-1.3804,-1.3804,-1.3804,-1.3804,-1.3804,-1.3695,-1.3628,-1.3598,-1.3531,-1.3286,-1.2875,-1.2759,-1.2726,-1.271,-1.2661,-1.2893,-1.3267,-1.3267,-1.2851,0.0,0.0,0.0,0.0,0.0,0.0,0.0,-1.0741,-1.0966,-1.1002,-1.154,-1.2109,-1.2627,-1.282,-1.379,-1.4765,-1.4878,-1.5618,-1.635,-1.6475,-1.6457,-1.6414,-1.6392,-1.6414,-1.6349,-1.6054,0.0,0.0,0.0,0.0,0.0,0.0,0.0,0.0,0.0,0.0,0.0,0.0,0.0,0.0,0.0,0.0,0.0,0.0,0.0,0.0,0.0,0.0,-1.65,-1.65,-1.6022,-1.5792,0.0,-1.5792,-1.5792,-1.5792,-1.5792,-1.5792,-1.5792,-1.5681,-1.5659,-1.5558,-1.4559,-1.4142,-1.4071,-1.3224,-1.2905,-1.2905,-1.2905,-1.2264,-1.1485,0.0,0.0,0.0,0.0,0.0,0.0,0.0,0.0,0.0,0.0,0.0,0.0,0.0,-0.9445,0.0,0.0,-0.9789,-0.997,-1.0287,-1.1175,-1.2019,-1.274,-1.337,-1.3678,-1.3657,-1.3657,-1.3657,-1.3657,-1.3657,-1.3674,-1.3695,-1.3611,-1.3531,-1.3497,-1.3476,-1.3106,-1.2548,-1.2484,-1.2301,-1.2077,-1.203,-1.2341,-1.2826,-1.2826,-1.2638,-1.2393,-1.2389,0.0,0.0,0.0,0.0,0.0,0.0,0.0,-1.1398,-1.1738,-1.2089,-1.2437,-1.265,-1.3705,-1.4846,-1.551,-1.6011,-1.6383,-1.6436,-1.6371,-1.6297,-1.6219,-1.6275,-1.6231,0.0,0.0,0.0,0.0,0.0,0.0,0.0,0.0,0.0,0.0,0.0,0.0,0.0,0.0,0.0,0.0,0.0,0.0,0.0,0.0,0.0,0.0,-1.6284,-1.6154,-1.6154,-1.5925,-1.5792,-1.5792,-1.5792,-1.5792,-1.5792,-1.5792,-1.5792,-1.5792,-1.5558,-1.5446,-1.5379,-1.4374,-1.3954,-1.3884,-1.3176,-1.2905,-1.2905,-1.2905,-1.2166,-1.1284,0.0,0.0,0.0,0.0,0.0,0.0,0.0,0.0,0.0,0.0,0.0,0.0,0.0,-0.9405,-0.9671,0.0,0.0,0.0,-1.0237,-1.1189,-1.2291,-1.3546,-1.3598,-1.3564,-1.3497,-1.3497,-1.3497,-1.3497,-1.348,-1.3514,-1.3564,-1.3514,-1.3459,-1.3408,-1.3374,-1.3002,-1.2388,-1.23,-1.2015,-1.1603,-1.1603,-1.1914,-1.24,-1.25,-1.2538,-1.2555,-1.2731,-1.2108,-1.1179,-1.1093,0.0,0.0,0.0,0.0,-1.1876,-1.2017,-1.2168,-1.2312,-1.2407,-1.3413,-1.4743,-1.6006,-1.6244,-1.6244,-1.634,-1.6253,-1.6144,-1.6022,-1.61,0.0,0.0,0.0,0.0,0.0,0.0,0.0,0.0,0.0,0.0,0.0,0.0,0.0,0.0,0.0,0.0,0.0,0.0,0.0,0.0,0.0,-1.6197,-1.5814,-1.5792,-1.5792,-1.5792,-1.5792,-1.5792,-1.5792,-1.5792,-1.5792,-1.5792,-1.5792,-1.5792,-1.577,-1.5311,-1.5108,-1.5017,-1.4012,-1.3597,-1.3549,-1.3089,-1.2905,-1.2905,-1.2905,-1.2166,-1.1284,0.0,0.0,0.0,0.0,0.0,0.0,0.0,0.0,0.0,0.0,-0.8742,-0.8809,0.0,-0.9365,-0.9566,-0.9448,-0.979,-1.0008,-1.0034,0.0,0.0,-1.3546,-1.3598,-1.3564,-1.3497,-1.3497,-1.3497,-1.3497,-1.3442,-1.3425,-1.3425,-1.3425,-1.3408,-1.3391,-1.3284,-1.2931,-1.2363,-1.1902,-1.1666,-1.1603,-1.1603,-1.1914,-1.245,-1.291,-1.3085,-1.3064,-1.2866,-1.2253,-1.1598,-1.2048,-1.1432,0.0,0.0,0.0,-1.1256,-1.1454,-1.1678,-1.1866,-1.1763,-1.2935,-1.4381,-1.5319,-1.5877,-1.62,-1.6222,-1.611,-1.6022,0.0,-1.601,0.0,0.0,0.0,0.0,0.0,0.0,0.0,0.0,0.0,0.0,0.0,0.0,0.0,0.0,0.0,0.0,0.0,0.0,0.0,0.0,-1.5859,-1.5859,-1.5792,-1.5792,-1.5792,-1.5792,-1.5792,-1.5792,-1.5792,-1.5792,-1.5792,-1.5792,-1.5792,-1.5792,-1.577,-1.5311,-1.5108,-1.5017,-1.4012,-1.3597,-1.3549,-1.3089,-1.2905,-1.2905,-1.2905,-1.2166,-1.12,0.0,0.0,0.0,0.0,0.0,0.0,0.0,0.0,0.0,0.0,0.0,-0.8701,0.0,-0.9108,-0.9338,-0.9232,-0.9566,-0.9939,-1.0318,-1.0892,-1.1633,-1.2606,-1.2656,-1.2793,-1.3104,-1.2805,-1.2805,-1.3116,-1.2771,-1.2687,-1.2843,-1.2843,-1.2995,-1.3301,-1.3232,-1.2817,-1.2164,-1.1918,-1.154,-1.1109,-1.1262,-1.1656,-1.2218,-1.2597,-1.2804,-1.2843,-1.2738,-1.2271,-1.1721,-1.1687,-1.1456,-1.1175,-1.1173,0.0,0.0,0.0,-1.1335,-1.1593,-1.2167,-1.3116,-1.4176,-1.5138,-1.5688,-1.5991,-1.6066,-1.5979,-1.5891,-1.5891,0.0,0.0,0.0,0.0,0.0,0.0,0.0,0.0,0.0,0.0,0.0,0.0,0.0,0.0,0.0,0.0,0.0,0.0,0.0,0.0,-1.5792,-1.5792,-1.5792,-1.5792,-1.5792,-1.5792,-1.5792,-1.5792,-1.5792,-1.5792,-1.5792,-1.5792,-1.5792,-1.5536,-1.5401,-1.5401,-1.5198,-1.4777,-1.4222,-1.3776,-1.3454,-1.3176,-1.2968,-1.2905,-1.2905,-1.2905,-1.2166,-1.12,0.0,0.0,0.0,0.0,0.0,0.0,0.0,0.0,0.0,0.0,0.0,0.0,0.0,0.0,0.0,0.0,-0.9405,-0.9903,-1.0557,-1.058,-1.0898,-1.1689,-1.1704,-1.1889,-1.2321,-1.1934,-1.1978,-1.251,-1.2082,-1.2065,-1.2395,-1.2395,-1.2609,-1.2943,-1.2943,-1.2624,-1.2094,-1.1928,-1.153,-1.105,-1.1255,-1.1588,-1.198,-1.2324,-1.2455,-1.2478,-1.2496,-1.218,-1.17,-1.1388,-1.1429,-1.1535,-1.0931,-1.1097,0.0,0.0,0.0,-1.1105,-1.1962,-1.262,-1.3356,-1.4538,-1.5095,-1.5414,-1.57,0.0,-1.558,0.0,0.0,0.0,0.0,0.0,0.0,0.0,0.0,0.0,0.0,0.0,0.0,0.0,0.0,0.0,0.0,0.0,0.0,0.0,0.0,0.0,-1.5792,-1.5792,-1.5792,-1.5792,-1.5792,-1.5792,-1.5792,-1.5792,-1.5792,-1.5792,-1.5792,-1.5792,-1.5792,-1.5311,-1.504,-1.4892,-1.4777,-1.4292,-1.3597,-1.3478,-1.3224,-1.2915,-1.2998,-1.3037,-1.3037,-1.3037,-1.2348,-1.1353,0.0,0.0,0.0,0.0,0.0,0.0,0.0,0.0,0.0,0.0,0.0,0.0,-0.9432,-0.9701,-0.9597,-0.8967,-0.9381,-0.9945,-1.0557,-1.047,-1.0656,-1.1207,-1.1181,0.0,-1.0991,-1.0967,-1.1188,-1.1668,-1.1633,-1.1888,-1.2395,-1.2395,-1.2347,-1.2264,-1.2264,-1.2306,-1.233,-1.1704,-1.1628,-1.1931,-1.1948,-1.191,-1.1871,-1.2392,-1.2401,-1.212,-1.2192,-1.1963,-1.1634,-1.1722,-1.1534,-1.1212,-1.1172,-1.1182,-1.1185,0.0,0.0,0.0,-1.0225,-1.0636,-1.1409,-1.2945,-1.3718,-1.428,-1.4993,0.0,0.0,0.0,0.0,0.0,0.0,0.0,0.0,0.0,0.0,0.0,0.0,0.0,0.0,0.0,0.0,0.0,0.0,0.0,0.0,0.0,0.0,0.0,-1.5792,-1.5792,-1.5792,-1.5792,-1.5792,-1.5792,-1.5792,-1.5792,-1.5792,-1.5792,-1.5792,-1.5792,-1.5792,-1.5311,-1.4823,-1.4328,-1.3871,-1.3644,-1.3573,-1.3113,-1.2929,-1.2944,-1.332,-1.3477,-1.3477,-1.3477,-1.2791,-1.1791,0.0,0.0,0.0,0.0,0.0,0.0,0.0,0.0,0.0,0.0,0.0,0.0,0.0,-0.9515,-0.9402,-0.8647,-0.8839,-0.9152,-0.9554,-0.9406,-0.9511,-0.9962,-0.9954,-1.0117,-1.0503,-1.0221,-1.0297,-1.0767,-1.069,-1.0822,-1.1184,-1.1487,-1.166,-1.1697,-1.2048,-1.2138,-1.2,-1.1745,-1.1659,-1.1682,-1.1819,-1.2015,-1.2288,-1.2561,-1.2628,-1.2556,-1.2585,0.0,0.0,0.0,0.0,-1.1139,-1.1139,-1.1052,-1.086,-1.0505,-1.0225,-1.0049,-1.0089,-1.0417,-1.0981,-1.1787,-1.2744,-1.3553,-1.3816,-1.4258,-1.4536,0.0,0.0,0.0,0.0,0.0,0.0,0.0,0.0,0.0,0.0,0.0,0.0,0.0,0.0,0.0,0.0,0.0,0.0,0.0,0.0,0.0,-1.5792,-1.5792,-1.5792,-1.5792,-1.5792,-1.5792,-1.5792,-1.5792,-1.5792,-1.5792,-1.5491,-1.5356,-1.5311,-1.4501,-1.4035,-1.3823,-1.3344,-1.3287,-1.3521,-1.3356,-1.3437,-1.3675,-1.3821,-1.389,-1.389,-1.389,-1.3041,-1.1877,0.0,0.0,0.0,0.0,0.0,0.0,0.0,0.0,0.0,-0.9517,0.0,0.0,0.0,0.0,-0.985,-0.9141,-0.8985,-0.9011,-0.919,-0.8884,-0.8816,-0.9054,-0.9172,-0.9445,-0.9892,-0.9594,-0.9667,-1.0119,-1.0037,-1.016,-1.0513,-1.1028,-1.1271,-1.1309,-1.1704,-1.1785,-1.1667,-1.163,-1.1564,-1.156,-1.2011,-1.219,-1.2227,-1.2765,-1.2731,-1.2423,0.0,0.0,0.0,0.0,0.0,-1.0476,-1.1075,-1.1014,-1.0621,-1.0059,-0.9824,-0.9734,-0.9569,-0.9731,-1.013,-1.0924,-1.1665,-1.2358,-1.2977,0.0,-1.3706,0.0,0.0,0.0,0.0,0.0,0.0,0.0,0.0,0.0,0.0,0.0,0.0,0.0,0.0,0.0,0.0,0.0,0.0,0.0,0.0,0.0,-1.5792,-1.5792,-1.5792,-1.5792,-1.5792,-1.5792,-1.5792,-1.5792,-1.5726,-1.5558,-1.5244,-1.5017,-1.48,-1.3988,-1.3597,-1.3573,-1.3113,-1.3037,-1.3311,-1.3447,-1.3646,-1.3929,-1.4211,-1.4328,-1.4328,-1.4328,-1.3393,-1.2067,0.0,0.0,0.0,0.0,0.0,0.0,0.0,0.0,-0.978,-1.0262,0.0,0.0,0.0,0.0,0.0,-1.0438,-0.9907,-0.9597,-0.9601,-0.9056,-0.8692,-0.8622,-0.8946,-0.9116,-0.9116,-0.9116,-0.934,-0.977,-0.9802,-1.0036,-1.0482,-1.1091,-1.1282,-1.1111,-1.1176,-1.1271,-1.1384,-1.1252,-1.1351,-1.1656,-1.2586,-1.2381,-1.1675,-1.2989,-1.2722,0.0,-1.2257,-1.2079,0.0,-1.2246,0.0,0.0,-1.1002,-1.1113,-1.0448,-0.9696,-0.9399,-0.9159,0.0,0.0,0.0,-1.0333,-1.0459,-1.0646,-1.2471,0.0,-1.2536,0.0,0.0,0.0,0.0,0.0,0.0,0.0,0.0,0.0,0.0,0.0,0.0,0.0,0.0,0.0,0.0,0.0,0.0,0.0,0.0,-1.577,-1.577,-1.5792,-1.5792,-1.5792,-1.5792,-1.5792,-1.5792,-1.5792,-1.5558,-1.5108,-1.5085,-1.48,-1.4258,-1.38,-1.3586,-1.3549,-1.3089,-1.2905,-1.2935,-1.334,-1.3525,-1.3633,-1.4463,-1.4823,-1.4833,-1.4785,-1.383,-1.245,0.0,0.0,0.0,0.0,0.0,-1.0062,-0.9932,-1.0026,-1.0268,0.0,0.0,0.0,-1.0878,-1.0553,-1.0338,-1.0335,-0.9966,-0.9642,-0.9401,-0.9417,-0.9276,-0.891,-0.9298,-0.9487,-0.9379,-0.9487,-0.9408,-0.9146,-0.9769,-0.9988,-0.9801,-1.0639,-1.1063,-1.1111,-1.112,-1.1139,-1.1187,-1.1139,-1.1204,-1.1349,-1.1859,-1.2106,-1.2214,-1.2824,0.0,0.0,0.0,-1.2937,-1.2565,0.0,-1.1913,-1.0819,-1.0596,-1.0351,-1.001,-0.9228,-0.9148,-0.9159,-0.8578,0.0,0.0,0.0,0.0,0.0,-1.0334,-1.0885,-1.1409,0.0,0.0,0.0,0.0,0.0,0.0,0.0,0.0,0.0,0.0,0.0,0.0,0.0,0.0,0.0,0.0,0.0,0.0,0.0,-1.504,-1.488,-1.5266,-1.5289,-1.5446,-1.5792,-1.5792,-1.5792,-1.5792,-1.5792,-1.5558,-1.5108,-1.4709,-1.4258,-1.3776,-1.332,-1.3089,-1.3089,-1.2954,-1.2905,-1.2935,-1.334,-1.3877,-1.4453,-1.4725,-1.4971,-1.5205,-1.4902,-1.383,-1.245,0.0,0.0,-1.0377,-1.0364,0.0,-1.0399,-1.0195,-1.0349,-1.0542,0.0,0.0,0.0,-1.1093,-1.0938,-1.0818,-1.0755,-1.0377,-1.0045,-0.981,-0.9776,-0.9609,-0.9314,-0.9695,-0.9867,-0.9798,-0.9867,-0.9759,-0.945,-0.996,-1.0056,-0.9808,-1.0606,-1.1006,-1.1025,-1.1092,-1.1073,-1.1025,-1.1025,-1.1044,-1.1145,-1.1902,-1.2152,-1.2163,-1.3126,-1.34,0.0,0.0,0.0,-1.271,-1.306,-1.2606,0.0,0.0,-0.9868,-1.0057,-0.9079,-0.9016,-0.9122,-0.8495,-0.827,-0.8273,-0.8451,0.0,0.0,-0.9628,-1.0059,-1.0525,0.0,0.0,0.0,0.0,0.0,0.0,0.0,0.0,0.0,0.0,0.0,0.0,0.0,0.0,0.0,0.0,0.0,0.0,-1.4846,-1.4513,-1.4444,-1.4754,-1.4777,-1.4983,-1.5491,-1.5525,-1.5614,-1.5792,-1.5614,-1.5266,-1.4754,-1.4258,-1.3752,-1.3296,-1.3017,-1.2905,-1.2905,-1.2905,-1.2905,-1.2925,-1.3145,-1.375,-1.4531,-1.4717,-1.5039,-1.5361,-1.4941,-1.383,-1.245,0.0,0.0,-1.1311,-1.0833,-1.0757,-1.0638,-1.0275,-1.053,-1.0818,0.0,-1.1325,-1.1624,-1.1624,-1.1834,-1.184,-1.1491,-1.097,-1.0616,-1.0503,-1.0135,-0.9879,-0.976,-1.0088,-1.0273,-1.0273,-1.0273,-1.0252,-1.02,-1.0252,-1.0252,-1.0211,-1.0806,-1.1006,-1.091,-1.1025,-1.1006,-1.091,-1.091,-1.0962,-1.1158,-1.2347,-1.2368,0.0,0.0,-1.369,-1.3029,-1.3442,-1.3103,-1.2545,-1.3279,-1.2987,0.0,0.0,0.0,0.0,0.0,-0.9038,-0.909,-0.8467,-0.8213,-0.8175,-0.8471,-0.8269,0.0,-0.9557,-0.9588,-0.965,0.0,0.0,0.0,0.0,0.0,0.0,0.0,0.0,0.0,0.0,0.0,0.0,0.0,0.0,0.0,0.0,-1.332,-1.3573,-1.3658,-1.4025,-1.4212,-1.4212,-1.4212,-1.4467,-1.4994,-1.5062,-1.5266,-1.5625,-1.5289,-1.48,-1.4212,-1.38,-1.3344,-1.2905,-1.2905,-1.2905,-1.2905,-1.2905,-1.2905,-1.2905,-1.2905,-1.3379,-1.4143,-1.4561,-1.4971,-1.5293,-1.4863,-1.3765,-1.2362,-1.0545,-1.0929,-1.1228,-1.1113,-1.1196,-1.1348,-1.1569,-1.1405,-1.1502,-1.2145,-1.2327,-1.238,-1.238,-1.2103,-1.189,-1.1815,-1.1312,-1.0843,-1.0446,-1.0597,-1.0503,-1.0122,-1.0528,-1.0757,-1.0757,-1.0757,-1.059,-1.02,-1.059,-1.0561,-1.0211,-1.0712,-1.093,-1.091,-1.093,-1.093,-1.091,-1.091,-1.1344,-1.2048,-1.2307,-1.2328,-1.2287,-1.3331,-1.3617,-1.3473,-1.3566,-1.3483,-1.332,-1.3101,-1.2698,-1.2076,0.0,0.0,0.0,-0.9395,0.0,0.0,0.0,0.0,0.0,0.0,0.0,0.0,-0.7699,-0.7761,-0.8057,0.0,0.0,0.0,0.0,0.0,0.0,0.0,0.0,0.0,0.0,0.0,0.0,0.0,0.0,0.0,0.0,-1.32,-1.3344,-1.4118,-1.3894,-1.3729,-1.3729,-1.3729,-1.3965,-1.4444,-1.4869,-1.4937,-1.4605,-1.4937,-1.464,-1.3729,-1.3634,-1.3344,-1.2905,-1.2905,-1.2905,-1.2905,-1.2905,-1.2905,-1.2905,-1.2905,-1.3379,-1.4114,-1.4202,-1.4531,-1.4853,-1.4397,-1.3283,-1.1955,-1.0996,-1.1163,-1.1309,-1.1309,-1.1309,-1.1458,-1.1878,-1.178,-1.1878,-1.2468,-1.2721,-1.2658,-1.2152,-1.2172,-1.1982,-1.1449,-1.1169,-1.0902,-1.0654,-1.0805,-1.0807,-1.057,-1.0757,-1.091,-1.091,-1.091,-1.0778,-1.0541,-1.0778,-1.0786,-1.0551,-1.0797,-1.1024,-1.124,-1.1003,-1.1024,-1.123,-1.0993,-1.1169,-1.1633,-1.2099,0.0,-1.2989,-1.3421,-1.3597,-1.3597,-1.3597,-1.3597,-1.3421,-1.2285,-1.1999,0.0,0.0,-1.0193,-1.0199,0.0,-0.9275,-0.936,0.0,0.0,0.0,-0.8144,0.0,0.0,0.0,-0.7309,-0.7458,0.0,0.0,0.0,0.0,0.0,0.0,0.0,0.0,0.0,0.0,0.0,0.0,0.0,0.0,0.0,0.0,-1.3041,-1.3089,-1.3573,-1.3382,-1.3248,-1.3248,-1.3248,-1.3478,-1.3941,-1.4222,-1.4339,-1.4305,-1.4328,-1.4106,-1.3597,-1.3368,-1.3138,-1.2905,-1.2905,-1.2905,-1.2905,-1.2905,-1.2905,-1.2905,-1.2905,-1.3101,-1.3415,-1.3714,-1.4082,-1.4404,-1.3948,-1.2995,-1.1817,-1.1553,-1.1511,-1.1459,-1.1432,-1.1346,-1.1439,-1.1858,-1.1858,-1.1967,-1.2415,-1.2856,-1.2866,-1.2142,-1.2425,-1.2299,-1.1434,-1.1313,-1.122,-1.1045,-1.1117,-1.1127,-1.1034,-1.0952,-1.0941,-1.1024,-1.0952,-1.091,-1.091,-1.091,-1.091,-1.091,-1.091,-1.1096,-1.1446,-1.0869,-1.0931,-1.1436,-1.0962,-1.1024,-1.1489,0.0,-1.2825,-1.3214,-1.339,-1.3462,-1.3473,-1.3484,-1.3539,-1.3369,-1.1829,-1.1681,-1.1843,-1.027,-1.0015,0.0,0.0,0.0,0.0,0.0,0.0,0.0,0.0,0.0,-0.7649,0.0,0.0,0.0,0.0,0.0,0.0,0.0,0.0,0.0,0.0,0.0,0.0,0.0,0.0,0.0,0.0,0.0,0.0,0.0,-1.2711,-1.2783,-1.2881,-1.2808,-1.2774,-1.2881,-1.2905,-1.3065,-1.3454,-1.3549,-1.3729,-1.4025,-1.3729,-1.3549,-1.3454,-1.3089,-1.2905,-1.2905,-1.2905,-1.2905,-1.2905,-1.2905,-1.2905,-1.2881,-1.2783,-1.2669,-1.2639,-1.3263,-1.3633,-1.378,-1.3478,-1.2695,-1.1696,-1.1767,-1.176,-1.169,-1.1522,-1.1571,-1.1724,-1.1946,-1.1688,-1.1694,-1.2331,-1.2922,-1.3379,-1.3697,-1.3423,-1.3168,-1.304,-1.282,-1.2336,-1.1571,-1.1902,-1.1975,-1.1529,-1.1107,-1.1086,-1.1509,-1.1116,-1.091,-1.091,-1.091,-1.091,-1.091,-1.091,-1.0931,-1.0941,-1.0056,-1.0149,-1.0952,-1.0487,-1.1458,0.0,-1.34,-1.2803,0.0,-1.2699,-1.2977,-1.2983,-1.3053,-1.329,-1.3508,0.0,-1.2665,-1.2416,0.0,-1.1078,-1.0435,-0.9867,0.0,0.0,0.0,0.0,0.0,0.0,-0.784,0.0,0.0,0.0,0.0,0.0,0.0,0.0,0.0,0.0,0.0,0.0,0.0,0.0,0.0,0.0,0.0,0.0,0.0,0.0,0.0,0.0,-1.2382,-1.2856,-1.2455,-1.2406,-1.2881,-1.2905,-1.2929,-1.2968,-1.3382,-1.343,-1.3065,-1.3406,-1.3382,-1.2968,-1.2929,-1.2905,-1.2905,-1.2905,-1.2905,-1.2905,-1.2905,-1.2905,-1.2856,-1.2382,-1.2178,-1.2252,-1.3157,-1.3243,-1.2857,-1.2811,-1.2152,-1.1209,-1.1763,-1.169,-1.1589,-1.1459,-1.1421,-1.1535,-1.1898,-1.2191,-1.2489,-1.2771,-1.3256,-1.3519,-1.3376,-1.3266,-1.3057,-1.275,-1.261,-1.24,0.0,0.0,-1.1819,-1.1622,-1.1157,-1.0993,-1.1188,-1.0993,-1.091,-1.091,-1.091,-1.091,-1.091,-1.091,-1.1045,-1.1292,-1.1178,-1.1333,-1.1706,-1.1747,-1.2171,0.0,0.0,0.0,0.0,-1.3372,-1.3406,-1.2956,-1.2994,-1.2977,-1.2806,0.0,-1.1827,0.0,0.0,0.0,0.0,0.0,0.0,0.0,0.0,0.0,0.0,0.0,0.0,0.0,-0.6423,0.0,-0.5798,0.0,0.0,0.0,0.0,0.0,0.0,0.0,0.0,0.0,0.0,0.0,0.0,0.0,0.0,0.0,0.0,0.0,0.0,0.0,0.0,-1.1968,-1.2856,-1.2603,-1.2578,-1.2881,-1.3089,-1.3089,-1.2905,-1.3089,-1.3089,-1.2905,-1.2905,-1.2905,-1.2881,-1.2578,-1.2431,-1.2431,-1.2067,-1.1909,-1.1884,-1.166,-1.1385,-1.1175,-1.1888,-1.2027,-1.1823,-1.1823,-1.137,-1.0702,-1.1664,-1.1608,-1.1571,-1.1496,-1.1421,-1.1462,-1.1756,-1.2224,-1.2645,-1.2875,-1.3245,-1.3401,-1.3226,-1.3352,-1.3305,-1.2911,-1.2929,-1.2853,0.0,0.0,-1.2089,0.0,0.0,0.0,0.0,-1.1034,-1.091,-1.091,-1.0805,-1.0756,-1.0756,-1.069,-1.0832,-1.1176,-1.1481,-1.1758,-1.2004,0.0,-1.2586,-1.269,-1.3101,-1.3359,-1.3514,-1.3952,-1.3713,-1.3135,-1.2944,-1.2773,-1.2455,-1.1222,-1.1269,0.0,-1.0375,0.0,0.0,0.0,0.0,0.0,-0.9725,0.0,0.0,0.0,0.0,0.0,0.0,0.0,0.0,0.0,0.0,0.0,0.0,0.0,0.0,-0.5058,0.0,-0.5468,0.0,0.0,0.0,0.0,0.0,0.0,0.0,0.0,0.0,0.0,-1.1254,-1.1396,-1.2627,-1.2298,-1.2274,-1.2686,-1.2832,-1.2905,-1.2905,-1.2905,-1.2905,-1.2905,-1.2749,-1.2676,-1.2652,-1.2101,-1.1843,-1.1819,-1.1385,-1.12,-1.1183,-1.1032,-1.0753,-1.0429,-1.0668,-1.077,-1.077,-1.0922,-1.0727,-1.0377,-1.1522,-1.1653,-1.1775,-1.1701,-1.1738,-1.1719,-1.1544,-1.1314,-1.146,-1.2309,-1.2542,0.0,0.0,0.0,0.0,0.0,0.0,-1.4241,-1.3328,0.0,-1.3328,0.0,0.0,-1.1778,0.0,0.0,-1.091,-1.091,-1.0563,-1.0418,-1.0399,-1.0147,-1.0029,-1.0049,-0.9939,-1.0357,-1.1164,-1.1501,-1.2368,-1.361,-1.4076,-1.4531,-1.4831,0.0,-1.3608,-1.3494,-1.2761,0.0,0.0,-1.21,-1.1692,0.0,0.0,0.0,0.0,0.0,0.0,0.0,0.0,0.0,0.0,-0.8039,0.0,0.0,0.0,0.0,-0.5949,0.0,0.0,0.0,0.0,0.0,-0.3821,-0.402,-0.4116,0.0,0.0,0.0,0.0,0.0,0.0,0.0,0.0,0.0,0.0,-1.1299,-1.0567,-1.0638,-1.2049,-1.2101,-1.2101,-1.2126,-1.2627,-1.2905,-1.2905,-1.2905,-1.2905,-1.2881,-1.2372,-1.2126,-1.2101,-1.151,-1.1234,-1.1234,-1.1209,-1.12,-1.115,-1.0651,-1.0429,-1.0352,-0.9847,-0.964,-0.9718,-1.0241,-1.0395,-1.0326,-1.1533,-1.1515,-1.1496,-1.1384,-1.1459,-1.1556,0.0,-1.1561,0.0,0.0,-1.3041,0.0,0.0,-1.4361,-1.4396,0.0,0.0,-1.4103,-1.3774,-1.3363,0.0,0.0,0.0,-1.1881,0.0,0.0,0.0,0.0,-1.0785,-1.0612,-1.0399,-1.0312,-1.0166,-1.0028,-1.0837,-1.1338,0.0,0.0,0.0,0.0,0.0,-1.4008,-1.4134,0.0,0.0,-1.3554,-1.2771,-1.2392,0.0,-1.1688,-1.1628,-1.1728,-1.1444,-1.1267,-1.1099,-1.0845,-1.0565,0.0,0.0,0.0,-0.9603,-0.8502,0.0,0.0,0.0,0.0,0.0,0.0,0.0,0.0,0.0,-0.4665,-0.4007,-0.4169,-0.3814,-0.3591,0.0,0.0,0.0,0.0,0.0,0.0,0.0,0.0,0.0,-1.0162,-0.9188,-0.9373,0.0,-1.1158,-1.1318,-1.2076,-1.2274,-1.2529,-1.2905,-1.2905,-1.2725,-1.2382,-1.2175,-1.1893,-1.1485,-1.093,-1.0676,-1.0651,-1.031,-1.0149,-1.0131,-0.995,-0.9873,-0.9855,-0.9666,-0.9588,-0.9614,-0.9795,-0.9873,-0.9847,-1.1641,-1.1533,-1.144,-1.1241,-1.138,-1.1552,0.0,0.0,0.0,0.0,-1.3374,0.0,-1.4318,0.0,-1.4443,0.0,-1.4197,-1.4131,-1.411,-1.3661,0.0,-1.3084,-1.2865,0.0,0.0,0.0,0.0,0.0,-1.0895,-1.0587,-1.0254,-1.0137,-0.9922,-0.971,-1.0928,-1.1457,-1.1486,-1.2749,-1.3244,0.0,0.0,-1.3701,0.0,0.0,-1.4144,-1.3807,0.0,-1.2556,-1.2221,-1.1539,-1.1469,-1.1653,-1.1377,-1.1352,-1.1377,-1.1124,-1.0845,-1.0565,-1.0257,-1.0102,0.0,-0.8776,-0.8277,0.0,-0.6888,0.0,0.0,0.0,0.0,0.0,0.0,0.0,-0.4025,-0.406,-0.3568,-0.3325,0.0,-0.3921,0.0,0.0,0.0,0.0,0.0,0.0,-0.6821,-0.8932,-0.8401,-0.8853,0.0,0.0,-1.0727,-1.1469,-1.1694,-1.2042,-1.2603,-1.2397,-1.2224,-1.2101,-1.1694,-1.1293,-1.0905,-1.037,-1.0113,-1.0113,-0.9744,-0.9588,-0.9588,-0.9588,-0.9588,-0.9588,-0.9588,-0.9588,-0.9588,-0.9588,-0.9588,-0.9629,-1.1852,-1.1737,-1.1647,0.0,-1.1499,0.0,0.0,0.0,-1.2808,0.0,-1.3574,-1.3916,-1.4432,-1.4604,-1.4535,-1.4071,-1.4222,-1.4333,-1.4266,-1.4223,0.0,0.0,-1.38,-1.3338,-1.2827,0.0,0.0,0.0,0.0,-1.0337,-0.9989,-0.9655,-0.9328,-0.905,-1.0174,-1.0687,-1.0804,-1.1986,-1.248,-1.2546,-1.3315,-1.3637,-1.3684,-1.411,0.0,-1.4191,-1.3396,-1.3069,-1.286,-1.1713,-1.131,-1.1301,-1.1301,-1.1301,-1.1301,-1.1301,-1.1124,-1.0871,-1.059,-1.029,-0.9795,-0.8883,0.0,0.0,0.0,0.0,-0.7207,0.0,0.0,0.0,0.0,0.0,-0.3876,-0.3677,-0.341,-0.3347,-0.3656,0.0,0.0,0.0,0.0,0.0,0.0,-0.5397,-0.6454,-0.7687,-0.8179,-0.8985,0.0,0.0,0.0,-1.0403,-1.0905,-1.146,-1.2051,-1.1485,-1.146,-1.2002,-1.0913,-1.0377,-1.0344,-0.9821,-0.9588,-0.9588,-0.9588,-0.9588,-0.9588,-0.9588,-0.9588,-0.9588,-0.9588,-0.9621,-0.9636,-0.9621,-0.9603,-0.968,-1.2244,-1.2381,-1.2459,0.0,-1.191,-1.1881,0.0,0.0,0.0,0.0,-1.4247,-1.4373,-1.539,-1.5025,-1.4651,-1.4535,-1.3988,0.0,0.0,0.0,0.0,-1.2523,-1.2939,-1.2676,-1.1665,-1.201,0.0,-1.1233,0.0,-1.0354,-1.0063,-0.9683,-0.9328,-0.903,-0.9891,-1.0581,-1.1194,-1.1807,-1.2051,-1.2088,-1.2547,-1.2722,0.0,0.0,-1.4044,-1.4174,-1.3322,-1.266,-1.2158,-1.1792,-1.1507,-1.1301,-1.1301,-1.1301,-1.1301,-1.1301,-1.1242,-1.115,-1.0871,-1.059,-1.0182,-0.939,-0.891,-0.8367,0.0,0.0,0.0,0.0,0.0,0.0,0.0,0.0,0.0,-0.4224,-0.3847,-0.3612,-0.3697,0.0,0.0,-0.439,0.0,0.0,0.0,-0.5103,-0.5914,-0.754,-0.7524,0.0,0.0,0.0,0.0,-1.037,-1.0523,-1.088,-1.1435,-1.1284,-1.1082,-1.0837,-1.0549,-1.019,-0.9795,-0.9666,-0.9588,-0.9588,-0.9588,-0.9588,-0.9588,-0.9588,-0.9588,-0.9588,-0.9588,-0.976,-0.9943,-0.9702,-0.9768,-0.9987,-1.2789,-1.2941,-1.3044,-1.3001,0.0,0.0,-1.2929,-1.3481,0.0,-1.4558,-1.4576,0.0,-1.5193,-1.4584,-1.4035,-1.3802,-1.3399,0.0,-1.3105,0.0,0.0,-1.2683,-1.2922,-1.2723,-1.1998,-1.2121,0.0,-1.1365,0.0,-1.0395,-1.0092,-0.9697,-0.9328,-0.903,-0.9781,-1.034,-1.0807,-1.1381,-1.1725,-1.1876,-1.2052,0.0,0.0,-1.3199,-1.3432,-1.344,-1.3114,-1.2752,-1.2338,-1.1757,-1.1447,-1.1301,-1.1301,-1.1301,-1.1301,-1.1301,-1.1301,-1.1251,-1.0972,-1.0794,-1.0514,-0.9836,-0.9438,-0.9021,-0.8262,-0.7958,-0.7699,0.0,0.0,0.0,0.0,0.0,0.0,-0.4598,-0.4085,-0.3793,0.0,0.0,0.0,0.0,-0.4717,0.0,0.0,0.0,-0.5954,-0.6545,0.0,0.0,0.0,0.0,0.0,-0.9855,-0.9992,-1.0318,-1.0854,-1.0617,-1.0464,-1.0403,-1.0164,-0.9899,-0.9588,-0.9588,-0.9588,-0.9588,-0.9588,-0.9588,-0.9588,-0.9588,-0.9588,-0.9588,-0.9588,-0.9899,-1.0272,-0.9943,-1.0031,-1.0331,-1.3395,-1.3434,0.0,0.0,0.0,0.0,0.0,-1.4266,0.0,-1.4358,0.0,-1.4886,-1.4584,-1.3933,-1.3298,-1.2769,0.0,-1.2691,-1.2588,-1.277,-1.3032,-1.3379,-1.3133,-1.2959,-1.286,-1.2275,-1.1847,0.0,0.0,-1.0361,-1.0028,-0.9616,-0.9288,-0.903,-0.973,-1.0098,0.0,-1.1079,-1.1584,-1.1797,-1.1926,-1.2389,-1.3009,-1.306,-1.2809,-1.2528,-1.28,-1.2893,-1.2708,-1.1696,-1.1344,-1.1301,-1.1301,-1.1301,-1.1301,-1.1301,-1.1301,-1.1251,-1.1023,-1.0922,-1.0769,-1.0257,-1.0051,-0.9844,-0.9192,-0.8745,-0.8342,-0.7883,-0.7456,0.0,0.0,0.0,0.0,-0.4959,0.0,0.0,0.0,0.0,0.0,0.0,0.0,0.0,0.0,0.0,0.0,0.0,0.0,0.0,0.0,0.0,0.0,0.0,-0.9482,0.0,-1.0293,0.0,-0.9821,-1.0293,-0.9821,-0.9588,-0.9588,-0.9588,-0.9588,-0.9588,-0.9588,-0.9588,-0.9588,-0.9588,-0.9636,-0.968,-0.9724,-1.0111,-1.0616,-1.0331,-1.0433,-1.0777,-1.375,-1.3816,0.0,0.0,0.0,-1.4092,-1.4467,-1.4682,-1.5035,-1.5663,-1.5034,-1.475,-1.5326,-1.464,-1.394,-1.3466,-1.2833,0.0,0.0,0.0,0.0,-1.172,-1.2233,-1.2377,-1.2015,-1.221,-1.2005,0.0,0.0,-1.0016,-0.9684,-0.9278,-0.9056,-0.9021,-0.9474,-1.0021,-1.067,-1.1747,0.0,-1.1874,-1.2526,-1.286,-1.3043,-1.3305,-1.3194,-1.2872,-1.2586,-1.2127,-1.1618,-1.1678,-1.1533,-1.1301,-1.1301,-1.1301,-1.1301,-1.1301,-1.1301,-1.1301,-1.1251,-1.1074,-1.0871,-1.0769,-1.036,-0.9895,-0.9446,-0.9106,-0.8771,-0.8368,-0.791,-0.7541,-0.7318,0.0,0.0,0.0,0.0,0.0,0.0,0.0,0.0,0.0,0.0,0.0,0.0,0.0,0.0,0.0,0.0,0.0,0.0,0.0,0.0,0.0,0.0,0.0,0.0,0.0,0.0,-0.9744,-0.964,-0.9588,-0.9588,-0.9588,-0.9588,-0.9588,-0.9588,-0.9588,-0.9588,-0.9588,-0.9775,-1.0046,-1.0309,-1.0682,-1.1012,-1.0953,-1.1144,-1.1386,-1.4444,0.0,0.0,0.0,0.0,0.0,0.0,-1.4934,0.0,-1.5515,-1.5303,-1.502,-1.4899,-1.4162,-1.3547,-1.3221,-1.2779,-1.2325,-1.1877,-1.1671,-1.1567,-1.1567,-1.1722,0.0,-1.2115,-1.2087,-1.1922,-1.1567,0.0,0.0,-0.9841,-0.9269,-0.8996,-0.903,-0.9816,-1.0576,0.0,0.0,0.0,-1.2449,-1.2612,-1.2911,-1.3254,-1.3237,-1.3125,-1.2983,-1.2794,-1.2365,-1.185,-1.1619,-1.1422,-1.1301,-1.1301,-1.1301,-1.1336,-1.1507,-1.143,-1.1344,-1.1516,-1.1345,-1.1074,-1.0922,-1.0693,-1.0334,-0.9836,-0.9446,-0.9106,-0.8771,-0.8368,-0.7996,-0.7794,-0.7317,0.0,0.0,0.0,0.0,0.0,0.0,0.0,0.0,0.0,0.0,0.0,0.0,0.0,0.0,0.0,0.0,0.0,0.0,0.0,0.0,0.0,0.0,0.0,0.0,0.0,-0.9588,-0.9588,-0.9588,-0.9588,-0.9588,-0.9588,-0.9588,-0.9588,-0.9588,-0.9629,-0.9797,-1.0155,-1.063,-1.0594,-1.0924,-1.1335,-1.1166,-1.1313,-1.1569,0.0,-1.497,0.0,0.0,-1.4854,0.0,-1.5403,-1.5141,-1.4969,-1.5135,-1.5268,-1.5056,-1.4329,-1.3719,-1.3268,-1.301,-1.2737,-1.2399,-1.1893,-1.1764,-1.1695,-1.1695,-1.1507,-1.1704,-1.2381,-1.2079,-1.1934,0.0,0.0,0.0,0.0,-0.9431,0.0,0.0,0.0,0.0,0.0,0.0,-1.2726,-1.2992,-1.2723,-1.298,-1.3476,-1.3194,-1.3048,-1.3009,-1.3009,-1.2751,-1.2295,-1.1739,-1.1533,-1.1533,-1.1533,-1.1533,-1.1593,-1.1849,-1.1687,-1.1456,-1.1738,-1.1567,-1.1251,-1.1049,-1.0947,-1.0768,-1.0213,-0.9803,-0.943,-0.9119,-0.8789,-0.8446,-0.8096,-0.7942,0.0,0.0,0.0,0.0,0.0,0.0,0.0,0.0,0.0,0.0,0.0,0.0,0.0,0.0,0.0,0.0,0.0,0.0,0.0,0.0,0.0,-0.9458,-0.9458,0.0,-0.9588,0.0,-0.9588,-0.9588,-0.9588,-0.9588,-0.9588,-0.9588,-0.9588,-0.9624,-0.9746,-1.0148,-1.0609,-1.1085,-1.0894,-1.1136,-1.1562,-1.1305,-1.1371,-1.1599,0.0,0.0,0.0,0.0,0.0,0.0,0.0,-1.5439,-1.5351,-1.5378,-1.4665,-1.4224,-1.4434,-1.4373,-1.4101,-1.3648,-1.2979,-1.2453,-1.2096,-1.1627,-1.1353,-1.1353,-1.1601,-1.1951,-1.2381,-1.2355,-1.2338,0.0,0.0,0.0,0.0,0.0,0.0,0.0,0.0,0.0,0.0,-1.262,-1.2975,-1.3035,-1.3288,-1.3442,-1.3502,-1.3468,-1.3254,-1.3009,-1.3009,-1.2751,-1.2381,-1.2312,-1.2314,-1.2314,-1.2314,-1.2314,-1.2295,-1.2329,-1.2054,-1.1772,-1.178,-1.1567,-1.1293,-1.1276,-1.1074,-1.0799,-1.0425,-1.0159,-0.9823,-0.9365,-0.9183,-0.8864,-0.7993,-0.8005,-0.8128,0.0,0.0,0.0,0.0,0.0,0.0,-0.7214,0.0,0.0,0.0,0.0,0.0,0.0,0.0,0.0,0.0,0.0,0.0,-0.8468,0.0,-0.9061,-0.9061,-0.9413,0.0,-0.9588,-0.9588,-0.9588,-0.9588,-0.9588,-0.9588,-0.9588,-0.9588,-0.9782,-1.0104,-1.0755,-1.1048,-1.1129,-1.1401,-1.154,-1.1591,-1.1562,-1.1569,-1.1635,0.0,0.0,0.0,0.0,0.0,0.0,0.0,-1.4886,-1.4852,-1.4852,-1.4859,-1.478,-1.4648,-1.4524,-1.4346,-1.4083,-1.3696,-1.3266,-1.2785,-1.2275,-1.1971,-1.1971,-1.1849,-1.1985,-1.2381,-1.2648,-1.2657,0.0,0.0,0.0,0.0,0.0,0.0,0.0,0.0,-1.2158,-1.256,-1.3074,-1.3297,-1.3314,-1.3451,-1.3511,-1.3511,-1.3511,-1.3425,-1.3297,-1.3297,-1.3194,-1.3057,-1.3057,-1.2766,-1.2389,-1.2389,-1.2389,-1.246,-1.27,-1.2475,-1.2175,-1.2175,-1.1901,-1.1559,-1.1353,-1.1226,-1.1115,-1.1006,-1.0929,-1.0666,-1.0037,-0.9387,-0.8848,-0.8461,-0.8385,-0.8337,0.0,0.0,0.0,0.0,0.0,0.0,0.0,0.0,-0.7203,0.0,0.0,0.0,0.0,0.0,0.0,0.0,0.0,0.0,-0.7985,0.0,-0.9008,-0.9008,-0.9387,-0.9588,-0.9588,-0.9588,-0.9716,-0.9907,-0.9907,-1.0009,-1.0199,-1.0199,-1.0382,-1.0733,-1.0997,-1.1217,-1.1408,-1.154,-1.1591,-1.1591,-1.1591,-1.1716,-1.1796,-1.4742,0.0,-1.4562,0.0,-1.4268,-1.4167,-1.4469,-1.4515,-1.4515,-1.4515,-1.4872,-1.4974,-1.4591,-1.4434,-1.4297,-1.4207,-1.3942,-1.3608,-1.3229,-1.2696,-1.2389,-1.2389,-1.2141,0.0,-1.256,-1.2834,-1.2923,-1.2723,-1.2327,0.0,0.0,0.0,0.0,0.0,-1.2398,-1.2774,-1.3151,-1.3399,-1.3511,-1.3511,-1.3511,-1.3511,-1.3511,-1.3511,-1.3511,-1.3511,-1.3511,-1.3511,-1.3511,-1.3511,-1.316,-1.2723,-1.2723,-1.2723,-1.2774,-1.3057,-1.2897,-1.2588,-1.2588,-1.2286,-1.1892,-1.1533,-1.155,-1.1592,-1.1426,-1.1491,-1.1398,-1.0746,-0.9893,-0.9265,-0.9116,-0.884,-0.855,-0.8301,0.0,0.0,0.0,0.0,0.0,0.0,-0.7634,-0.749,-0.7219,0.0,0.0,0.0,0.0,0.0,0.0,0.0,0.0,0.0,0.0,0.0,0.0,-0.9387,-0.9588,-0.9614,-0.9709,-0.9877,-1.0104,-1.0199,-1.0368,-1.0623,-1.0689,-1.0894,-1.1114,-1.121,-1.1386,-1.1591,-1.1591,-1.1591,-1.1606,-1.1701,-1.1742,-1.1717,-1.4515,-1.4506,-1.4506,-1.4515,-1.4506,-1.4476,-1.4515,-1.4515,-1.4515,-1.4515,-1.4515,-1.4437,-1.424,-1.41,-1.401,-1.401,-1.3518,-1.3212,-1.3212,-1.2696,-1.2389,0.0,0.0,-1.2569,-1.2992,-1.3009,-1.3151,-1.3494,0.0,0.0,-1.2372,0.0,-1.2003,-1.2398,-1.28,-1.3168,-1.3502,-1.3511,-1.3511,-1.3511,-1.3511,-1.3511,-1.3511,-1.3511,-1.3511,-1.3511,-1.3511,-1.3511,-1.3511,-1.3511,-1.3502,-1.3494,-1.3494,-1.3494,-1.3494,-1.3502,-1.3245,-1.3,-1.3,-1.2717,-1.2295,-1.19,-1.2079,-1.2206,-1.1555,-1.1704,-1.1874,-1.1382,-1.0868,-1.0325,-0.9862,-0.9313,-0.8779,-0.8463,0.0,0.0,0.0,0.0,0.0,0.0,-0.7241,-0.7187,-0.7373,0.0,0.0,0.0,0.0,0.0,0.0,0.0,0.0,-0.7702,-0.815,0.0,-0.9008,-0.9387,-0.9588,-0.9595,-0.9943,-1.0097,-1.0111,-1.0433,-1.0616,-1.063,-1.096,-1.11,-1.1129,-1.1452,-1.1591,-1.1591,-1.1591,-1.1591,-1.1635,-1.1911,-1.167,-1.126,-1.4561,-1.4515,-1.4515,-1.4515,-1.4515,-1.4515,-1.4515,-1.4515,-1.4515,-1.4515,-1.4426,-1.4267,-1.4019,-1.4109,-1.4139,0.0,-1.3754,-1.3625,0.0,-1.3113,-1.2894,-1.3143,-1.292,-1.288,-1.3,-1.3211,-1.328,-1.3151,0.0,0.0,0.0,-1.2672,-1.2809,-1.316,-1.3288,-1.3399,-1.3511,-1.3511,-1.3511,-1.3511,-1.3511,-1.3511,-1.3511,-1.3511,-1.3511,-1.3511,-1.3511,-1.3511,-1.3511,-1.3511,-1.3511,-1.3511,-1.3511,-1.3511,-1.3511,-1.3511,-1.3425,-1.3288,-1.3048,-1.2914,-1.2697,-1.2312,-1.2303,-1.243,-1.2495,-1.2351,-1.2166,-1.1996,-1.1358,-1.0798,-1.0647,-1.0102,-0.9581,-0.9376,0.0,0.0,0.0,0.0,0.0,0.0,-0.7353,-0.7337,0.0,-0.723,0.0,0.0,0.0,0.0,0.0,0.0,0.0,0.0,-0.7724,0.0,-0.8395,-0.9112,-0.9542,-0.9743,-0.9991,-1.0331,-1.0777,-1.0739,-1.0727,-1.0734,-1.0447,-1.0356,-1.0363,-1.0463,-1.0496,-1.0496,-1.0496,-1.0496,-1.0573,-1.1037,-1.1002,-1.0791,-1.4753,-1.4616,-1.4515,-1.4515,-1.4515,-1.4515,-1.4515,-1.4515,-1.4515,-1.4515,-1.4426,-1.4297,-1.4058,-1.4207,0.0,-1.3851,-1.3731,-1.37,-1.37,-1.3365,-1.328,-1.3502,-1.3297,-1.3177,-1.3177,0.0,0.0,-1.3177,-1.3177,-1.3177,-1.3177,-1.3177,-1.3297,-1.3511,-1.3511,-1.3511,-1.3511,-1.3511,-1.3511,-1.3511,-1.3511,-1.3511,-1.3511,-1.3511,-1.3511,-1.3511,-1.3511,-1.3511,-1.3511,-1.3511,-1.3511,-1.3511,-1.3511,-1.3511,-1.3511,-1.3511,-1.3511,-1.3459,-1.3237,-1.3177,-1.3091,-1.2706,-1.2714,-1.2877,-1.3125,-1.295,-1.2765,-1.2765,-1.1888,-1.1205,-1.1454,-1.0672,-0.9952,-0.9794,-0.9071,-0.8381,-0.7823,0.0,0.0,0.0,0.0,0.0,0.0,-0.7176,0.0,0.0,0.0,0.0,0.0,0.0,0.0,-0.7025,-0.7913,0.0,-0.858,-0.9416,-0.9876,-0.9925,-1.0307,-1.0777,-1.1291,-1.0937,-1.0807,-1.0776,-1.0212,-0.9983,-0.9983,-0.9983,-0.9983,-0.9983,-0.9983,-0.9983,-1.0066,-1.0533,-1.0458,-1.0209,-1.4992,-1.4781,0.0,0.0,-1.4515,0.0,-1.4515,-1.4515,-1.4515,-1.4515,-1.4515,-1.4455,-1.4297,-1.4297,-1.4079,-1.3571,0.0,0.0,0.0,-1.3511,-1.3511,-1.3511,-1.3511,-1.3511,-1.3511,-1.3511,-1.3511,-1.3511,-1.3511,-1.3511,-1.3511,-1.3511,-1.3511,-1.3511,-1.3511,-1.3511,-1.3511,-1.3511,-1.3511,-1.3511,-1.3511,-1.3511,-1.3511,-1.3511,-1.3511,-1.3511,-1.3511,-1.3511,-1.3511,-1.3511,-1.3511,-1.3511,-1.3511,-1.3511,-1.3511,-1.3511,-1.3511,-1.3511,-1.3511,-1.3511,-1.3434,-1.31,-1.3262,-1.3511,-1.3511,-1.3511,-1.348,-1.3442,-1.2328,-1.1547,-1.2143,-1.1017,-0.997,-0.9776,-0.9477,-0.8912,-0.7898,0.0,0.0,0.0,0.0,0.0,0.0,-0.716,-0.716,0.0,0.0,0.0,0.0,0.0,-0.7067,-0.8031,-0.854,-0.8985,-0.9375,-1.0158,-1.0442,-1.0177,-1.0836,-1.1298,-1.1591,-1.1028,-1.0776,-1.0706,-1.0186,-0.9926,-0.9894,-0.9894,-0.9894,-0.9894,-0.9894,-0.9894,-0.9926,-1.0281,-1.0046,-0.9554,0.0,0.0,-1.4864,-1.4561,-1.4515,-1.4515,-1.4515,-1.4515,-1.4515,-1.4515,-1.4515,-1.4455,-1.4297,-1.4169,-1.398,-1.3739,-1.3731,-1.367,-1.3511,-1.3511,-1.3511,-1.3511,-1.3511,-1.3511,-1.3511,-1.3511,-1.3511,-1.3511,-1.3511,-1.3511,-1.3511,-1.3511,-1.3511,-1.3511,-1.3511,-1.3511,-1.3511,-1.3511,-1.3511,-1.3511,-1.3511,-1.3511,-1.3511,-1.3511,-1.3511,-1.3511,-1.3511,-1.3511,-1.3511,-1.3511,-1.3511,-1.3511,-1.3511,-1.3511,-1.3511,-1.3511,-1.3511,-1.3511,-1.3511,-1.3511,-1.3485,-1.3399,-1.3442,-1.3511,-1.3511,-1.3511,-1.3351,-1.2848,-1.2451,-1.2104,-1.1764,-1.0968,-1.0325,-1.019,-0.9519,-0.8871,-0.8516,-0.8139,0.0,0.0,-0.7715,-0.7628,-0.7628,-0.7628,-0.7628,0.0,0.0,0.0,0.0,0.0,-0.7062,-0.7548,-0.8416,-0.8921,-0.9005,-0.9907,-1.0532,-1.088,-1.1283,-1.1518,-1.1591,-1.1028,-1.0579,-1.0148,-0.9678,-0.9242,-0.8861,-0.8861,-0.8861,-0.8861,-0.8861,-0.8861,-0.8899,-0.9403,-0.9232,-0.888,-1.479,-1.4808,-1.4763,-1.4552,-1.4515,-1.4515,-1.4515,-1.4515,-1.4515,-1.4515,-1.4515,-1.4476,-1.4396,-1.4297,-1.4139,-1.392,-1.3761,-1.361,-1.3511,-1.3511,-1.3511,-1.3511,-1.3511,-1.3511,-1.3511,-1.3511,-1.3511,-1.3511,-1.3511,-1.3511,-1.3511,-1.3511,-1.3511,-1.3511,-1.3511,-1.3417,-1.3271,-1.3271,-1.3271,-1.3233,-1.2927,-1.3087,-1.3472,-1.3169,-1.323,-1.3511,-1.3511,-1.3511,-1.3511,-1.3511,-1.3511,-1.3511,-1.3511,-1.329,-1.31,-1.342,-1.3511,-1.3511,-1.3511,-1.3511,-1.3511,-1.3511,-1.3511,-1.3511,-1.3511,-1.3511,-1.3411,-1.3039,-1.2473,-1.2043,-1.1981,-1.1156,-1.0485,-1.0408,-0.9854,-0.9279,-0.8867,-0.8434,0.0,-0.8091,-0.7919,-0.7801,-0.7801,-0.7801,-0.7801,-0.7801,0.0,0.0,-0.7785,-0.7597,-0.7581,-0.7763,-0.8503,-0.8892,-0.8855,-0.9597,-1.0174,-1.0609,-1.1037,-1.1115,-1.085,-1.0566,-1.0155,-0.9646,-0.9145,-0.877,-0.8517,-0.8517,-0.8517,-0.8517,-0.8517,-0.8517,-0.8549,-0.8829,-0.8738,-0.8576,-1.5139,-1.4919,-1.4671,-1.4616,-1.4552,-1.4515,-1.4515,-1.4515,-1.4515,-1.4515,-1.4515,-1.4515,-1.4515,-1.4515,-1.4387,-1.407,-1.3731,-1.3541,-1.3511,-1.3511,-1.3511,-1.3511,-1.3511,-1.3511,-1.3511,-1.3511,-1.3511,-1.3511,-1.3571,-1.3571,-1.3511,-1.3571,-1.3571,-1.3511,-1.3511,-1.3314,-1.3009,-1.3009,-1.2975,-1.2857,-1.2298,-1.2558,-1.3258,-1.2668,-1.2835,-1.3434,-1.3364,-1.3411,-1.3511,-1.3511,-1.342,-1.3351,-1.3351,-1.2948,-1.2604,-1.307,-1.326,-1.3351,-1.3351,-1.329,-1.323,-1.3321,-1.3351,-1.3351,-1.3351,-1.342,-1.3472,-1.3381,-1.2443,-1.1788,-1.2258,-1.1344,-1.0485,-1.0485,-1.0234,-0.9764,-0.9074,0.0,-0.8394,-0.8263,-0.8053,-0.7938,-0.7908,-0.7908,-0.7908,-0.7908,-0.7876,0.0,0.0,-0.809,-0.8229,-0.823,-0.8703,-0.8976,-0.897,-0.9439,-0.9774,-1.0021,-1.0471,-1.0446,-0.9983,-0.9983,-0.9741,-0.9274,-0.8829,-0.8576,-0.8517,-0.8517,-0.8517,-0.8517,-0.8517,-0.8517,-0.8517,-0.8517,-0.8517,-0.8517,-1.5652,-1.5551,-1.5404,-1.5065,-1.4735,-1.4515,-1.4515,-1.4515,-1.4515,-1.4515,-1.4515,-1.4515,-1.4515,-1.4515,-1.4417,-1.4267,-1.3959,-1.367,-1.3511,-1.3511,-1.3511,-1.3511,-1.3511,-1.3511,-1.3511,-1.3511,-1.3511,-1.3511,-1.3845,-1.3836,-1.3511,-1.3853,-1.3827,-1.3511,-1.3511,-1.3314,-1.3009,-1.3009,-1.2783,-1.2483,-1.2391,-1.2425,-1.2538,-1.2185,-1.2483,-1.3041,-1.275,-1.3009,-1.3511,-1.3511,-1.313,-1.2665,-1.2665,-1.2573,-1.242,-1.195,-1.2197,-1.2665,-1.2665,-1.2228,-1.195,-1.2504,-1.2665,-1.2665,-1.2665,-1.31,-1.3351,-1.2757,-1.2473,-1.2197,-1.1726,-1.1031,-1.0485,-1.0485,-0.9977,-0.9545,-0.9418,0.0,-0.9061,-0.8871,-0.8717,-0.8595,-0.8404,-0.8404,-0.8404,-0.8404,-0.8241,-0.8219,-0.8393,-0.8274,-0.8274,-0.8452,-0.896,-0.9432,-0.98,-0.9895,-0.9945,-0.9983,-1.0085,-1.0085,-0.9983,-0.9983,-0.9741,-0.9306,-0.921,-0.8926,-0.8517,-0.8517,-0.8517,-0.8517,-0.8517,-0.8517,-0.8517,-0.8517,-0.8517,-0.8517,-1.5093,-1.5056,-1.5065,-1.5093,-1.4772,-1.4579,-1.4799,-1.4653,-1.4515,-1.4515,-1.4515,-1.4515,-1.4515,-1.4515,-1.4485,-1.4417,-1.4267,-1.4049,-1.3739,-1.358,-1.3511,-1.3511,-1.3511,-1.3511,-1.3511,-1.3511,-1.3511,-1.3511,-1.3691,-1.3682,-1.3511,-1.3691,-1.3682,-1.348,-1.313,-1.286,-1.2663,-1.2285,-1.2125,-1.2044,-1.1674,-1.1997,-1.2638,-1.1772,-1.1894,-1.2447,-1.1931,-1.1926,-1.2264,-1.263,-1.2633,-1.2512,-1.2512,-1.2512,-1.2443,-1.2135,-1.2012,-1.195,-1.195,-1.1734,-1.1571,-1.1888,-1.195,-1.195,-1.195,-1.2197,-1.232,-1.2043,-1.1679,-1.1344,-1.1031,-1.0415,-0.9958,-0.9958,-0.9702,0.0,0.0,-0.9376,-0.9242,-0.9017,-0.8894,-0.8705,-0.8511,-0.8517,-0.8517,-0.8517,-0.8409,-0.8398,-0.8511,-0.8409,-0.8398,-0.8511,-0.8738,-0.899,-0.9204,-0.9204,-0.9204,-0.9204,-0.9486,-0.946,-0.9204,-0.9486,-0.9332,-0.8861,-0.8861,-0.8738,-0.8517,-0.8517,-0.8517,-0.8517,-0.8517,-0.8517,-0.8528,-0.8657,-0.8705,-0.8721,-1.4781,-1.4708,-1.4744,-1.5047,-1.4772,-1.4616,-1.4919,-1.4708,-1.4515,-1.4515,-1.4515,-1.4485,-1.4455,-1.4485,-1.4485,-1.4455,-1.4446,-1.4297,-1.3937,-1.37,-1.3541,-1.3511,-1.3511,-1.3571,-1.3691,-1.3571,-1.3596,-1.3785,-1.3785,-1.3785,-1.3785,-1.3862,-1.3862,-1.3745,-1.2989,-1.2568,-1.2382,-1.1772,-1.1651,-1.1827,-1.1464,-1.1993,-1.2855,-1.1687,-1.1544,-1.1913,-1.1233,-1.099,-1.1093,-1.167,-1.1894,-1.1943,-1.2027,-1.205,-1.205,-1.205,-1.1764,-1.1485,-1.1305,-1.1149,-1.108,-1.1243,-1.1274,-1.1274,-1.1274,-1.1392,-1.1516,-1.1516,-1.1087,-1.0724,-1.0724,-1.0168,-0.9696,-0.9696,0.0,0.0,0.0,-0.9344,-0.9242,-0.9017,-0.8958,-0.8835,-0.8641,-0.8576,-0.8582,-0.8582,-0.8517,-0.8517,-0.8517,-0.8517,-0.8517,-0.8517,-0.8517,-0.8517,-0.8517,-0.8517,-0.8517,-0.8517,-0.8926,-0.8894,-0.8511,-0.8926,-0.8894,-0.8517,-0.8517,-0.8517,-0.8517,-0.8517,-0.8517,-0.8517,-0.8517,-0.8549,-0.8619,-0.883,-0.8933,-0.9003,-1.5606,-1.5313,-1.5065,-1.5093,-1.4772,-1.4524,-1.4552,-1.4533,-1.4515,-1.4515,-1.4515,-1.4446,-1.4336,-1.4426,-1.4455,-1.4336,-1.4297,-1.4207,-1.401,-1.386,-1.37,-1.3511,-1.3511,-1.3733,-1.4221,-1.3759,-1.387,-1.4598,-1.4598,-1.4598,-1.4607,-1.4932,-1.4915,-1.4581,-1.3525,-1.2861,-1.2477,-1.2107,-1.1964,-1.2028,-1.2597,-1.29,-1.2913,-1.2196,-1.1821,-1.1543,-1.0881,-1.0674,-1.076,-1.1064,-1.0786,-1.0319,-1.058,-1.0636,-1.0636,-1.0636,-1.1062,-1.1361,-1.073,-1.0104,-0.9792,-1.0421,-1.0573,-1.0573,-1.0573,-1.1062,-1.1516,-1.1516,-1.1454,-1.1423,-1.1423,-1.0773,-1.0243,-1.0243,0.0,0.0,-0.9049,-0.9177,-0.9242,-0.9017,-0.9145,-0.9177,-0.8985,-0.8861,-0.877,-0.877,-0.8608,-0.8517,-0.8517,-0.8517,-0.8517,-0.8517,-0.8517,-0.8517,-0.8517,-0.8517,-0.8517,-0.8517,-0.8544,-0.8549,-0.8517,-0.8544,-0.8549,-0.8517,-0.8517,-0.8517,-0.8517,-0.8517,-0.8517,-0.8517,-0.8517,-0.8646,-0.8873,-0.889,-0.903,-0.9179,-1.5322,-1.5001,-1.4808,-1.5056,-1.4974,-1.4964,-1.5203,-1.5038,-1.4873,-1.4873,-1.4662,-1.4485,-1.4426,-1.4396,-1.4366,-1.4297,-1.4207,-1.4049,-1.389,-1.383,-1.3813,-1.3862,-1.411,-1.4333,-1.453,-1.4341,-1.4384,-1.4684,-1.4684,-1.4684,-1.4692,-1.4821,-1.4684,-1.4292,-1.3721,-1.31,-1.2405,-1.2088,-1.1756,-1.1546,-1.1783,-1.2035,-1.2219,-1.2032,-1.1925,-1.179,-1.0948,-1.0569,-1.048,-1.0673,-1.0455,-1.02,-1.081,-1.1055,-1.1031,-1.0604,-1.0667,-1.0724,-1.0047,-1.0288,-1.0685,-1.0541,-1.0485,-1.039,-0.9983,-1.0072,-1.0256,-1.0256,-1.0256,-1.0256,-1.0256,-0.9932,-0.9678,-0.9678,0.0,-0.8985,-0.8985,-0.9081,-0.9049,-0.8894,-0.8926,-0.8894,-0.8705,-0.8641,-0.8608,-0.8608,-0.8549,-0.8517,-0.8517,-0.8517,-0.8517,-0.8517,-0.8517,-0.8517,-0.8517,-0.8517,-0.8517,-0.8517,-0.8517,-0.8517,-0.8517,-0.8517,-0.8517,-0.8517,-0.8517,-0.8517,-0.8528,-0.8673,-0.8646,-0.8544,-0.8829,-0.891,-0.8933,-0.9235,-0.9398,-0.9459,-1.5074,-1.4781,-1.4598,-1.4873,-1.5019,-1.5194,-1.546,-1.5276,-1.5102,-1.5102,-1.4753,-1.4485,-1.4455,-1.4387,-1.4327,-1.4207,-1.4139,-1.4019,-1.3799,-1.3852,-1.3891,-1.3905,-1.4324,-1.4598,-1.4684,-1.4631,-1.4718,-1.5035,-1.4672,-1.4681,-1.5035,-1.4782,-1.4647,-1.46,-1.4097,-1.3514,-1.2932,-1.2345,-1.1971,-1.1797,-1.1739,-1.1894,-1.214,-1.2072,-1.1905,-1.1621,-1.0864,-1.0383,-1.0078,-1.0238,-1.0199,-1.0148,-1.0792,-1.1135,-1.1213,-1.0663,-1.0636,-1.0724,-1.0256,-1.0811,-1.1298,-1.0421,-1.0174,-1.0079,-0.9612,-0.9516,-0.9516,-0.9516,-0.9516,-0.9516,-0.9516,-0.9447,-0.9406,-0.9318,-0.9182,-0.9043,-0.8937,-0.8926,-0.8894,-0.8802,-0.8835,-0.8802,-0.8673,-0.8608,-0.8582,-0.8582,-0.8549,-0.8517,-0.8517,-0.8441,-0.8436,-0.8511,-0.8441,-0.8436,-0.8517,-0.8517,-0.8517,-0.8517,-0.8517,-0.8517,-0.8517,-0.8517,-0.8517,-0.8517,-0.8517,-0.8517,-0.8533,-0.8803,-0.8803,-0.8662,-0.905,-0.9157,-0.916,-0.9495,-0.9626,-0.9712,-1.5029,-1.479,-1.4524,-1.4515,-1.4845,-1.5102,-1.5102,-1.5102,-1.5102,-1.5102,-1.4753,-1.4455,-1.4327,-1.4426,-1.4357,-1.404,-1.4169,-1.4148,-1.383,-1.3972,-1.3913,-1.3528,-1.4016,-1.4418,-1.4675,-1.4427,-1.4786,-1.5788,-1.4667,-1.4684,-1.5761,-1.4974,-1.5018,-1.5744,-1.4678,-1.4196,-1.4138,-1.2969,-1.2721,-1.3099,-1.2924,-1.2896,-1.286,-1.2458,-1.1706,-1.0883,-1.0527,-1.0015,-0.9564,-0.9823,-0.9907,-0.9949,-1.0208,-1.0581,-1.083,-1.0571,-1.0968,-1.1485,-1.1485,-1.1485,-1.118,-0.9824,-0.9516,-0.9516,-0.9516,-0.9516,-0.9516,-0.9516,-0.9516,-0.9516,-0.9522,-0.9607,-0.9624,-0.9353,-0.9234,-0.9114,-0.8841,-0.8808,-0.8808,-0.8808,-0.8931,-0.899,-0.899,-0.8867,-0.8802,-0.8802,-0.8608,-0.8517,-0.8517,-0.8317,-0.8295,-0.8506,-0.8311,-0.8301,-0.8511,-0.8517,-0.8517,-0.8517,-0.8517,-0.8517,-0.8517,-0.8517,-0.8517,-0.8517,-0.8517,-0.8517,-0.8538,-0.8809,-0.89,-0.8922,-0.912,-0.9362,-0.9614,-0.9619,-0.9723,-0.9884,-1.5936,-1.5625,-1.5249,-1.4974,-1.5249,-1.5423,-1.5139,-1.5102,-1.5102,-1.5102,-1.4753,-1.4485,-1.4455,-1.4387,-1.4267,-1.401,-1.398,-1.386,-1.3601,-1.3652,-1.3631,-1.3511,-1.4427,-1.4863,-1.4692,-1.4855,-1.4966,-1.5018,-1.4908,-1.4786,-1.4624,-1.4604,-1.4304,-1.3749,-1.3729,-1.3547,-1.3239,-1.2621,-1.2446,-1.2492,-1.1872,-1.1653,-1.1683,-1.2136,-1.2128,-1.1835,-1.1577,-1.1234,-1.086,-1.0567,-1.0208,-0.9919,-0.9997,-1.0229,-1.0387,-0.9928,-1.0084,-1.0392,-1.0392,-1.05,-1.059,-1.0271,-1.0206,-1.0079,-0.9612,-0.9516,-0.957,-0.9751,-0.9787,-0.9841,-1.0027,-0.9845,-0.9748,-0.9842,-0.9462,-0.9164,-0.9269,-0.9172,-0.9064,-0.9064,-0.8991,-0.892,-0.892,-0.8706,-0.8576,-0.8576,-0.8549,-0.8517,-0.8517,-0.8447,-0.8441,-0.8511,-0.8447,-0.8441,-0.8517,-0.8517,-0.8517,-0.8517,-0.8517,-0.8517,-0.8517,-0.8517,-0.8603,-0.8792,-0.8792,-0.8851,-0.9017,-0.93,-0.9295,-0.9141,-0.955,-0.9653,-0.9599,-0.976,-0.9863,-0.9884,-1.6251,-1.5982,-1.5615,-1.5377,-1.567,-1.5799,-1.5395,-1.5331,-1.5276,-1.512,-1.4753,-1.4515,-1.4515,-1.4426,-1.4297,-1.4139,-1.403,-1.3935,-1.3742,-1.3742,-1.3742,-1.3742,-1.4401,-1.4667,-1.4461,-1.4658,-1.4744,-1.4684,-1.458,-1.4445,-1.4326,-1.3962,-1.3565,-1.3233,-1.331,-1.3205,-1.2938,-1.2499,-1.2305,-1.2224,-1.1409,-1.1111,-1.1149,-1.1632,-1.1818,-1.1792,-1.1625,-1.1488,-1.1288,-1.0961,-1.0629,-1.0328,-1.0124,-1.0238,-1.0346,-0.9823,-0.9853,-1.0057,-1.0057,-1.0178,-1.0323,-1.0394,-1.0404,-1.0305,-0.9922,-0.9823,-0.9871,-1.0027,-1.0057,-1.0106,-1.0268,-1.0187,-1.01,-1.0188,-0.98,-0.954,-0.9602,-0.9386,-0.9206,-0.9206,-0.9082,-0.903,-0.903,-0.8867,-0.8748,-0.8662,-0.8651,-0.8614,-0.8522,-0.8517,-0.8517,-0.8517,-0.8517,-0.856,-0.8651,-0.8743,-0.8694,-0.8517,-0.8608,-0.8651,-0.8657,-0.8743,-0.8861,-0.903,-0.903,-0.9077,-0.9222,-0.9475,-0.9491,-0.9389,-0.9771,-0.9836,-0.9728,-0.9868,-0.9884,-0.9884,-1.6248,-1.601,-1.5716,-1.5652,-1.5955,-1.6074,-1.5652,-1.5579,-1.545,-1.5093,-1.4735,-1.4515,-1.4515,-1.4515,-1.4455,-1.4297,-1.429,-1.425,-1.4101,-1.4127,-1.4136,-1.4093,-1.4093,-1.4084,-1.4042,-1.4076,-1.4256,-1.4581,-1.3884,-1.3868,-1.4427,-1.312,-1.2833,-1.3374,-1.3048,-1.2917,-1.2974,-1.2426,-1.2224,-1.2224,-1.1409,-1.1111,-1.1111,-1.1111,-1.1111,-1.1111,-1.1111,-1.1111,-1.1111,-1.1111,-1.1111,-1.1021,-1.0485,-1.0491,-1.0587,-1.0088,-1.0124,-1.0328,-1.0328,-1.0346,-1.0364,-1.0364,-1.0364,-1.0352,-1.0304,-1.0292,-1.0304,-1.0322,-1.0328,-1.0334,-1.0358,-1.0539,-1.0611,-1.04,-1.0266,-1.012,-0.9879,-0.9523,-0.9265,-0.9265,-0.9249,-0.9238,-0.9238,-0.9217,-0.912,-0.8944,-0.8927,-0.8836,-0.8587,-0.8576,-0.8576,-0.8576,-0.8576,-0.8678,-0.8927,-0.9098,-0.899,-0.8576,-0.8825,-0.8927,-0.8933,-0.9109,-0.9217,-0.9238,-0.9238,-0.9249,-0.9287,-0.9513,-0.961,-0.9631,-0.9836,-0.9884,-0.9884,-0.9884,-0.9884,-0.9884,-1.6325,-1.6248,-1.5982,-1.534,-1.5304,-1.523,-1.4827,-1.4772,-1.4735,-1.4653,-1.4561,-1.4515,-1.4515,-1.4515,-1.4455,-1.4297,-1.429,-1.425,-1.4101,-1.4384,-1.4418,-1.411,-1.4093,-1.3956,-1.3639,-1.3939,-1.399,-1.3759,-1.3901,-1.3469,-1.2498,-1.2506,-1.1982,-1.1024,-1.1166,-1.1572,-1.2133,-1.1586,-1.1706,-1.2224,-1.1409,-1.1111,-1.1111,-1.1111,-1.1111,-1.1111,-1.1111,-1.1111,-1.1111,-1.1111,-1.1111,-1.1057,-1.0737,-1.0641,-1.0623,-1.0304,-1.0394,-1.0599,-1.0599,-1.0785,-1.0942,-1.0942,-1.0942,-1.0834,-1.0388,-1.0292,-1.0352,-1.0557,-1.0599,-1.0695,-1.09,-1.0785,-1.0731,-1.0882,-1.0458,-1.0162,-1.0341,-0.9988,-0.9766,-0.9766,-0.9604,-0.9497,-0.9497,-0.9319,-0.9184,-0.9136,-0.913,-0.9109,-0.9055,-0.9055,-0.9055,-0.9055,-0.9055,-0.9077,-0.913,-0.9179,-0.9152,-0.9055,-0.9109,-0.913,-0.913,-0.9179,-0.9314,-0.9497,-0.9497,-0.9599,-0.9766,-0.9825,-0.9846,-0.9852,-0.99,-0.9884,-0.9884,-0.9884,-0.9884,-0.9884,-1.6642,-1.6597,-1.6459,-1.6037,-1.5808,-1.5542,-1.5139,-1.4909,-1.4726,-1.4543,-1.4515,-1.4515,-1.4515,-1.4515,-1.4529,-1.459,-1.4921,-1.5024,-1.4772,-1.4789,-1.4679,-1.4384,-1.4016,-1.3716,-1.3511,-1.3708,-1.3716,-1.3511,-1.3716,-1.3275,-1.2192,-1.2069,-1.1442,-1.0392,-1.0333,-1.0627,-1.1115,-1.0961,-1.1218,-1.1694,-1.1126,-1.1003,-1.1099,-1.0972,-1.1003,-1.1111,-1.1111,-1.1111,-1.1111,-1.1111,-1.1111,-1.1063,-1.0767,-1.0803,-1.0852,-1.0557,-1.0665,-1.0906,-1.0906,-1.1009,-1.1111,-1.1111,-1.1111,-1.1039,-1.0767,-1.0665,-1.0701,-1.0845,-1.0906,-1.0948,-1.1087,-1.1003,-1.0954,-1.1087,-1.0738,-1.0475,-1.0608,-1.0293,-1.003,-1.003,-0.9852,-0.9739,-0.9739,-0.9523,-0.9383,-0.9383,-0.9383,-0.933,-0.9211,-0.9319,-0.933,-0.9206,-0.9319,-0.9383,-0.9383,-0.9491,-0.9545,-0.9545,-0.9432,-0.9383,-0.9383,-0.9497,-0.9615,-0.9739,-0.9739,-0.9809,-0.9884,-0.9884,-0.9884,-0.9884,-0.9884,-0.9884,-0.9884,-0.9884,-0.9884,-0.9884,-1.6817,-1.6807,-1.6789,-1.6716,-1.6431,-1.6092,-1.5744,-1.5414,-1.5084,-1.4753,-1.4717,-1.4689,-1.4616,-1.4616,-1.4684,-1.4879,-1.5566,-1.5867,-1.5504,-1.5199,-1.4924,-1.4717,-1.3896,-1.3449,-1.3511,-1.3381,-1.339,-1.3511,-1.3511,-1.3169,-1.2481,-1.1819,-1.1149,-1.0466,-1.0077,-1.0051,-1.031,-1.0527,-1.0803,-1.1021,-1.0725,-1.0743,-1.0954,-1.0737,-1.0755,-1.0985,-1.1033,-1.1069,-1.1111,-1.1111,-1.1111,-1.1069,-1.0858,-1.0936,-1.1069,-1.0815,-1.0942,-1.1111,-1.1111,-1.1111,-1.1111,-1.1111,-1.1111,-1.1111,-1.1111,-1.1111,-1.1111,-1.1111,-1.1111,-1.1111,-1.1111,-1.1148,-1.1184,-1.1184,-1.0996,-1.0901,-1.0942,-1.0532,-1.0272,-1.0273,-1.0057,-0.9884,-0.9884,-0.975,-0.9637,-0.9637,-0.9637,-0.9545,-0.934,-0.9523,-0.954,-0.9335,-0.9529,-0.9637,-0.9637,-0.9825,-0.9884,-0.9879,-0.9728,-0.9637,-0.9642,-0.9836,-0.9884,-0.9884,-0.9884,-0.9884,-0.9884,-0.9884,-0.9884,-0.9884,-0.9884,-0.9884,-0.9884,-0.9884,-0.9884,-0.9884,-1.6459,-1.6361,-1.6285,-1.5918,-1.5808,-1.5753,-1.5698,-1.5643,-1.5588,-1.5533,-1.5533,-1.5404,-1.5056,-1.5019,-1.4985,-1.4907,-1.5566,-1.5867,-1.5504,-1.5451,-1.521,-1.4725,-1.3695,-1.3245,-1.348,-1.2917,-1.2917,-1.3511,-1.3511,-1.3169,-1.2481,-1.1819,-1.1149,-1.0466,-1.0077,-1.0051,-1.0298,-1.0334,-1.0497,-1.0713,-1.0454,-1.037,-1.0394,-1.0358,-1.037,-1.043,-1.0653,-1.0882,-1.1111,-1.1111,-1.1111,-1.1105,-1.1069,-1.1081,-1.1105,-1.1069,-1.1081,-1.1111,-1.1111,-1.1111,-1.1111,-1.1111,-1.1111,-1.1111,-1.1111,-1.1111,-1.1111,-1.1111,-1.1111,-1.1111,-1.1111,-1.1273,-1.1435,-1.1435,-1.1281,-1.1247,-1.1464,-1.0914,-1.0479,-1.0545,-1.0155,-0.9884,-0.9884,-0.989,-0.9873,-0.9873,-0.9873,-0.9857,-0.9825,-0.9852,-0.9857,-0.9788,-0.9857,-0.9873,-0.9873,-0.9868,-0.9884,-0.9884,-0.989,-0.9873,-0.9873,-0.9906,-0.9884,-0.9884,-0.9884,-0.9884,-0.9884,-0.9884,-0.9884,-0.9884,-0.9884,-0.9884,-0.9884,-0.9884,-0.9884,-0.9884,-1.6679,-1.6642,-1.6587,-1.6404,-1.6184,-1.6037,-1.6037,-1.5835,-1.5689,-1.5689,-1.5689,-1.5625,-1.545,-1.5643,-1.5748,-1.5683,-1.6203,-1.6394,-1.6119,-1.5813,-1.5421,-1.4848,-1.3704,-1.3043,-1.2956,-1.2289,-1.2074,-1.2389,-1.313,-1.3169,-1.2481,-1.1819,-1.1149,-1.0491,-0.9922,-0.9835,-1.0075,-1.0075,-1.0226,-1.0442,-1.0178,-1.0166,-1.028,-1.013,-1.0166,-1.0328,-1.0587,-1.0851,-1.1111,-1.1111,-1.1111,-1.1111,-1.1111,-1.1111,-1.1111,-1.1111,-1.1111,-1.1111,-1.1111,-1.1111,-1.1111,-1.1111,-1.1111,-1.1111,-1.1111,-1.1111,-1.1154,-1.1279,-1.1309,-1.1351,-1.1534,-1.1627,-1.1712,-1.1712,-1.1633,-1.1581,-1.1551,-1.1312,-1.1008,-1.0656,-1.0291,-1.003,-0.9922,-0.9884,-0.9884,-0.9884,-0.9884,-0.9884,-0.9884,-0.9884,-0.9884,-0.9884,-0.9884,-0.9884,-0.9884,-0.9884,-0.9884,-0.9884,-0.9884,-0.9884,-0.9884,-0.9884,-0.9884,-0.9884,-0.9884,-0.9884,-0.9884,-0.9884,-0.9884,-0.9884,-0.9884,-0.9614,-0.916,-0.8727,-0.8575,-0.8575]},{"header":{"parameterUnit":"m.s-1","parameterCategory":1,"la1":30.6,"la2":28.766,"lo1":-90.7593,"lo2":-88.6598,"dy":0.0162,"dx":0.0183,"nx":116,"ny":114,"refTime":"2024-03-04T18:00:00:Z","depth":0,"parameterNumber":3,"parameterNumberName":"V-component_of_WINDS"},"data":[0.0,0.0,0.0,0.0,0.0,0.0,0.0,0.0,0.0,0.0,0.0,0.0,0.0,0.0,0.0,0.0,0.0,0.0,0.0,0.0,0.0,0.0,0.0,0.0,0.0,0.0,0.0,0.0,0.0,0.0,0.0,0.0,0.0,0.0,0.0,0.0,0.0,0.0,0.0,0.0,0.0,0.0,0.0,0.0,0.0,0.0,0.0,0.0,0.0,0.0,0.0,0.0,0.0,0.0,0.0,0.0,0.0,0.0,0.0,0.0,0.0,0.0,0.0,0.0,0.0,0.0,0.0,0.0,0.0,0.0,0.0,0.0,0.0,0.0,0.0,0.0,0.0,0.0,0.0,0.0,0.0,0.0,0.0,0.0,0.0,0.0,0.0,0.0,0.0,0.0,0.0,0.0,0.0,0.0,0.0,0.0,0.0,0.0,0.0,0.0,0.0,0.0,0.0,0.0,0.0,0.0,0.0,0.0,0.0,0.0,0.0,0.0,0.0,0.0,0.0,0.0,0.0,0.0,0.0,0.0,0.0,0.0,0.0,0.0,0.0,0.0,0.0,0.0,0.0,0.0,0.0,0.0,0.0,0.0,0.0,0.0,0.0,0.0,0.0,0.0,0.0,0.0,0.0,0.0,0.0,0.0,0.0,0.0,0.0,0.0,0.0,0.0,0.0,0.0,0.0,0.0,0.0,0.0,0.0,0.0,0.0,0.0,0.0,0.0,0.0,0.0,0.0,0.0,0.0,0.0,0.0,0.0,0.0,0.0,0.0,0.0,0.0,0.0,0.0,0.0,0.0,0.0,0.0,0.0,0.0,0.0,0.0,0.0,0.0,0.0,0.0,0.0,0.0,0.0,0.0,0.0,0.0,0.0,0.0,0.0,0.0,0.0,0.0,0.0,0.0,0.0,0.0,0.0,0.0,0.0,0.0,0.0,0.0,0.0,0.0,0.0,0.0,0.0,0.0,0.0,0.0,0.0,0.0,0.0,0.0,0.0,0.0,0.0,0.0,0.0,0.0,0.0,0.0,0.0,0.0,0.0,0.0,0.0,0.0,0.0,0.0,0.0,0.0,0.0,0.0,0.0,0.0,0.0,0.0,0.0,0.0,0.0,0.0,0.0,0.0,0.0,0.0,0.0,0.0,0.0,0.0,0.0,0.0,0.0,0.0,0.0,0.0,0.0,0.0,0.0,0.0,0.0,0.0,0.0,0.0,0.0,0.0,0.0,0.0,0.0,0.0,0.0,0.0,0.0,0.0,0.0,0.0,0.0,0.0,0.0,0.0,0.0,0.0,0.0,0.0,0.0,0.0,0.0,0.0,0.0,0.0,0.0,0.0,0.0,0.0,0.0,0.0,0.0,0.0,0.0,0.0,0.0,0.0,0.0,0.0,0.0,0.0,0.0,0.0,0.0,0.0,0.0,0.0,0.0,0.0,0.0,0.0,0.0,0.0,0.0,0.0,0.0,0.0,0.0,0.0,0.0,0.0,0.0,0.0,0.0,0.0,0.0,0.0,0.0,0.0,0.0,0.0,0.0,0.0,0.0,0.0,0.0,0.0,0.0,0.0,0.0,0.0,0.0,0.0,0.0,0.0,0.0,0.0,0.0,0.0,0.0,0.0,0.0,0.0,0.0,0.0,0.0,0.0,0.0,0.0,0.0,0.0,0.0,0.0,0.0,0.0,0.0,0.0,0.0,0.0,0.0,0.0,0.0,0.0,0.0,0.0,0.0,0.0,0.0,0.0,0.0,0.0,0.0,0.0,0.0,0.0,0.0,0.0,0.0,0.0,0.0,0.0,0.0,0.0,0.0,0.0,0.0,0.0,0.0,0.0,0.0,0.0,0.0,0.0,0.0,0.0,0.0,0.0,0.0,0.0,0.0,0.0,0.0,0.0,0.0,0.0,0.0,0.0,0.0,0.0,0.0,0.0,0.0,0.0,0.0,0.0,0.0,0.0,0.0,0.0,0.0,0.0,0.0,0.0,0.0,0.0,0.0,0.0,0.0,0.0,0.0,0.0,0.0,0.0,0.0,0.0,0.0,0.0,0.0,0.0,0.0,0.0,0.0,0.0,0.0,0.0,0.0,0.0,0.0,0.0,0.0,0.0,0.0,0.0,0.0,0.0,0.0,0.0,0.0,0.0,0.0,0.0,0.0,0.0,0.0,0.0,0.0,0.0,0.0,0.0,0.0,0.0,0.0,0.0,0.0,0.0,0.0,0.0,0.0,0.0,0.0,0.0,0.0,0.0,0.0,0.0,0.0,0.0,0.0,0.0,0.0,0.0,0.0,0.0,0.0,0.0,0.0,0.0,0.0,0.0,0.0,0.0,0.0,0.0,0.0,0.0,0.0,0.0,0.0,0.0,0.0,0.0,0.0,0.0,0.0,0.0,0.0,0.0,0.0,0.0,0.0,0.0,0.0,0.0,0.0,0.0,0.0,0.0,0.0,0.0,0.0,0.0,0.0,0.0,0.0,0.0,0.0,0.0,0.0,0.0,0.0,0.0,0.0,0.0,0.0,0.0,0.0,0.0,0.0,0.0,0.0,0.0,0.0,0.0,0.0,0.0,0.0,0.0,0.0,0.0,0.0,0.0,0.0,0.0,0.0,0.0,0.0,0.0,0.0,0.0,0.0,0.0,0.0,0.0,0.0,0.0,0.0,0.0,0.0,0.0,0.0,0.0,0.0,0.0,0.0,0.0,0.0,0.0,0.0,0.0,0.0,0.0,0.0,0.0,0.0,0.0,0.0,0.0,0.0,0.0,0.0,0.0,0.0,0.0,0.0,0.0,0.0,0.0,0.0,0.0,0.0,0.0,0.0,0.0,0.0,0.0,0.0,0.0,0.0,0.0,0.0,0.0,0.0,0.0,0.0,0.0,0.0,0.0,0.0,0.0,0.0,0.0,0.0,0.0,0.0,0.0,0.0,0.0,0.0,0.0,0.0,0.0,0.0,0.0,0.0,0.0,0.0,0.0,0.0,0.0,0.0,0.0,0.0,0.0,0.0,0.0,0.0,0.0,0.0,0.0,0.0,0.0,0.0,0.0,0.0,0.0,0.0,0.0,0.0,0.0,0.0,0.0,0.0,0.0,0.0,0.0,0.0,0.0,0.0,0.0,0.0,0.0,0.0,0.0,0.0,0.0,0.0,0.0,0.0,0.0,0.0,0.0,0.0,0.0,0.0,0.0,0.0,0.0,0.0,0.0,0.0,0.0,0.0,0.0,0.0,0.0,0.0,0.0,0.0,0.0,0.0,0.0,0.0,0.0,0.0,0.0,0.0,0.0,0.0,0.0,0.0,0.0,0.0,0.0,0.0,0.0,0.0,0.0,0.0,0.0,0.0,0.0,0.0,0.0,0.0,0.0,0.0,0.0,0.0,0.0,0.0,0.0,0.0,0.0,0.0,0.0,0.0,0.0,0.0,0.0,0.0,0.0,0.0,0.0,0.0,0.0,0.0,0.0,0.0,0.0,0.0,0.0,0.0,0.0,0.0,0.0,0.0,0.0,0.0,0.0,0.0,0.0,0.0,0.0,0.0,0.0,0.0,0.0,0.0,0.0,0.0,0.0,0.0,0.0,0.0,0.0,0.0,0.0,0.0,0.0,0.0,0.0,0.0,0.0,0.0,0.0,0.0,0.0,0.0,0.0,0.0,0.0,0.0,0.0,0.0,0.0,0.0,0.0,0.0,0.0,0.0,0.0,0.0,0.0,0.0,0.0,0.0,0.0,0.0,0.0,0.0,0.0,0.0,0.0,0.0,0.0,0.0,0.0,0.0,0.0,0.0,0.0,0.0,0.0,0.0,0.0,0.0,0.0,0.0,0.0,0.0,0.0,0.0,0.0,0.0,0.0,0.0,0.0,0.0,0.0,0.0,0.0,0.0,0.0,0.0,0.0,0.0,0.0,0.0,0.0,0.0,0.0,0.0,0.0,0.0,0.0,0.0,0.0,0.0,0.0,0.0,0.0,0.0,0.0,0.0,0.0,0.0,0.0,0.0,0.0,0.0,0.0,0.0,0.0,0.0,0.0,0.0,0.0,0.0,0.0,0.0,0.0,0.0,0.0,0.0,0.0,0.0,0.0,0.0,0.0,0.0,0.0,0.0,0.0,0.0,0.0,0.0,0.0,0.0,0.0,0.0,0.0,0.0,0.0,0.0,0.0,0.0,0.0,0.0,0.0,0.0,0.0,0.0,0.0,0.0,0.0,0.0,0.0,0.0,0.0,0.0,0.0,0.0,0.0,0.0,0.0,0.0,0.0,0.0,0.0,0.0,0.0,0.0,0.0,0.0,0.0,0.0,0.0,0.0,0.0,0.0,0.0,0.0,0.0,0.0,0.0,0.0,0.0,0.0,0.0,0.0,0.0,0.0,0.0,0.0,0.0,0.0,0.0,0.0,0.0,0.0,0.0,0.0,0.0,0.0,0.0,0.0,0.0,0.0,0.0,0.0,0.0,0.0,0.0,0.0,0.0,0.0,0.0,0.0,0.0,0.0,0.0,0.0,0.0,0.0,0.0,0.0,0.0,0.0,0.0,0.0,0.0,0.0,0.0,0.0,0.0,0.0,0.0,0.0,0.0,0.0,0.0,0.0,0.0,0.0,0.0,0.0,0.0,0.0,0.0,0.0,0.0,0.0,0.0,0.0,0.0,0.0,0.0,0.0,0.0,0.0,0.0,0.0,0.0,0.0,0.0,0.0,0.0,0.0,0.0,0.0,0.0,0.0,0.0,0.0,0.0,0.0,0.0,0.0,0.0,0.0,0.0,0.0,0.0,0.0,0.0,0.0,0.0,0.0,0.0,0.0,0.0,0.0,0.0,0.0,0.0,0.0,0.0,0.0,0.0,0.0,0.0,0.0,0.0,0.0,0.0,0.0,0.0,0.0,0.0,0.0,0.0,0.0,0.0,0.0,0.0,0.0,0.0,0.0,0.0,0.0,0.0,0.0,0.0,0.0,0.0,0.0,0.0,0.0,0.0,0.0,0.0,0.0,0.0,0.0,0.0,0.0,0.0,0.0,0.0,0.0,0.0,0.0,0.0,0.0,0.0,0.0,0.0,0.0,0.0,0.0,0.0,0.0,0.0,0.0,0.0,0.0,0.0,0.0,0.0,0.0,0.0,0.0,0.0,0.0,0.0,0.0,0.0,0.0,0.0,0.0,0.0,0.0,0.0,0.0,0.0,0.0,0.0,0.0,0.0,0.0,0.0,0.0,0.0,0.0,0.0,0.0,0.0,0.0,0.0,0.0,0.0,0.0,0.0,0.0,0.0,0.0,0.0,0.0,0.0,0.0,0.0,0.0,0.0,0.0,0.0,0.0,0.0,0.0,0.0,0.0,0.0,0.0,0.0,0.0,0.0,0.0,0.0,0.0,0.0,0.0,0.0,0.0,0.0,0.0,0.0,0.0,0.0,0.0,0.0,0.0,0.0,0.0,0.0,0.0,0.0,0.0,0.0,0.0,0.0,0.0,0.0,0.0,0.0,0.0,0.0,0.0,0.0,0.0,0.0,0.0,0.0,0.0,0.0,0.0,0.0,0.0,0.0,0.0,0.0,0.0,0.0,0.0,0.0,0.0,0.0,0.0,0.0,0.0,0.0,0.0,0.0,0.0,0.0,0.0,0.0,0.0,0.0,0.0,0.0,0.0,0.0,0.0,0.0,0.0,0.0,0.0,0.0,0.0,0.0,0.0,0.0,0.0,0.0,0.0,0.0,0.0,0.0,0.0,0.0,0.0,0.0,0.0,0.0,0.0,0.0,0.0,0.0,0.0,0.0,0.0,0.0,0.0,0.0,0.0,0.0,0.0,0.0,0.0,0.0,0.0,0.0,0.0,0.0,0.0,0.0,0.0,0.0,0.0,0.0,0.0,0.0,0.0,0.0,0.0,0.0,0.0,0.0,0.0,0.0,0.0,0.0,0.0,0.0,0.0,0.0,0.0,0.0,0.0,0.0,0.0,0.0,0.0,0.0,0.0,0.0,0.0,0.0,0.0,0.0,0.0,0.0,0.0,0.0,0.0,0.0,0.0,0.0,0.0,0.0,0.0,0.0,0.0,0.0,0.0,0.0,0.0,0.0,0.0,0.0,0.0,0.0,0.0,0.0,0.0,1.2571,0.0,0.0,0.0,0.0,0.0,0.0,0.0,0.0,0.0,0.0,0.0,0.0,0.0,0.0,0.0,0.0,0.0,0.0,0.0,0.0,0.0,0.0,0.0,0.0,0.0,0.0,0.0,0.0,0.0,0.0,0.0,0.0,0.0,0.0,0.0,0.6436,0.8903,1.1242,1.3454,1.3696,1.428,1.516,1.516,1.5268,1.5463,0.0,0.0,0.0,0.0,0.0,0.0,0.0,0.0,0.0,0.0,0.0,0.0,0.0,0.0,0.0,0.0,0.0,0.0,0.0,0.0,0.0,0.0,0.0,0.0,0.0,0.0,0.0,0.0,0.0,0.0,0.0,0.0,0.0,0.0,0.0,0.0,0.0,0.0,0.0,0.0,0.0,0.0,0.0,0.0,0.0,0.0,0.0,0.0,0.0,0.0,0.0,0.0,0.0,0.0,0.0,0.0,0.0,0.0,0.0,0.0,0.0,0.0,0.0,0.0,0.0,0.0,0.0,0.0,0.0,0.0,0.0,1.3808,0.0,0.0,0.0,0.0,0.0,0.0,0.0,0.0,0.0,0.0,0.0,0.0,0.0,0.0,0.0,0.0,0.0,0.0,0.0,0.0,0.0,0.0,0.0,1.2058,1.2841,1.2671,1.3084,1.3185,0.0,0.0,0.0,0.0,0.0,1.26,1.3379,0.9772,0.9735,1.3493,1.4165,1.4878,1.5632,1.6747,1.7276,1.7225,1.6838,0.0,0.0,0.0,0.0,0.0,0.0,0.0,0.0,0.0,0.0,0.0,0.0,0.0,0.0,0.0,0.0,0.0,0.0,0.0,0.0,0.0,0.0,0.0,0.0,0.0,0.0,0.0,0.0,0.0,0.0,0.0,0.0,0.0,0.0,0.0,0.0,0.0,0.0,0.0,0.0,0.0,0.0,0.0,0.0,0.0,0.0,0.0,0.0,0.0,0.0,0.0,0.0,0.0,0.0,0.0,0.0,0.0,0.0,0.0,0.0,0.0,0.0,0.0,0.0,1.5261,1.5726,1.6083,1.5441,1.4144,1.5775,1.5504,1.3959,0.0,0.0,0.0,0.0,0.0,0.0,0.0,0.0,0.0,0.0,0.0,0.0,0.0,0.0,0.0,0.0,0.0,0.0,0.0,0.0,0.0,0.0,1.0729,1.0953,1.0921,1.2272,1.2373,1.0579,0.0,1.052,0.6448,0.7104,0.9404,1.3312,1.2884,1.2897,1.3493,1.6318,1.7807,1.8091,2.0173,2.0826,2.0121,1.7636,1.6476,1.635,0.0,0.0,0.0,0.0,0.0,0.0,0.0,0.0,0.0,0.0,0.0,0.0,0.0,0.0,0.0,0.0,0.0,0.0,0.0,0.0,0.0,0.0,0.0,0.0,0.0,0.0,0.0,0.0,0.0,0.0,0.0,0.0,0.0,0.0,0.0,0.0,0.0,0.0,0.0,0.0,0.0,1.2556,1.4187,0.0,0.0,0.0,0.0,0.0,0.0,0.0,0.0,0.0,0.0,0.0,0.0,0.0,0.0,1.3815,1.4214,1.4605,1.4998,1.5843,1.6099,1.5808,1.6543,1.6345,1.5503,1.6718,0.0,1.3827,1.3972,0.0,0.0,0.0,0.0,0.0,0.0,0.0,0.0,0.0,0.0,0.0,0.0,0.0,0.0,0.0,0.0,0.0,0.0,0.0,0.0,0.0,1.1651,1.1716,1.1716,1.332,1.3561,1.1744,1.2431,1.2047,1.0114,1.0192,1.1245,1.3244,1.3329,1.3768,1.4623,1.7013,1.845,1.8975,2.0549,2.1107,2.0736,1.9487,1.8474,1.7718,1.7282,0.0,0.0,0.0,0.0,0.0,0.0,0.0,0.0,0.0,0.0,0.0,0.0,0.0,0.0,0.0,0.0,0.0,0.0,0.0,0.0,0.0,0.0,0.0,0.0,0.0,0.0,0.0,0.0,0.0,0.0,0.0,0.0,0.0,0.0,0.0,0.0,0.0,0.0,0.0,1.3088,1.4046,1.3922,1.4597,1.4948,0.0,0.0,0.0,0.0,0.0,0.0,0.0,0.0,0.0,1.4594,1.4058,1.385,1.4044,1.4187,1.4526,1.5061,1.5612,1.597,1.6139,1.6658,1.6677,1.6342,1.6847,1.656,1.5698,1.5594,1.6028,1.6721,0.0,0.0,0.0,0.0,0.0,1.6115,0.0,0.0,0.0,0.0,0.0,0.0,0.0,0.0,0.0,0.0,0.0,0.0,1.2499,1.2937,1.3209,1.3391,1.451,1.4679,1.3443,1.2957,1.2773,1.2896,1.3022,1.3111,1.3129,1.3551,1.4536,1.6099,1.7994,1.9321,2.0112,2.1121,2.1662,2.1742,2.1312,2.0305,1.8932,1.8512,1.7773,1.6854,0.0,0.0,0.0,0.0,0.0,0.0,0.0,0.0,0.0,0.0,0.0,0.0,0.0,0.0,0.0,0.0,0.0,0.0,0.0,0.0,0.0,0.0,0.0,0.0,0.0,0.0,0.0,0.0,0.0,0.0,0.0,0.0,0.0,0.0,0.0,0.0,0.0,1.3935,1.4746,1.4014,1.4875,1.548,0.0,0.0,0.0,0.0,0.0,0.0,1.4979,1.481,1.4694,1.4683,1.432,1.4169,1.4225,1.423,1.4487,1.5,1.5365,1.5781,1.6275,1.6503,1.6581,1.6541,1.6646,1.6802,1.6969,1.6965,1.7065,1.7117,1.6527,1.6447,1.6728,1.7173,1.6928,1.6588,0.0,0.0,0.0,0.0,0.0,0.0,0.0,0.0,0.0,0.0,0.0,1.2339,1.3005,1.3982,1.4879,1.5587,1.5268,1.4897,1.4629,1.346,1.2747,1.263,1.294,1.304,1.2917,1.4476,1.6074,1.7681,1.9999,2.1519,2.2272,2.3277,2.3988,2.4345,2.2675,2.1094,1.9664,1.9757,1.8892,1.7487,1.77,0.0,0.0,0.0,0.0,0.0,0.0,0.0,0.0,0.0,0.0,0.0,0.0,0.0,0.0,0.0,0.0,0.0,0.0,0.0,0.0,0.0,0.0,0.0,0.0,0.0,0.0,0.0,0.0,0.0,0.0,0.0,0.0,0.0,0.0,0.0,0.0,0.0,0.0,1.5466,1.5794,0.0,0.0,0.0,0.0,1.4993,1.5209,1.5487,1.582,1.547,1.5395,1.5721,1.4547,1.4212,1.4845,1.486,1.4902,1.5015,1.558,1.5883,1.5928,1.6011,1.5969,1.587,1.6246,1.6396,1.638,1.6957,1.7487,1.7954,1.7902,1.8007,1.8168,1.8011,1.7484,1.6965,0.0,0.0,0.0,0.0,0.0,0.0,0.0,0.0,0.9478,0.9342,1.1042,1.2707,1.3865,1.4501,1.5265,1.6348,1.6301,1.5723,1.4515,1.4222,1.3608,1.2574,1.2728,1.3271,1.4167,1.5698,1.7235,1.8768,2.0247,2.1488,2.247,2.2822,2.3488,2.4371,2.358,2.2716,2.1838,2.0886,1.9929,1.9017,1.8583,1.781,0.0,0.0,0.0,0.0,0.0,0.0,0.0,0.0,0.0,0.0,0.0,0.0,0.0,0.0,0.0,0.0,0.0,0.0,0.0,0.0,0.0,0.0,0.0,0.0,0.0,0.0,0.0,0.0,0.0,0.0,0.0,0.0,0.0,0.0,0.0,0.0,0.0,1.5836,1.5913,0.0,1.5621,1.5594,1.5581,1.5581,1.5635,1.5712,1.5842,1.5701,1.5474,1.5169,1.5124,1.5033,1.4838,1.5258,1.5482,1.5525,1.5736,1.5827,1.5827,1.587,1.5856,1.5813,1.5956,1.6094,1.6289,1.6933,1.7306,1.7496,1.7496,1.7537,1.7579,1.7375,1.7139,1.6957,0.0,0.0,0.0,0.0,0.0,0.0,0.0,0.0,0.9509,0.9833,1.1542,1.32,1.4403,1.5407,1.6423,1.7516,1.7063,1.6199,1.4962,1.4318,1.3516,1.2475,1.3051,1.3987,1.5237,1.6888,1.8356,1.9601,2.0519,2.1622,2.2902,2.2738,2.3525,2.504,2.45,2.4218,2.406,2.2854,2.152,2.0144,1.9406,1.8831,1.8324,0.0,0.0,0.0,0.0,0.0,0.0,0.0,0.0,0.0,0.0,0.0,0.0,0.0,0.0,0.0,0.0,0.0,0.0,0.0,0.0,0.0,0.0,0.0,0.0,0.0,0.0,0.0,0.0,0.0,0.0,0.0,0.0,0.0,0.0,0.0,1.6187,1.6054,1.6204,1.6277,1.6186,1.5949,1.5801,1.5801,1.558,1.5463,1.5463,1.5463,1.5315,1.4987,1.5402,1.546,1.514,1.5589,1.5799,1.5799,1.5799,1.5799,1.5814,1.6009,1.6099,1.6129,1.6338,1.6533,1.6739,1.7317,1.7546,1.7543,1.7497,1.7329,1.7117,1.7014,1.7027,1.7138,0.0,0.0,0.0,0.0,0.0,0.0,0.0,0.897,0.9949,1.0845,1.2518,1.3881,1.4562,1.6743,1.8436,1.9144,1.7493,1.6284,1.5976,1.3717,1.2373,1.2337,1.393,1.5201,1.6038,1.8012,1.9431,2.026,2.0954,2.2118,2.3686,2.3206,2.4261,2.6522,2.5495,2.5475,2.6162,2.5677,2.3716,2.0888,2.025,1.9883,1.9577,0.0,0.0,0.0,0.0,0.0,0.0,0.0,0.0,0.0,0.0,0.0,0.0,0.0,0.0,0.0,0.0,0.0,0.0,0.0,0.0,0.0,0.0,0.0,0.0,0.0,0.0,0.0,0.0,0.0,0.0,0.0,0.0,0.0,1.4997,1.6079,1.6665,1.6163,1.6682,1.6921,1.6547,1.5943,1.5599,1.5599,1.5113,1.4822,1.4808,1.4808,1.4949,1.5285,1.5314,1.5463,1.5799,1.5799,1.5799,1.5799,1.5829,1.5829,1.5858,1.6458,1.6726,1.6756,1.7413,1.7713,1.773,1.8065,1.8207,1.8161,1.8045,1.76,1.7009,1.7052,1.724,1.7489,0.0,0.0,0.0,0.0,0.0,0.0,0.5586,0.8353,1.036,1.0216,1.2371,1.4328,1.5495,1.7707,1.9161,1.9266,1.7724,1.6271,1.5054,1.3132,1.2306,1.2923,1.4468,1.5914,1.7205,1.8781,2.0241,2.1584,2.1295,2.2037,2.3687,2.2916,2.3719,2.5814,2.5899,2.6042,2.6217,2.6608,2.5749,2.4015,2.2746,2.1521,2.0455,0.0,0.0,0.0,0.0,0.0,0.0,0.0,0.0,0.0,0.0,0.0,0.0,0.0,0.0,0.0,0.0,0.0,0.0,0.0,0.0,0.0,0.0,0.0,0.0,0.0,0.0,0.0,0.0,0.0,0.0,0.0,1.554,1.5403,1.5441,1.5729,1.6063,1.6363,1.6168,1.6135,1.647,1.5943,1.5599,1.5599,1.5459,1.5212,1.4822,1.4808,1.4949,1.5285,1.5314,1.5463,1.5799,1.5799,1.5799,1.5814,1.6248,1.6443,1.6458,1.713,1.7428,1.7428,1.7608,1.7713,1.7743,1.8322,1.8279,1.7831,1.7746,1.7483,1.7096,1.6676,1.6594,1.6738,0.0,0.0,0.0,0.0,0.0,0.0,0.6964,0.8772,1.0049,1.0324,1.2715,1.4723,1.5574,1.7631,1.869,1.8063,1.6659,1.5166,1.3656,1.2616,1.2497,1.3451,1.517,1.6614,1.7773,1.9416,2.0622,2.1395,2.1567,2.2282,2.3482,2.3265,2.4224,2.6132,2.6159,2.6536,2.7146,2.7365,2.7018,2.6249,2.5475,2.4118,2.2494,2.1836,2.154,2.1301,2.0067,1.9701,1.9541,1.7954,0.0,0.0,0.0,0.0,0.0,0.0,0.0,0.0,0.0,0.0,0.0,0.0,0.0,0.0,0.0,0.0,0.0,0.0,0.0,0.0,0.0,0.0,0.0,0.0,1.5742,1.5651,1.5892,1.6204,1.6452,1.6615,1.656,1.6587,1.6769,1.6267,1.5933,1.5933,1.5706,1.5424,1.5097,1.5084,1.5211,1.546,1.5765,1.5915,1.587,1.617,1.6306,1.6306,1.6623,1.6923,1.7208,1.7834,1.8117,0.0,1.8433,1.8553,1.8568,1.8957,1.8897,0.0,0.0,0.0,0.0,0.0,1.6488,1.6409,0.0,0.0,0.0,0.0,0.0,0.0,0.9909,0.9706,0.9513,1.0659,1.308,1.4766,1.4962,1.6758,1.7446,1.6111,1.4935,1.3695,1.23,1.2342,1.2948,1.4141,1.6064,1.7438,1.8117,2.001,2.0886,2.0682,2.1842,2.272,2.3351,2.3898,2.5153,2.6899,2.6397,2.6974,2.8327,2.7996,2.7783,2.7716,2.7945,2.6887,2.5037,2.3681,2.3557,2.3884,2.2194,2.1734,2.166,1.992,0.0,0.0,0.0,0.0,0.0,0.0,0.0,0.0,0.0,0.0,0.0,0.0,0.0,0.0,0.0,0.0,0.0,0.0,0.0,0.0,0.0,0.0,0.0,0.0,1.5681,1.58,1.6402,1.7049,1.7308,1.6898,1.7329,1.7531,1.724,1.6702,1.6388,1.6388,1.5892,1.5584,1.5537,0.0,0.0,0.0,0.0,1.6577,1.6225,1.6726,1.703,1.7091,1.7015,1.7362,1.7994,1.8557,1.8807,1.8852,1.9453,1.9708,1.9708,1.9708,1.9708,1.9651,1.9235,1.8485,1.7599,1.7279,1.6868,0.0,0.0,0.0,0.0,0.0,0.0,0.0,0.8836,0.9882,1.0165,0.9616,1.1784,1.3444,1.365,1.5413,1.6082,1.4776,1.4328,1.3798,1.296,1.3036,1.3974,1.5921,1.7566,1.8778,1.9509,2.0963,2.1944,2.2417,2.2405,2.303,2.424,2.4036,2.4844,2.6471,2.6913,2.7477,2.8115,2.8619,2.8594,2.8254,2.831,2.7568,2.6413,2.6124,2.5732,2.5238,2.4273,2.3979,2.3684,2.1513,2.125,2.1532,2.0018,1.9155,0.0,0.0,0.0,0.0,0.0,0.0,0.0,0.0,0.0,0.0,0.0,0.0,0.0,0.0,0.0,0.0,0.0,0.0,0.0,1.6852,1.6596,1.6415,1.6963,1.7173,1.7221,1.7119,1.6863,1.6816,1.716,1.6702,1.6388,1.6388,1.6284,1.6061,1.5683,1.5408,0.0,1.6636,1.6541,1.6837,1.7608,1.7152,1.7197,1.7726,0.0,0.0,1.8572,1.9214,1.9513,1.9513,1.9648,1.9708,1.9708,1.9708,1.9708,1.9651,1.9129,1.8488,1.7868,1.8124,1.7988,1.7762,0.0,0.0,0.0,0.0,0.0,0.0,0.9354,1.0278,1.0488,1.006,1.1624,1.2898,1.3168,1.4313,1.4571,1.335,1.2545,1.2394,1.3099,1.3496,1.479,1.723,1.8393,1.9424,2.0438,2.143,2.2036,2.2204,2.2662,2.3275,2.3935,2.4131,2.5082,2.6708,2.6697,2.7401,2.8571,2.8687,2.8835,2.8964,2.905,2.8781,2.8246,2.7774,2.7431,2.7096,2.6253,2.5798,2.5289,2.3279,2.2685,2.2535,2.0952,2.0267,1.9866,0.0,0.0,0.0,0.0,0.0,0.0,0.0,0.0,0.0,0.0,0.0,0.0,0.0,0.0,1.579,1.6265,0.0,1.6153,1.6975,1.693,1.6885,1.716,1.7199,1.7199,1.7199,1.6963,1.6911,1.7173,1.6702,1.6506,1.6781,1.6545,1.6317,1.6098,1.6224,1.6418,1.6638,1.7306,1.7697,1.7798,1.7622,1.7699,1.8003,1.7939,1.8222,1.8818,1.9411,1.9708,1.9708,1.9708,1.9708,1.9708,1.9708,1.9708,1.9678,1.9436,1.9014,1.854,1.8439,1.8315,1.8223,0.0,0.0,0.0,0.0,0.0,0.0,0.0,1.055,1.0641,1.0639,1.1581,1.236,1.268,1.3065,1.2939,1.2016,1.0939,1.123,1.3384,1.4141,1.5725,1.8462,1.9275,2.0146,2.1162,2.1844,2.2046,2.1768,2.3007,2.3634,2.3727,2.4519,2.5758,2.7273,2.6672,2.7393,2.909,2.8685,2.8876,2.9425,2.9589,2.9619,2.9448,2.8693,2.8544,2.8581,2.7543,2.6773,2.5982,2.4315,2.3367,2.2703,2.1325,2.0933,2.0608,1.8886,1.8821,0.0,0.0,0.0,0.0,0.0,0.0,0.0,0.0,1.6639,1.6464,1.6421,1.6319,1.6301,1.6463,1.6641,1.6813,1.6971,1.7116,1.7199,1.7199,1.7199,1.716,1.7055,1.7042,1.7021,1.6946,1.6609,1.6551,1.6886,1.6721,1.6625,1.6685,1.7143,1.7201,1.6816,1.8039,1.8429,1.7814,1.8105,1.8249,1.8265,1.8231,1.8499,1.9065,1.9504,1.9708,1.9708,1.9708,1.9708,1.9708,1.9708,1.9708,1.9708,1.9762,1.9626,1.9347,1.8904,1.8749,1.8702,0.0,0.0,0.0,0.0,0.0,0.0,0.0,0.0,1.0539,1.0131,1.0619,1.108,1.1308,1.1268,1.1157,1.0971,1.1036,1.2113,1.455,1.549,1.7134,1.9769,2.1032,2.1743,2.1888,2.249,2.278,2.2738,2.3791,2.4485,2.4837,2.5832,2.6891,2.7984,2.7889,2.8331,2.9098,2.9042,2.9081,2.9144,2.9167,2.8946,2.8554,2.8437,2.8564,2.8607,2.7241,2.6003,2.4771,2.3326,2.245,2.1925,2.1729,2.1247,2.0508,1.9339,1.8692,1.8101,1.6974,1.671,1.6664,1.622,1.6694,1.7201,0.0,1.7318,1.7805,1.7569,1.7276,1.7229,1.7771,1.739,1.7122,1.7598,1.7415,1.7199,1.7199,1.7199,1.7016,1.6565,1.648,1.6347,1.5985,1.6222,1.6282,1.5985,1.679,1.7319,1.7382,1.7338,1.7597,1.825,1.8095,1.819,1.8565,1.8497,1.8614,1.8897,1.8897,1.9146,1.9621,1.9678,1.9708,1.9708,1.9708,1.9708,1.9708,1.9708,1.9708,1.9708,1.9708,1.9879,2.0102,2.0277,2.0161,1.9972,0.0,0.0,0.0,0.0,0.0,0.0,0.0,0.0,0.0,1.0438,1.0496,1.0656,1.0897,1.0873,1.0801,1.0741,1.092,1.214,1.4732,1.5673,1.7476,2.0494,2.1511,2.2338,2.3078,2.2968,2.3099,2.3476,2.352,2.3902,2.4672,2.5302,2.6385,2.7771,2.7989,2.8474,2.9098,2.9098,2.9098,2.9098,2.9098,2.8756,2.8186,2.7804,2.6946,2.595,2.6082,2.5208,0.0,2.2998,2.2256,2.1625,2.1269,2.0821,2.0129,1.8752,1.8467,1.8389,1.7383,1.7072,1.696,1.6748,1.7136,1.7562,1.7577,1.7726,1.7842,1.773,1.7714,1.7736,1.7744,1.7597,1.7463,0.0,1.7323,1.7199,1.7199,1.6924,1.665,1.6428,1.5774,1.5329,1.5271,1.5627,1.586,1.581,1.6471,1.6917,1.697,1.7336,1.7566,1.7625,1.804,1.8346,1.8588,1.8602,1.8651,1.8702,1.8919,1.9072,1.9241,1.9564,1.9708,1.9708,1.9708,1.9708,1.9708,1.9708,1.9708,1.9708,1.9708,1.9782,1.9942,2.0083,2.0222,2.034,0.0,0.0,0.0,0.0,0.0,0.0,0.0,0.0,0.0,0.0,1.0548,1.0498,1.0668,1.0717,1.0717,1.0644,1.0801,1.1968,1.4461,1.5541,1.7415,2.0349,2.1452,2.2425,2.3377,2.3055,2.3142,2.363,2.349,2.385,2.4698,2.5348,2.6351,2.7627,2.7899,2.838,2.892,2.892,2.9006,2.9082,2.8893,2.8316,2.7431,2.6498,2.4843,2.3185,2.4234,2.3553,2.2069,2.1564,2.1006,2.0468,2.0045,1.9886,1.9544,1.7996,1.777,1.79,1.7414,1.725,1.7224,1.7303,1.7649,1.8048,1.8292,1.8282,1.8252,1.8252,1.8401,1.8386,1.7876,1.7896,1.7808,1.7303,1.7199,1.7146,1.7003,1.6637,1.6291,1.5931,1.5121,1.4511,1.4294,1.4904,1.5389,1.5589,1.6209,1.6672,1.6903,1.7437,1.7612,1.7258,1.794,1.8294,1.8208,1.8502,1.8605,1.8498,1.8914,1.9123,1.9172,1.9519,1.9708,1.9708,1.9708,1.9708,1.9708,1.9708,1.9708,1.9708,1.9708,1.9708,1.9708,1.9744,2.0028,2.034,0.0,0.0,0.0,0.0,0.0,0.0,0.0,0.0,0.0,0.0,0.0,0.0,0.0,1.0535,1.0584,1.0511,1.0741,1.1747,1.3811,1.5297,1.7011,1.9072,2.0973,2.2019,2.2048,2.262,2.2902,2.2917,2.4157,2.4955,2.5399,2.6713,2.7525,2.7893,2.7893,2.8143,2.8511,2.8511,2.874,2.9035,2.8395,2.7304,2.5893,2.4304,2.2541,2.0984,2.1679,2.0556,1.8679,1.8197,1.7999,1.7923,1.7965,1.8429,1.8669,1.7316,1.6396,1.5933,1.6563,1.6864,1.7106,1.7487,1.8129,1.8672,1.8672,1.9184,1.9648,1.9648,1.9645,1.9409,1.8621,1.8467,1.8206,1.7344,1.7199,1.7016,1.6493,1.6402,1.5957,1.4781,1.4611,1.4095,0.0,1.3976,1.4896,1.5121,1.6156,1.7055,1.7632,1.7808,1.7902,1.7875,1.7889,1.7781,1.752,1.8171,1.8497,1.8513,1.9092,1.953,1.9782,1.9711,1.9708,1.9708,1.9708,1.9708,1.9708,1.9708,1.9708,1.9708,1.9708,1.9708,1.9708,1.9708,1.9848,2.0008,0.0,0.0,0.0,0.0,0.0,0.0,0.0,0.0,0.0,0.0,0.0,0.0,0.0,0.0,0.0,0.0,1.0621,1.1378,1.2997,1.4446,1.5797,1.7055,1.944,2.0741,2.0741,2.1336,2.2055,2.2888,2.2475,2.3015,2.4394,2.4674,2.532,2.6261,2.6983,2.7387,2.7531,2.7751,2.7666,2.7297,2.6398,2.5107,2.3521,2.1606,2.0168,1.8983,0.0,1.7213,1.7044,1.634,1.609,1.6168,1.673,1.6879,1.6749,1.6245,1.6233,1.6428,1.6789,1.756,1.827,1.8313,1.885,1.9346,1.9346,1.9543,1.9708,1.9708,1.9346,1.8874,1.8335,1.7703,1.7167,1.6974,1.6797,1.6598,1.6428,1.6388,1.5944,1.4729,1.4598,0.0,0.0,0.0,0.0,1.4711,1.6013,1.706,1.7659,1.7821,1.7902,1.7902,1.7902,1.7867,1.7767,1.826,1.8498,1.8511,1.917,1.9581,1.9797,1.978,1.9744,1.9708,1.9708,1.9708,1.9708,1.9708,1.9708,1.9708,1.9708,1.9708,1.9708,1.9744,2.0013,2.0292,0.0,0.0,0.0,0.0,0.0,0.0,0.0,0.0,0.0,0.0,0.0,0.0,0.0,0.0,0.0,0.0,0.0,1.1114,1.2306,1.3444,1.4462,1.5314,1.7435,1.8576,1.8487,1.9205,1.9946,2.0672,2.0434,2.0959,2.2178,2.2474,2.3039,2.3866,2.4798,2.5296,2.5432,2.5665,2.5321,2.4581,2.3897,2.2467,2.0634,1.9301,1.8268,0.0,1.5119,1.4964,1.5649,1.4973,1.4999,1.5359,1.5664,1.5686,1.5654,1.5832,1.6233,1.6755,1.7357,1.8173,1.8867,1.9019,1.9375,1.9708,1.9708,1.9513,1.9348,1.9348,1.8807,1.8208,1.7792,1.7085,1.6577,1.6483,1.6248,1.6075,1.6075,1.6075,1.5787,1.5003,1.4912,1.4803,0.0,0.0,0.0,1.5108,1.6052,1.6913,1.7563,1.7666,1.7767,1.7902,1.7902,1.7902,1.7902,1.8155,1.8417,1.864,1.9221,1.9603,1.9797,1.9797,1.9762,1.9708,1.9708,1.9708,1.9708,1.9708,1.9708,1.9708,1.9708,1.9708,1.9711,1.9925,2.0191,2.0464,0.0,0.0,0.0,0.0,0.0,0.0,0.0,0.0,0.0,0.0,0.0,0.0,0.0,0.0,0.0,0.0,0.0,0.0,1.1676,1.2374,1.3067,1.3799,1.509,1.5691,1.5482,1.64,1.681,1.6641,1.814,1.8923,1.8991,2.0184,2.077,2.0808,2.1496,2.2014,2.2369,2.2375,2.1887,2.1098,2.0898,1.9439,1.7336,1.7282,1.6743,1.5803,1.3842,1.3774,1.4529,1.4028,1.4594,1.5389,1.4827,1.495,1.5457,1.6039,1.6399,1.688,1.8167,1.8626,1.8897,1.9543,1.9708,1.9693,1.9663,1.9151,1.8687,1.8657,1.8117,1.7507,1.7074,1.6727,1.6382,1.5996,1.5692,1.55,1.5539,1.5565,1.5584,0.0,0.0,0.0,0.0,0.0,0.0,1.6169,0.0,1.6646,1.7393,1.7427,1.757,1.7882,1.7902,1.7902,1.7902,1.7902,1.824,1.8912,1.9295,1.9603,1.9797,1.9797,1.9762,1.9708,1.9708,1.9708,1.9708,1.9708,1.9708,1.9708,1.9708,1.9708,1.9747,2.0141,2.0398,2.0497,0.0,0.0,0.0,0.0,0.0,0.0,0.0,0.0,0.0,0.0,0.0,0.0,0.0,0.0,0.0,0.0,0.0,0.0,1.0749,1.1571,1.1919,1.1627,1.346,1.4223,1.3671,1.4818,1.5578,1.5882,1.5938,1.6386,1.7164,1.7227,1.7515,1.7971,1.8691,1.9093,1.9191,1.945,1.9102,1.8339,1.7591,1.6515,1.5242,1.4231,1.3971,1.3958,1.2806,1.3278,1.4351,1.3679,1.4308,1.5314,1.5169,1.5517,1.6025,1.6327,1.7173,1.8096,1.8525,1.9026,1.9498,1.9663,1.9708,1.9573,1.9076,1.8822,1.8568,1.8057,1.7381,1.6871,1.6793,1.5862,1.5377,1.6218,1.5863,0.0,1.612,1.6506,0.0,1.5591,1.5892,1.5924,1.5301,1.5466,0.0,0.0,1.6515,1.6985,1.7727,1.7767,1.7808,1.7902,1.7902,1.7902,1.7902,1.7902,1.8293,1.9049,1.9143,1.9472,1.9937,1.9937,1.9866,1.9708,1.9708,1.9708,1.9708,1.9708,1.9708,1.9708,1.9708,1.9726,1.9797,2.001,2.0447,2.0894,0.0,0.0,0.0,0.0,0.0,0.0,0.0,0.0,0.0,0.0,0.0,0.0,0.0,0.0,0.0,0.0,0.0,0.0,0.0,1.1018,1.1146,1.0767,1.1917,1.2331,1.1866,1.2705,1.3234,1.3407,1.3585,1.3981,1.4567,1.4649,1.4866,1.5222,1.5927,1.6229,1.6262,1.6458,1.5954,0.0,0.0,1.3943,1.2841,1.2789,1.2851,1.2878,1.2264,1.2843,1.3894,1.411,1.4674,1.5341,1.5602,1.5967,1.6423,1.7091,1.8089,1.9007,1.9063,1.9594,2.0064,1.9783,1.9708,1.9528,1.8852,1.8444,1.8039,1.7399,1.6649,1.6143,1.6203,1.5319,1.4834,1.5544,1.5353,1.5317,1.5918,1.6493,1.6702,1.6284,1.6351,1.6325,1.6016,1.6139,1.6405,0.0,1.6717,1.69,1.7645,1.7686,1.7747,1.7902,1.7902,1.7902,1.7902,1.7902,1.8293,1.9101,1.9101,1.9435,2.0028,2.0028,1.9922,1.9744,0.0,1.9726,1.9708,1.9708,1.9708,1.9708,1.9708,1.9744,1.9833,2.0115,2.0598,2.107,0.0,0.0,0.0,0.0,0.0,0.0,0.0,0.0,0.0,0.0,0.0,0.0,0.0,0.0,0.0,0.0,0.0,0.0,0.0,0.0,1.0668,1.0681,1.0693,1.0621,1.0437,1.0717,1.0765,1.0572,1.1474,1.1903,1.1892,1.2448,1.2699,1.2728,1.3319,1.3629,1.3714,1.3728,1.3092,1.2118,1.2643,1.1974,1.0831,0.0,1.2533,1.2223,1.2171,1.2693,1.3639,1.4862,1.5298,1.5414,1.6024,1.6349,1.678,1.7966,1.8989,1.9697,1.9641,2.0158,2.0539,1.9872,1.9633,1.9393,1.8732,1.7993,1.7305,1.6696,1.5995,1.5536,1.561,1.5058,1.4639,1.4723,1.4668,1.4833,1.5513,1.6062,1.6598,1.7133,1.6799,1.6501,1.6529,1.6671,1.6991,1.7572,1.6744,1.6607,1.7533,1.7508,1.7631,1.8011,1.8024,1.8024,1.8024,1.8024,1.8377,1.9101,1.9101,1.9439,2.01,2.01,1.9993,1.9797,0.0,0.0,1.9708,1.9726,1.9744,1.9744,1.9744,1.978,1.9887,2.0309,2.0747,2.1134,0.0,0.0,0.0,0.0,0.0,0.0,0.0,0.0,0.0,0.0,1.062,1.0621,0.0,0.0,0.0,0.0,0.0,0.0,0.0,0.0,0.0,1.0621,1.0668,1.0668,1.0644,1.0693,1.0632,1.0424,1.0778,1.0855,1.0708,1.1024,1.119,1.119,1.1362,1.172,1.2192,1.2244,1.2145,1.1949,1.2112,1.1712,1.1039,1.1331,0.0,0.0,1.2525,1.3685,1.4742,1.5106,1.5253,1.5414,1.6024,1.6671,1.7384,1.8217,1.9372,2.0247,1.9803,2.018,2.0539,1.9872,1.9271,1.8702,1.8027,1.7306,1.662,1.6069,1.5713,1.5551,1.5741,1.5134,1.4778,1.5345,1.4958,1.4977,1.6094,1.6323,1.6598,1.7133,1.6799,1.6547,1.6656,1.5922,0.0,0.0,0.0,1.6545,1.8448,1.8078,1.8058,1.8622,1.8636,1.8636,1.8636,1.8636,1.8808,1.9101,1.9101,1.9439,2.01,2.01,1.9993,1.9797,0.0,0.0,1.978,1.9902,1.9937,1.9937,1.9937,1.999,2.0063,2.0135,2.0631,2.1182,0.0,0.0,0.0,0.0,0.0,0.0,0.0,1.0765,1.0693,1.0693,1.0668,1.0656,1.0693,1.0632,1.0621,0.0,0.0,0.0,0.0,0.0,0.0,0.0,1.0668,1.0693,1.0693,1.1017,1.1116,1.1014,0.0,1.1116,1.1027,1.0829,1.0741,1.0741,1.0777,1.0978,1.1303,1.1657,1.1833,1.1897,1.1935,1.1792,1.1535,0.0,0.0,0.0,1.2723,1.3686,1.4539,1.4957,1.5148,1.5369,1.607,1.6838,1.7598,1.8347,1.9533,2.0467,1.9869,2.0183,2.0539,1.9872,1.9196,1.8506,1.7848,1.7095,1.6395,1.5802,1.5566,1.5477,1.5624,1.5195,1.4866,1.5049,1.4935,1.5056,1.5819,1.6192,1.6517,1.6799,1.6629,1.6522,1.6582,1.6287,1.6591,0.0,0.0,1.709,1.8275,1.8065,1.8024,1.831,1.8636,1.8806,1.8806,1.9017,1.9276,1.9575,1.9453,1.969,2.0202,2.0202,2.0115,1.9957,2.0028,0.0,1.9902,1.997,2.0005,2.0005,2.0005,2.0043,2.01,2.01,2.0614,2.1245,0.0,0.0,0.0,0.0,0.0,0.0,0.0,1.0911,1.0882,1.0882,1.0882,1.0882,1.0882,1.0774,1.0693,0.0,0.0,0.0,0.0,0.0,0.0,0.0,0.0,0.0,0.0,0.0,0.0,1.16,1.1465,0.0,0.0,0.0,0.0,0.0,1.076,1.0879,1.1213,1.1567,1.1781,0.0,0.0,1.1948,0.0,0.0,0.0,0.0,0.0,1.3672,1.4281,1.4795,1.5087,1.531,1.5956,1.6664,1.7392,1.814,1.934,2.0322,1.9839,2.0183,2.0539,1.9872,1.9091,1.8341,1.7833,1.6975,1.6157,1.5699,1.5492,1.5433,1.5477,1.524,1.4937,1.4721,1.4752,1.4936,1.5336,1.5865,1.6262,1.6464,1.6502,1.6563,1.6676,1.6721,0.0,0.0,0.0,0.0,1.7982,1.7894,1.8036,1.8438,1.8714,1.8889,1.8989,1.9169,1.9448,1.9802,1.9653,1.9833,2.0304,2.0304,2.022,2.01,2.0133,0.0,0.0,2.0058,2.0061,2.0061,2.0061,2.0096,2.015,2.015,2.063,2.1292,0.0,0.0,0.0,0.0,0.0,0.0,0.0,1.1179,1.1519,1.1519,1.1519,1.1519,1.1519,1.103,1.0693,0.0,0.0,0.0,0.0,0.0,0.0,0.0,0.0,0.0,0.0,0.0,0.0,1.16,1.1058,0.0,0.0,0.0,0.0,0.0,0.0,1.1354,1.2416,1.1963,0.0,0.0,0.0,0.0,0.0,0.0,0.0,0.0,0.0,1.4249,1.4817,1.4889,1.504,1.5222,1.537,1.5866,1.6555,1.728,1.8517,1.9616,1.9687,2.0183,2.0539,1.9872,1.8747,1.7788,1.7697,1.6603,1.5581,1.561,1.5551,1.5477,1.5492,1.527,1.5058,1.4968,1.4511,1.4379,1.4975,1.5359,1.58,1.6329,1.6457,1.6722,1.7252,1.6456,0.0,0.0,0.0,0.0,0.0,1.7861,1.844,2.021,1.9425,1.9185,1.9605,1.9113,1.8974,1.9188,1.9168,1.9563,2.0304,2.0304,2.022,2.01,0.0,0.0,0.0,2.0218,2.027,2.027,2.027,2.027,2.0287,2.0287,2.0697,2.1261,0.0,0.0,0.0,0.0,0.0,0.0,1.0956,1.108,1.1145,1.107,1.112,1.1157,1.112,1.0889,1.0741,1.0693,0.0,0.0,0.0,0.0,0.0,0.0,0.0,0.0,0.0,0.0,1.1356,1.16,1.1356,0.0,0.0,0.0,0.0,0.0,0.0,0.0,1.1591,1.174,0.0,0.0,0.0,0.0,0.0,0.0,0.0,0.0,0.0,0.0,1.4886,1.4855,1.4994,1.512,1.4657,1.5033,1.5806,1.6669,1.7872,1.8927,1.9056,1.9585,1.9929,1.9271,1.8386,1.7593,1.7189,1.6277,1.5507,1.5536,1.5522,1.5477,1.5448,1.5389,1.521,1.4814,1.4517,1.4447,1.4712,1.5194,1.56,1.5893,1.6504,1.6896,0.0,0.0,0.0,0.0,0.0,0.0,0.0,1.883,1.9039,1.9469,1.9436,1.9517,1.97,1.958,1.9778,2.0233,1.9953,2.0205,2.0888,2.0472,2.027,2.022,0.0,0.0,0.0,2.0287,2.0304,2.0304,2.0304,2.0304,2.0304,2.0304,2.0713,2.1292,0.0,0.0,0.0,0.0,0.0,1.1192,1.105,1.1097,1.1098,1.1038,1.1061,1.1099,1.1061,1.0886,1.0741,1.0693,1.0693,0.0,0.0,0.0,0.0,0.0,0.0,0.0,0.0,0.0,1.1424,1.16,1.16,1.16,0.0,0.0,0.0,0.0,0.0,0.0,0.0,0.0,0.0,0.0,0.0,0.0,0.0,0.0,0.0,0.0,0.0,0.0,0.0,0.0,0.0,1.5106,1.4527,1.4743,1.5325,1.6021,1.7012,1.7958,1.8274,1.873,1.9001,1.8506,1.7891,1.7263,1.6801,1.6084,1.5492,1.5492,1.5522,1.5492,1.5418,1.5463,1.5389,1.4907,1.4658,1.4609,1.4816,1.5217,1.5581,1.5767,0.0,1.7135,0.0,0.0,0.0,0.0,0.0,0.0,0.0,1.9701,1.9673,1.9084,1.9346,1.9458,1.9429,1.971,2.0056,2.0442,2.0411,2.0612,2.098,2.052,2.0304,2.0304,0.0,0.0,0.0,2.0304,2.0356,2.0458,2.0458,2.051,2.0611,2.0611,2.0893,2.1307,0.0,0.0,0.0,0.0,0.0,0.0,1.0932,1.1358,1.1717,1.1781,1.1678,1.1626,1.1678,1.1095,1.0693,1.0693,1.0693,0.0,0.0,0.0,0.0,0.0,0.0,0.0,0.0,0.0,1.1003,1.16,1.16,1.16,1.16,1.1587,1.1626,1.1664,0.0,0.0,0.0,0.0,0.0,0.0,0.0,0.0,0.0,0.0,0.0,0.0,0.0,0.0,0.0,0.0,0.0,0.0,0.0,1.5193,1.5208,1.5284,1.5841,1.6607,1.7388,1.7665,1.7712,1.7697,1.7157,1.6619,1.6681,1.6084,1.5492,1.5492,1.5551,1.5566,1.5418,1.5507,1.5551,1.5404,1.4937,1.4786,1.5324,1.5448,1.5671,0.0,0.0,1.7389,1.7842,0.0,0.0,0.0,0.0,0.0,0.0,2.0206,2.0247,1.9714,1.9243,1.895,1.8799,1.9279,1.9392,1.913,2.0198,2.0558,2.032,2.0304,2.0304,0.0,0.0,0.0,0.0,2.0304,2.0509,2.0794,2.0794,2.1007,2.1292,2.1292,2.1276,2.1354,0.0,0.0,0.0,0.0,0.0,0.0,0.0,1.1146,1.126,1.1187,1.1235,1.1247,1.1223,1.0997,1.0837,1.0837,1.0741,0.0,0.0,0.0,0.0,0.0,0.0,0.0,0.0,0.0,1.1003,1.16,1.1639,1.1857,1.2211,1.1883,1.1717,1.169,1.1124,0.0,0.0,0.0,0.0,0.0,0.0,0.0,0.0,0.0,0.0,0.0,0.0,0.0,0.0,0.0,0.0,0.0,0.0,0.0,0.0,1.5298,1.5748,1.6348,1.673,1.713,1.7331,1.6906,1.6672,1.6408,1.598,1.5728,1.558,1.558,1.5595,1.5595,1.5551,1.558,1.5551,1.5359,1.5274,1.5206,1.5199,1.5721,0.0,1.6818,1.7765,1.857,0.0,0.0,0.0,0.0,0.0,0.0,0.0,2.0206,2.0247,1.9714,1.9553,1.9256,1.8799,1.882,1.9125,1.9793,1.9942,2.0361,2.0965,2.052,0.0,0.0,0.0,0.0,0.0,2.0304,2.0494,2.0794,2.0794,2.1007,2.1308,2.1308,2.1756,2.2417,0.0,0.0,0.0,0.0,0.0,0.0,0.0,1.1062,1.1038,1.0979,1.0991,1.1015,1.0991,1.092,1.0861,1.0861,1.0753,0.0,0.0,0.0,0.0,0.0,0.0,0.0,1.0729,1.0753,1.1078,1.1678,1.195,1.2252,1.2607,1.2554,1.225,1.1755,1.1432,1.119,0.0,0.0,0.0,0.0,0.0,0.0,1.3135,0.0,0.0,0.0,0.0,0.0,0.0,0.0,0.0,0.0,0.0,0.0,0.0,0.0,1.5543,1.5862,1.6035,1.6327,1.6499,1.612,1.6049,1.5962,1.558,1.5536,1.558,1.5595,1.5639,1.5653,1.558,1.5624,1.561,1.5404,1.5462,1.5543,1.5592,0.0,0.0,1.7447,0.0,0.0,0.0,0.0,0.0,0.0,0.0,0.0,0.0,0.0,2.0355,2.0003,1.9989,1.9727,1.9152,1.919,1.9424,1.9841,1.9864,2.0139,2.0673,2.0261,0.0,0.0,0.0,0.0,0.0,2.0304,2.0578,2.099,2.099,2.1277,2.1676,2.1676,2.2017,2.2539,0.0,0.0,0.0,0.0,0.0,0.0,0.0,1.1097,1.1038,1.1097,1.0991,1.0932,1.0991,1.0885,1.0801,1.0801,0.0,0.0,0.0,0.0,0.0,0.0,0.0,0.0,1.0801,1.0861,1.1214,1.1863,1.2443,1.2775,1.2913,1.3469,1.3108,1.201,1.1994,1.171,1.1237,1.1237,1.1237,1.1336,1.2559,1.3093,0.0,0.0,0.0,0.0,0.0,0.0,0.0,0.0,0.0,0.0,0.0,0.0,0.0,0.0,0.0,0.0,0.0,1.5389,1.5374,1.5389,1.5344,1.5328,1.5477,1.5507,0.0,1.5595,1.5712,1.5756,1.561,1.5698,1.5741,1.561,1.563,1.5828,1.634,1.6506,0.0,0.0,1.9027,0.0,0.0,0.0,0.0,0.0,0.0,0.0,0.0,0.0,2.0495,2.0495,2.0495,2.022,1.9646,2.0045,1.9922,1.934,1.9789,1.9897,1.9708,1.9708,0.0,0.0,0.0,0.0,0.0,2.0321,2.0696,2.1276,2.1323,2.1721,2.2268,2.2296,2.2159,2.2136,0.0,0.0,0.0,0.0,0.0,0.0,0.0,0.0,0.0,0.0,1.1097,1.105,1.1062,1.0991,1.0944,0.0,0.0,0.0,0.0,0.0,0.0,0.0,0.0,0.0,1.0873,1.0885,1.1421,1.2485,1.2774,1.3289,1.3944,1.3932,1.3639,1.3103,1.2858,1.2672,1.2545,1.2545,1.2545,1.2616,1.3333,1.3685,0.0,0.0,0.0,0.0,1.5208,1.5238,0.0,0.0,0.0,0.0,0.0,0.0,0.0,0.0,1.5298,1.5283,1.5313,0.0,1.5119,1.5298,1.5344,1.5403,0.0,1.5624,1.5741,1.5755,1.5784,1.5919,1.6338,1.5995,1.5817,1.6337,1.6303,1.626,1.6448,0.0,0.0,1.8114,0.0,0.0,0.0,0.0,0.0,0.0,0.0,0.0,0.0,0.0,2.0495,2.0495,2.0495,2.0017,1.9016,1.8666,1.8554,1.8706,1.8823,1.916,1.9708,1.9708,0.0,0.0,0.0,0.0,2.0321,2.0578,2.0778,2.0958,2.1478,2.1766,2.1945,2.2209,2.296,2.3909,0.0,0.0,0.0,0.0,0.0,0.0,0.0,0.0,0.0,0.0,0.0,1.1192,1.1192,1.112,0.0,0.0,0.0,0.0,0.0,0.0,0.0,0.0,0.0,1.0885,1.0991,1.1258,1.1908,1.294,1.3291,1.3837,1.4574,1.4457,1.4147,1.3662,1.3193,1.2827,1.2559,1.2868,1.3009,1.3092,1.3656,0.0,0.0,0.0,0.0,0.0,1.4935,1.4834,0.0,1.4501,1.4587,1.4834,0.0,0.0,0.0,0.0,1.5298,1.5298,1.5298,1.5394,1.5548,1.5733,1.5765,1.5797,1.5919,1.5832,1.5741,1.5784,1.5799,1.5874,1.6159,1.5993,1.596,1.6312,1.649,0.0,0.0,0.0,1.8541,1.856,0.0,0.0,0.0,0.0,0.0,0.0,0.0,0.0,0.0,0.0,2.0495,2.0495,2.0261,1.9849,1.922,1.8608,1.8419,1.865,1.8543,1.8808,1.942,1.9617,0.0,0.0,0.0,0.0,2.0304,2.0509,2.0745,2.1071,2.1432,2.1751,2.2049,2.2223,2.2818,2.3528,0.0,0.0,0.0,0.0,0.0,0.0,0.0,0.0,0.0,0.0,0.0,0.0,0.0,0.0,0.0,0.0,0.0,0.0,0.0,0.0,0.0,0.0,1.0944,1.1033,1.1249,1.1756,1.2442,1.3314,1.387,1.4393,1.4841,1.4985,1.4687,1.4022,1.3502,1.2967,1.2489,1.3051,1.3332,1.343,1.3941,0.0,0.0,0.0,0.0,0.0,0.0,0.0,0.0,1.3504,1.3749,1.4283,1.4227,0.0,0.0,0.0,0.0,0.0,1.5298,1.5787,1.6279,1.6201,1.6233,1.6279,1.6363,1.601,1.5653,1.5784,1.5799,1.5815,1.5832,1.6031,1.6191,0.0,0.0,0.0,1.7333,1.7799,1.8288,1.8736,0.0,0.0,0.0,0.0,0.0,0.0,0.0,0.0,0.0,0.0,0.0,2.0247,1.9809,1.951,1.9429,1.8921,1.8649,1.867,1.855,1.8707,1.912,1.9527,1.9922,0.0,0.0,0.0,2.0304,2.0356,2.0679,2.1166,2.1374,2.1745,2.2168,2.2329,2.2423,2.2567,0.0,0.0,0.0,0.0,0.0,0.0,0.0,0.0,0.0,0.0,0.0,0.0,0.0,0.0,0.0,0.0,0.0,0.0,0.0,0.0,0.0,1.1143,1.1143,1.1398,1.1933,1.2094,1.2693,1.3784,1.451,1.4745,1.4578,1.5358,1.5366,1.4668,1.4569,1.4502,1.4462,1.4561,1.465,1.4726,1.4811,0.0,0.0,0.0,0.0,0.0,0.0,0.0,0.0,1.341,1.3789,1.4297,1.4283,0.0,0.0,0.0,0.0,0.0,1.5298,1.6233,1.6956,1.5888,1.6082,1.644,1.5995,1.5845,1.5784,1.5799,1.5799,1.601,1.6728,1.6679,1.6689,0.0,0.0,1.6889,0.0,0.0,0.0,0.0,0.0,0.0,0.0,0.0,0.0,0.0,0.0,0.0,0.0,0.0,0.0,1.9057,1.8975,1.869,1.8187,1.8079,1.8038,1.8038,1.8355,1.8707,1.912,1.9527,1.9922,0.0,0.0,2.0304,2.0321,2.0611,2.0611,2.0573,2.1696,2.1859,2.156,2.2415,2.2939,2.3342,0.0,0.0,0.0,0.0,0.0,0.0,0.0,0.0,0.0,0.0,0.0,0.0,0.0,0.0,0.0,0.0,0.0,0.0,0.0,0.0,1.1485,1.1782,1.1832,1.1937,1.2149,1.3119,1.3912,1.4554,1.5506,1.5724,1.5252,1.5336,1.5016,1.4437,1.4764,1.475,1.4496,1.4823,1.5012,1.5118,0.0,0.0,0.0,0.0,0.0,0.0,0.0,0.0,0.0,0.0,1.2771,1.334,1.3701,0.0,0.0,0.0,0.0,0.0,1.5344,1.6137,1.6836,1.6231,1.6899,1.763,1.7414,1.7086,1.6832,1.6832,1.6832,1.6949,1.7351,1.7248,1.7146,1.7305,0.0,1.7459,0.0,0.0,0.0,0.0,0.0,0.0,0.0,0.0,0.0,0.0,0.0,0.0,0.0,0.0,0.0,0.0,1.8806,1.85,1.7916,1.7902,1.8009,1.8234,1.863,1.903,1.9435,1.9833,2.0131,2.0335,0.0,2.0626,2.0335,2.0864,2.0974,2.094,2.1956,2.2131,2.194,2.2824,2.3242,2.3511,0.0,0.0,0.0,0.0,0.0,0.0,0.0,0.0,0.0,0.0,0.0,0.0,0.0,0.0,0.0,0.0,0.0,0.0,0.0,1.1489,1.1745,1.2271,1.2508,1.2686,1.2831,1.4167,1.5076,1.547,1.6374,1.6511,1.5915,1.5214,1.4694,1.4327,1.4784,1.4756,1.4385,1.4843,1.5118,1.5222,0.0,0.0,0.0,0.0,0.0,0.0,0.0,0.0,0.0,0.0,0.0,0.0,0.0,0.0,0.0,1.495,1.5257,1.5404,1.5418,1.5994,1.6633,1.6782,1.7495,1.8212,1.8414,1.7953,1.7503,1.7669,1.7713,1.7726,1.7776,1.7663,0.0,1.7497,1.7726,0.0,0.0,0.0,0.0,0.0,0.0,0.0,0.0,0.0,0.0,0.0,0.0,0.0,0.0,0.0,0.0,0.0,1.8581,1.8364,1.7902,1.7902,1.8095,1.85,1.8898,1.9325,1.9711,2.0115,2.0304,2.0335,2.0826,2.0764,2.035,2.0841,2.11,2.1247,2.1972,2.2309,2.25,2.3161,2.3393,2.3511,0.0,0.0,0.0,0.0,0.0,0.0,0.0,0.0,0.0,0.0,0.0,0.0,0.0,0.0,0.0,0.0,0.0,0.0,0.0,1.1489,1.1745,1.2271,1.2902,1.3698,1.4691,1.4956,1.5567,1.6585,1.6781,1.6581,1.5984,1.5232,1.4905,1.4941,1.4984,1.5044,1.512,1.5163,1.5237,1.5298,1.5298,0.0,0.0,0.0,0.0,0.0,0.0,0.0,0.0,0.0,0.0,0.0,0.0,0.0,1.4326,1.4498,1.4964,1.5404,1.5477,1.6039,1.6753,1.7362,1.7187,1.6995,1.7623,1.7249,1.695,1.7563,1.7713,1.7777,1.8022,1.7908,1.7927,1.8344,1.7767,0.0,0.0,0.0,0.0,0.0,0.0,0.0,0.0,0.0,0.0,0.0,0.0,0.0,0.0,0.0,0.0,0.0,0.0,1.7943,1.7902,1.7902,1.8095,1.85,1.8898,1.9325,1.9711,2.0115,2.0304,2.0304,2.035,2.0333,2.0304,2.035,2.0573,2.089,2.157,2.2214,2.2823,2.324,2.3393,2.3511,0.0,0.0,0.0,0.0,0.0,0.0,0.0,0.0,0.0,0.0,0.0,0.0,0.0,0.0,0.0,0.0,0.0,0.0,0.0,1.1855,1.2315,1.2902,1.3549,1.4443,1.5565,1.5998,1.6472,1.6952,1.6541,1.6229,1.6049,1.5402,1.5132,1.5193,1.5193,1.5223,1.5268,1.5268,1.5283,1.5298,1.5298,1.5298,0.0,0.0,0.0,0.0,0.0,0.0,0.0,0.0,1.1649,1.1914,1.233,1.3083,1.3884,1.4363,1.5091,1.574,1.561,1.6219,1.703,1.7534,1.7487,1.7608,1.8702,1.8747,1.8642,1.8897,1.8942,1.8894,1.875,0.0,1.8611,1.8572,0.0,0.0,0.0,0.0,0.0,0.0,0.0,0.0,0.0,0.0,0.0,0.0,0.0,0.0,0.0,0.0,0.0,0.0,0.0,1.8009,1.8274,1.826,1.8611,1.9254,1.9157,1.9453,2.008,2.0235,2.0304,2.0335,2.0734,2.0919,2.0936,2.115,2.1426,2.1761,2.2015,2.2554,2.3197,2.3348,2.3393,2.3427,0.0,0.0,0.0,0.0,0.0,0.0,0.0,0.0,0.0,0.0,0.0,0.0,0.0,0.0,0.0,0.0,0.0,0.0,1.1489,1.2062,1.2677,1.3302,1.3936,1.4862,1.6036,1.6465,1.6795,1.7041,1.6346,1.5963,1.5841,1.5394,1.5237,1.5298,1.5298,1.5298,1.5298,1.5298,1.5298,1.5298,1.5298,1.5298,0.0,0.0,0.0,0.0,0.0,0.0,0.0,0.0,1.1537,1.161,1.2068,1.281,1.364,1.4108,1.5025,1.584,1.5697,1.6172,1.6849,1.7537,1.7713,1.8057,1.939,1.9543,1.9435,1.9663,1.9708,1.9636,1.938,1.9217,0.0,0.0,0.0,0.0,0.0,0.0,0.0,0.0,0.0,0.0,0.0,0.0,0.0,0.0,0.0,0.0,0.0,0.0,0.0,0.0,0.0,1.8234,1.85,1.863,1.903,1.9708,1.9417,1.9639,2.0304,2.0304,2.0304,2.0335,2.078,2.098,2.1016,2.1351,2.1743,2.2148,2.2264,2.2615,2.3088,2.3308,2.3241,2.3122,0.0,0.0,0.0,0.0,0.0,0.0,0.0,0.0,0.0,0.0,0.0,0.0,0.0,0.0,0.0,0.0,0.0,0.0,1.1489,1.2076,1.2715,1.3365,1.3977,1.4892,1.6153,1.6198,1.642,1.6895,1.6284,1.5765,1.5298,1.5237,1.5237,1.5298,1.5298,1.5298,1.5298,1.5298,1.5298,1.5298,1.5298,1.5298,1.5225,0.0,0.0,0.0,0.0,0.0,0.0,0.0,1.1604,1.1604,1.1593,1.2515,1.3616,1.368,1.46,1.5639,1.577,1.5814,1.6128,1.7385,1.7697,1.8072,1.9408,1.9181,1.8897,1.9573,1.9708,1.9726,1.978,1.946,0.0,0.0,0.0,0.0,0.0,0.0,0.0,0.0,0.0,0.0,0.0,0.0,0.0,0.0,0.0,0.0,0.0,0.0,0.0,0.0,0.0,0.0,1.85,1.8898,1.9306,1.9708,1.9708,1.9904,2.0304,2.0304,2.0304,2.0304,2.0304,2.0304,2.0337,2.0677,2.1198,2.1842,2.2166,2.2296,2.2381,2.3122,2.2936,2.2513,0.0,0.0,0.0,0.0,0.0,0.0,0.0,0.0,0.0,0.0,0.0,0.0,0.0,0.0,0.0,0.0,0.0,0.0,1.15,1.2507,1.319,1.3393,1.4427,1.5182,1.5559,1.5559,1.5848,1.6405,1.5799,1.5426,1.5298,1.5283,1.5283,1.5298,1.5298,1.5298,1.5313,1.5344,1.5374,1.5374,1.5418,1.5433,1.5418,0.0,0.0,0.0,0.0,0.0,0.0,0.0,0.0,0.0,1.1659,1.2688,1.3878,1.3795,1.4909,1.6123,1.587,1.6593,1.747,1.7641,1.8401,1.9211,1.9618,1.9558,1.9468,1.9663,1.9708,1.9726,1.978,1.9708,0.0,0.0,0.0,0.0,0.0,0.0,0.0,0.0,0.0,0.0,0.0,0.0,0.0,0.0,0.0,0.0,0.0,0.0,0.0,0.0,0.0,0.0,1.8917,1.931,1.9711,2.0115,2.0115,2.0168,2.0304,2.0304,2.0304,2.0304,2.0304,2.0582,2.1049,2.1624,2.1825,2.1842,2.2166,2.2296,2.233,2.2547,2.2606,2.2607,0.0,0.0,0.0,0.0,0.0,0.0,0.0,0.0,0.0,0.0,1.2029,1.1891,0.0,0.0,0.0,0.0,0.0,0.0,0.0,1.2743,1.3472,1.3394,1.4616,1.5298,1.5298,1.5298,1.5472,1.5834,1.5472,1.5298,1.5298,1.5298,1.5313,1.5343,1.5343,1.5358,1.5388,1.5418,1.5433,1.5433,1.5477,1.5492,1.5492,0.0,0.0,0.0,0.0,0.0,0.0,0.0,0.0,0.0,1.2037,1.2959,1.3963,1.4135,1.5121,1.6109,1.587,1.6653,1.7574,1.7671,1.8506,1.9361,1.9648,1.9708,1.9708,1.9726,1.9726,1.9744,1.9887,1.9887,0.0,0.0,0.0,0.0,0.0,0.0,0.0,0.0,0.0,0.0,0.0,0.0,0.0,0.0,0.0,0.0,0.0,0.0,0.0,0.0,0.0,0.0,1.9343,1.9744,2.0063,2.0304,2.0304,2.0304,2.0304,2.0304,2.0304,2.0304,2.0441,2.0726,2.1151,2.1811,2.1979,2.1842,2.2166,2.2296,2.2296,2.2296,2.2474,2.2659,0.0,0.0,1.2505,1.2505,0.0,0.0,0.0,0.0,0.0,0.0,1.2236,1.2086,0.0,0.0,0.0,1.1725,1.1725,1.1663,1.15,1.2827,1.3534,1.3407,1.4616,1.5298,1.5298,1.5298,1.5298,1.5298,1.5298,1.5298,1.5298,1.5313,1.5343,1.5404,1.5404,1.5404,1.5419,1.5418,1.5433,1.5433,1.5418,1.5477,1.5536,1.5536,0.0,0.0,0.0,0.0,0.0,0.0,0.0,0.0,1.2677,1.335,1.3993,1.4654,1.5329,1.5856,1.5827,1.6308,1.695,1.7548,1.8252,1.8957,1.9573,1.9708,1.9726,1.978,1.9744,1.9797,2.0048,2.0061,0.0,0.0,0.0,0.0,0.0,0.0,0.0,0.0,0.0,0.0,0.0,0.0,0.0,0.0,0.0,0.0,0.0,0.0,0.0,0.0,0.0,0.0,1.9708,2.0098,2.0304,0.0,2.0304,2.0304,2.0304,2.0304,2.0304,2.0321,2.0611,2.0761,2.0811,2.1479,2.1751,2.1781,2.2166,2.2296,2.2296,2.2296,2.2487,2.2699,0.0,0.0,1.2505,1.2505,0.0,0.0,0.0,0.0,0.0,0.0,0.0,0.0,0.0,1.2138,0.0,1.1949,1.1949,1.182,1.1526,1.2827,1.3534,1.3407,1.4616,1.5298,1.5298,1.5298,1.5298,1.5298,1.5298,1.5298,1.5298,1.5344,1.5403,1.5404,1.5463,1.5183,1.4713,1.484,1.4867,1.4881,1.4923,1.5264,1.5741,1.5741,1.5248,0.0,0.0,0.0,0.0,0.0,0.0,0.0,1.3443,1.4036,1.4404,1.5074,1.5745,1.6234,1.6081,1.6729,1.7518,1.7652,1.8612,1.9528,1.9678,1.9744,1.978,1.9797,1.978,1.9833,2.0048,0.0,0.0,0.0,0.0,0.0,0.0,0.0,0.0,0.0,0.0,0.0,0.0,0.0,0.0,0.0,0.0,0.0,0.0,0.0,0.0,0.0,0.0,1.9708,1.9708,2.0098,2.0304,0.0,2.0304,2.0304,2.0304,2.0304,2.0304,2.0304,2.039,2.0407,2.046,2.1135,2.1416,2.1462,2.2063,2.2296,2.2296,2.2296,2.2588,2.2973,0.0,0.0,0.0,0.0,0.0,0.0,0.0,0.0,0.0,0.0,0.0,0.0,0.0,1.2226,0.0,0.0,1.1902,1.1751,1.1526,1.2827,1.3826,1.4337,1.4979,1.5359,1.5403,1.5403,1.5403,1.5403,1.5403,1.5388,1.5344,1.5418,1.5463,1.5492,1.5536,1.521,1.466,1.4714,1.4563,1.4266,1.4305,1.4707,1.532,1.532,1.5095,1.4868,1.5401,0.0,0.0,0.0,0.0,0.0,0.0,0.0,1.4888,1.5684,1.6153,1.6355,1.6191,1.7,1.801,1.8525,1.9251,1.983,1.9762,1.9815,1.9902,1.994,1.9919,1.9955,0.0,0.0,0.0,0.0,0.0,0.0,0.0,0.0,0.0,0.0,0.0,0.0,0.0,0.0,0.0,0.0,0.0,0.0,0.0,0.0,0.0,0.0,1.9887,1.9993,1.9993,2.02,2.0304,2.0304,2.0304,2.0304,2.0304,2.0304,2.0304,2.0304,2.046,2.0544,2.0595,2.1261,2.1539,2.1584,2.2092,2.2296,2.2296,2.2296,2.2642,2.3072,0.0,0.0,0.0,0.0,0.0,0.0,0.0,0.0,0.0,0.0,0.0,0.0,0.0,1.2257,1.2023,0.0,0.0,0.0,1.1545,1.2814,1.4108,1.5345,1.5404,1.5433,1.5492,1.5492,1.5492,1.5492,1.5507,1.5477,1.5433,1.5477,1.5551,1.5595,1.5624,1.5325,1.4796,1.4691,1.4318,1.3797,1.3797,1.4199,1.4811,1.4931,1.4975,1.5063,1.5827,1.5325,1.4341,1.4654,0.0,0.0,0.0,0.0,1.5407,1.6352,1.6557,1.645,1.6353,1.7206,1.837,1.9331,1.9793,1.997,1.9866,1.9937,2.0025,2.0098,2.0061,0.0,0.0,0.0,0.0,0.0,0.0,0.0,0.0,0.0,0.0,0.0,0.0,0.0,0.0,0.0,0.0,0.0,0.0,0.0,0.0,0.0,1.9957,2.0287,2.0304,2.0304,2.0304,2.0304,2.0304,2.0304,2.0304,2.0304,2.0304,2.0304,2.0304,2.0321,2.0645,2.0794,2.086,2.1525,2.1812,2.1842,2.2166,2.2296,2.2296,2.2296,2.2642,2.3072,0.0,0.0,0.0,0.0,0.0,0.0,0.0,0.0,0.0,0.0,1.269,1.2668,0.0,1.2287,1.2107,1.2174,1.1876,1.1692,1.167,0.0,0.0,1.5345,1.5404,1.5433,1.5492,1.5492,1.5492,1.5492,1.5566,1.558,1.558,1.558,1.5595,1.561,1.5726,1.5411,1.4766,1.4184,1.3872,1.3797,1.3797,1.4199,1.4871,1.5454,1.5664,1.5707,1.5995,1.5683,1.5251,1.5915,1.5449,0.0,0.0,0.0,1.589,1.6822,1.6953,1.6751,1.6799,1.752,1.8407,1.896,1.9563,2.0005,1.9988,2.0028,2.0098,0.0,2.0083,0.0,0.0,0.0,0.0,0.0,0.0,0.0,0.0,0.0,0.0,0.0,0.0,0.0,0.0,0.0,0.0,0.0,0.0,0.0,0.0,2.0252,2.0252,2.0304,2.0304,2.0304,2.0304,2.0304,2.0304,2.0304,2.0304,2.0304,2.0304,2.0304,2.0304,2.0321,2.0645,2.0794,2.086,2.1525,2.1812,2.1842,2.2166,2.2296,2.2296,2.2296,2.2642,2.3091,0.0,0.0,0.0,0.0,0.0,0.0,0.0,0.0,0.0,0.0,0.0,1.2719,0.0,1.2479,1.2308,1.2363,1.2107,1.2057,1.2351,1.2838,1.3772,1.5224,1.5284,1.545,1.5826,1.5465,1.5465,1.5841,1.5493,1.5562,1.6038,1.6038,1.5941,1.5712,1.577,1.548,1.4955,1.4652,1.4379,1.4123,1.4001,1.4361,1.4987,1.518,1.5567,1.6038,1.6122,1.6138,1.6133,1.6085,1.5987,1.5923,1.6257,0.0,0.0,0.0,1.7207,1.7106,1.7255,1.7847,1.8517,1.8904,1.959,2.0148,2.0063,2.0133,2.0202,2.0202,0.0,0.0,0.0,0.0,0.0,0.0,0.0,0.0,0.0,0.0,0.0,0.0,0.0,0.0,0.0,0.0,0.0,0.0,0.0,0.0,2.0304,2.0304,2.0304,2.0304,2.0304,2.0304,2.0304,2.0304,2.0304,2.0304,2.0304,2.0304,2.0304,2.0477,2.0578,2.0578,2.0728,2.1007,2.1386,2.1676,2.1901,2.2092,2.2237,2.2296,2.2296,2.2296,2.2642,2.3091,0.0,0.0,0.0,0.0,0.0,0.0,0.0,0.0,0.0,0.0,0.0,0.0,0.0,0.0,0.0,0.0,1.2257,1.2312,1.2863,1.292,1.3518,1.486,1.4947,1.5149,1.563,1.5139,1.5229,1.5904,1.5395,1.5582,1.6412,1.6412,1.6248,1.5983,1.5983,1.5764,1.5411,1.5268,1.4959,1.4564,1.4406,1.4666,1.5128,1.5152,1.5623,1.6299,1.6285,1.6499,1.6748,1.6227,1.6436,1.6862,1.6515,1.6686,0.0,0.0,0.0,1.7473,1.761,1.8106,1.8638,1.8904,1.9584,2.0225,2.0277,0.0,2.0443,0.0,0.0,0.0,0.0,0.0,0.0,0.0,0.0,0.0,0.0,0.0,0.0,0.0,0.0,0.0,0.0,0.0,0.0,0.0,0.0,0.0,2.0304,2.0304,2.0304,2.0304,2.0304,2.0304,2.0304,2.0304,2.0304,2.0304,2.0304,2.0304,2.0304,2.0645,2.0844,2.0926,2.1007,2.134,2.1812,2.1886,2.2063,2.2313,2.2513,2.2581,2.2581,2.2581,2.2921,2.3342,0.0,0.0,0.0,0.0,0.0,0.0,0.0,0.0,0.0,0.0,0.0,0.0,1.3756,1.3569,1.321,1.2629,1.2226,1.2253,1.2863,1.2959,1.3336,1.4121,1.4215,0.0,1.4388,1.4357,1.468,1.5345,1.5298,1.5669,1.6412,1.6412,1.6423,1.6461,1.6461,1.6405,1.6289,1.5709,1.5326,1.5067,1.5054,1.5108,1.5263,1.5897,1.6309,1.6567,1.6514,1.6657,1.6888,1.678,1.698,1.7265,1.7244,1.7261,1.7306,0.0,0.0,0.0,1.78,1.8284,1.8801,1.8879,1.9411,2.0066,2.0636,0.0,0.0,0.0,0.0,0.0,0.0,0.0,0.0,0.0,0.0,0.0,0.0,0.0,0.0,0.0,0.0,0.0,0.0,0.0,0.0,0.0,0.0,0.0,2.0304,2.0304,2.0304,2.0304,2.0304,2.0304,2.0304,2.0304,2.0304,2.0304,2.0304,2.0304,2.0304,2.0645,2.0974,2.1292,2.1616,2.1783,2.1827,2.2152,2.2282,2.2364,2.3071,2.3342,2.3342,2.3342,2.368,2.4042,0.0,0.0,0.0,0.0,0.0,0.0,0.0,0.0,0.0,0.0,0.0,0.0,0.0,1.3747,1.3397,1.285,1.2623,1.2568,1.2707,1.2769,1.3151,1.3934,1.3988,1.4183,1.4556,1.4133,1.4271,1.4991,1.5022,1.5455,1.6273,1.6753,1.6965,1.694,1.662,1.6554,1.663,1.6428,1.6346,1.6378,1.6231,1.6499,1.6952,1.7092,1.7622,1.8269,1.8226,0.0,0.0,0.0,0.0,1.7359,1.7359,1.7391,1.7465,1.7658,1.7845,1.7944,1.7832,1.8319,1.8829,1.8682,1.9437,2.0283,2.0483,2.0844,2.115,0.0,0.0,0.0,0.0,0.0,0.0,0.0,0.0,0.0,0.0,0.0,0.0,0.0,0.0,0.0,0.0,0.0,0.0,0.0,0.0,0.0,2.0304,2.0304,2.0304,2.0304,2.0304,2.0304,2.0304,2.0304,2.0304,2.0304,2.051,2.0611,2.0645,2.1198,2.1509,2.1646,2.1991,2.2389,2.2841,2.296,2.3274,2.3746,2.4,2.4118,2.4118,2.4118,2.4144,2.4151,0.0,0.0,0.0,0.0,0.0,0.0,0.0,0.0,0.0,1.4077,0.0,0.0,0.0,0.0,1.4133,1.3553,1.3258,1.305,1.2973,1.2806,1.2948,1.3518,1.3791,1.4102,1.446,1.4025,1.4164,1.4896,1.4951,1.5386,1.6228,1.6942,1.7273,1.7248,1.6911,1.6831,1.6937,1.6962,1.6984,1.7057,1.7435,1.7572,1.7666,1.8315,1.8741,1.8993,0.0,0.0,0.0,0.0,0.0,1.6484,1.7469,1.7669,1.7589,1.7916,1.8046,1.8117,1.8139,1.8495,1.8902,1.9065,1.9559,2.0167,2.0818,0.0,2.1257,0.0,0.0,0.0,0.0,0.0,0.0,0.0,0.0,0.0,0.0,0.0,0.0,0.0,0.0,0.0,0.0,0.0,0.0,0.0,0.0,0.0,2.0304,2.0304,2.0304,2.0304,2.0304,2.0304,2.0304,2.0304,2.0356,2.046,2.0695,2.086,2.099,2.154,2.1812,2.1827,2.2152,2.2581,2.3054,2.3291,2.3695,2.4186,2.4677,2.488,2.488,2.488,2.4731,2.4537,0.0,0.0,0.0,0.0,0.0,0.0,0.0,0.0,1.3967,1.4655,0.0,0.0,0.0,0.0,0.0,1.477,1.4116,1.3738,1.3711,1.3115,1.2796,1.2843,1.3613,1.4038,1.4038,1.4038,1.4382,1.508,1.513,1.549,1.6179,1.6877,1.7289,1.7399,1.7334,1.7273,1.7199,1.7285,1.715,1.7039,1.8485,1.827,1.7309,1.9485,1.9591,0.0,1.9332,1.9144,0.0,1.9316,0.0,0.0,1.7607,1.809,1.7692,1.8093,1.8249,1.8371,0.0,0.0,0.0,2.0009,1.9722,1.9711,2.16,0.0,2.1177,0.0,0.0,0.0,0.0,0.0,0.0,0.0,0.0,0.0,0.0,0.0,0.0,0.0,0.0,0.0,0.0,0.0,0.0,0.0,0.0,2.0321,2.0321,2.0304,2.0304,2.0304,2.0304,2.0304,2.0304,2.0304,2.046,2.0794,2.0811,2.099,2.1339,2.1661,2.1796,2.1842,2.2166,2.2296,2.2347,2.3105,2.3427,2.3613,2.505,2.5609,2.5626,2.5609,2.5472,2.5176,0.0,0.0,0.0,0.0,0.0,1.4437,1.4218,1.4319,1.4698,0.0,0.0,0.0,1.5939,1.5499,1.5077,1.4794,1.474,1.4464,1.3872,1.4261,1.4284,1.3753,1.4455,1.4891,1.4936,1.4891,1.4733,1.446,1.5521,1.5868,1.5571,1.682,1.7407,1.7399,1.7371,1.7359,1.7351,1.7359,1.7293,1.7269,1.8218,1.8687,1.8943,2.0129,0.0,0.0,0.0,2.0704,2.0108,0.0,1.9018,1.7399,1.7899,1.7975,1.7966,1.8358,1.8398,1.8371,1.8714,0.0,0.0,0.0,0.0,0.0,2.0228,2.1021,2.1628,0.0,0.0,0.0,0.0,0.0,0.0,0.0,0.0,0.0,0.0,0.0,0.0,0.0,0.0,0.0,0.0,0.0,0.0,0.0,2.0795,2.091,2.0678,2.0662,2.0544,2.0304,2.0304,2.0304,2.0304,2.0304,2.046,2.0794,2.1055,2.1339,2.1676,2.2005,2.2166,2.2166,2.2268,2.2296,2.2347,2.3105,2.4036,2.5033,2.544,2.593,2.6336,2.5812,2.5472,2.5176,0.0,0.0,1.5827,1.5438,0.0,1.5201,1.4939,1.5093,1.5411,0.0,0.0,0.0,1.6407,1.637,1.6191,1.5833,1.564,1.5321,1.4891,1.5053,1.4975,1.4584,1.5291,1.5714,1.5757,1.5714,1.5505,1.5122,1.5978,1.6171,1.5773,1.6933,1.7443,1.7431,1.7411,1.7423,1.7431,1.7431,1.7419,1.7494,1.8818,1.926,1.9277,2.0955,2.1497,0.0,0.0,0.0,2.034,2.095,2.0174,0.0,0.0,1.7665,1.8475,1.8563,1.8745,1.8911,1.8858,1.8852,1.8914,1.9263,0.0,0.0,2.053,2.1148,2.1639,0.0,0.0,0.0,0.0,0.0,0.0,0.0,0.0,0.0,0.0,0.0,0.0,0.0,0.0,0.0,0.0,0.0,0.0,2.0958,2.1166,2.1214,2.1023,2.1007,2.086,2.051,2.0509,2.0441,2.0304,2.0441,2.0678,2.1023,2.1339,2.1691,2.202,2.2209,2.2296,2.2296,2.2296,2.2296,2.233,2.2767,2.3816,2.5169,2.549,2.6048,2.6607,2.5879,2.5472,2.5176,0.0,0.0,1.6848,1.6251,1.6138,1.5959,1.545,1.5796,1.6191,0.0,1.6909,1.7273,1.7273,1.7837,1.7974,1.7362,1.6653,1.6231,1.6212,1.5682,1.5359,1.5319,1.6105,1.652,1.652,1.652,1.6486,1.6403,1.6486,1.6486,1.642,1.7084,1.7443,1.7503,1.7431,1.7443,1.7503,1.7503,1.7586,1.7901,1.9807,1.9793,0.0,0.0,2.1961,2.0901,2.1564,2.0969,2.0028,2.1251,2.0834,0.0,0.0,0.0,0.0,0.0,1.9383,1.9832,1.9299,1.9174,1.9318,1.9956,1.966,0.0,2.1465,2.1472,2.1423,0.0,0.0,0.0,0.0,0.0,0.0,0.0,0.0,0.0,0.0,0.0,0.0,0.0,0.0,0.0,0.0,2.2005,2.1827,2.1751,2.1493,2.137,2.137,2.137,2.1198,2.0876,2.0827,2.0678,2.0409,2.0662,2.099,2.137,2.1661,2.1991,2.2296,2.2296,2.2296,2.2296,2.2296,2.2296,2.2296,2.2296,2.3173,2.4558,2.522,2.593,2.6488,2.5744,2.5352,2.5067,1.6161,1.675,1.7208,1.7072,1.6995,1.7105,1.7521,1.7231,1.7378,1.8568,1.8846,1.8928,1.8928,1.8549,1.8222,1.8107,1.7502,1.6898,1.6318,1.6754,1.6767,1.6199,1.689,1.7299,1.7299,1.7299,1.6989,1.6403,1.6989,1.6984,1.642,1.7143,1.7491,1.7503,1.7491,1.7491,1.7503,1.7503,1.8153,1.9234,1.9647,1.9634,1.9568,2.1334,2.1845,2.1613,2.1763,2.163,2.1317,2.1017,2.0875,2.0655,0.0,0.0,0.0,2.0616,0.0,0.0,0.0,0.0,0.0,0.0,0.0,0.0,2.0057,2.0827,2.1551,0.0,0.0,0.0,0.0,0.0,0.0,0.0,0.0,0.0,0.0,0.0,0.0,0.0,0.0,0.0,0.0,2.2077,2.1991,2.1432,2.1601,2.1706,2.1706,2.1706,2.1555,2.1214,2.0942,2.0893,2.1103,2.0893,2.1103,2.1706,2.1766,2.1991,2.2296,2.2296,2.2296,2.2296,2.2296,2.2296,2.2296,2.2296,2.3173,2.4508,2.466,2.5169,2.5727,2.4998,2.4591,2.4309,1.6613,1.6946,1.7248,1.7248,1.7248,1.7477,1.816,1.7967,1.816,1.929,1.9778,1.9726,1.9029,1.8923,1.8628,1.7971,1.7617,1.7278,1.6926,1.7292,1.7337,1.6956,1.7299,1.7503,1.7503,1.7503,1.7332,1.6951,1.7332,1.7304,1.6967,1.7321,1.7685,1.7988,1.7652,1.7685,1.7971,1.7635,1.7917,1.8617,1.9316,0.0,2.0787,2.1531,2.1812,2.1812,2.1812,2.1812,2.1531,1.9707,2.0019,0.0,0.0,2.0278,2.1383,0.0,2.1524,2.1785,0.0,0.0,0.0,2.1079,0.0,0.0,0.0,2.0928,2.1207,0.0,0.0,0.0,0.0,0.0,0.0,0.0,0.0,0.0,0.0,0.0,0.0,0.0,0.0,0.0,0.0,2.2194,2.2166,2.1827,2.1945,2.2049,2.2049,2.2049,2.1886,2.157,2.1386,2.1308,2.1308,2.1292,2.1463,2.1812,2.1976,2.2137,2.2296,2.2296,2.2296,2.2296,2.2296,2.2296,2.2296,2.2296,2.3039,2.414,2.3994,2.4391,2.4949,2.422,2.4059,2.4094,1.6968,1.7066,1.7149,1.719,1.7224,1.749,1.8173,1.8173,1.8428,1.9394,2.0132,2.0195,1.9197,1.9457,1.9259,1.8166,1.8104,1.8,1.7718,1.7834,1.7851,1.7702,1.7569,1.7553,1.7685,1.7569,1.7503,1.7503,1.7503,1.7503,1.7503,1.7503,1.7801,1.8274,1.7437,1.7536,1.8257,1.7586,1.7685,1.8431,0.0,2.0475,2.1199,2.1481,2.1597,2.1613,2.179,2.1825,2.1448,1.9162,1.9731,2.1148,1.9623,2.0648,0.0,0.0,0.0,0.0,0.0,0.0,0.0,0.0,0.0,2.1015,0.0,0.0,0.0,0.0,0.0,0.0,0.0,0.0,0.0,0.0,0.0,0.0,0.0,0.0,0.0,0.0,0.0,0.0,0.0,2.2295,2.2366,2.231,2.2352,2.2349,2.231,2.2296,2.218,2.1901,2.1842,2.1706,2.1493,2.1706,2.1842,2.1901,2.2166,2.2296,2.2296,2.2296,2.2296,2.2296,2.2296,2.2296,2.231,2.2366,2.2856,2.3584,2.3442,2.3793,2.4294,2.3701,2.3688,2.3914,1.6844,1.6873,1.6969,1.7083,1.7074,1.73,1.8091,1.77,1.7836,1.9309,2.009,2.0701,2.1193,2.0719,2.0326,2.0176,2.027,1.979,1.8472,1.9002,1.9072,1.8406,1.7818,1.7785,1.8373,1.7789,1.7503,1.7503,1.7503,1.7503,1.7503,1.7503,1.7536,1.7553,1.6171,1.6321,1.7569,1.6823,1.8381,0.0,2.1497,2.0489,0.0,2.0323,2.0818,2.0929,2.1778,2.1955,2.1776,0.0,2.1826,2.217,0.0,2.2651,2.3233,2.3458,0.0,0.0,0.0,0.0,0.0,0.0,2.2294,0.0,0.0,0.0,0.0,0.0,0.0,0.0,0.0,0.0,0.0,0.0,0.0,0.0,0.0,0.0,0.0,0.0,0.0,0.0,0.0,0.0,2.2569,2.2324,2.2528,2.2555,2.231,2.2296,2.2282,2.2237,2.1945,2.1915,2.218,2.193,2.1945,2.2237,2.2282,2.2296,2.2296,2.2296,2.2296,2.2296,2.2296,2.2296,2.2324,2.2569,2.2724,2.2861,2.3255,2.3587,2.3866,2.378,2.3532,2.3239,1.6918,1.6969,1.7061,1.7149,1.7174,1.7427,1.8147,1.8772,1.9416,2.0047,2.0757,2.1169,2.1097,2.0774,2.0397,2.0014,2.0034,1.9796,0.0,0.0,1.8823,1.8509,1.7855,1.7635,1.7905,1.7635,1.7503,1.7503,1.7503,1.7503,1.7503,1.7503,1.7718,1.8071,1.7888,1.8137,1.8733,1.8845,1.9525,0.0,0.0,0.0,0.0,2.14,2.177,2.1563,2.195,2.2141,2.2015,0.0,2.1336,0.0,0.0,0.0,0.0,0.0,0.0,0.0,0.0,0.0,0.0,0.0,0.0,0.0,2.0686,0.0,2.022,0.0,0.0,0.0,0.0,0.0,0.0,0.0,0.0,0.0,0.0,0.0,0.0,0.0,0.0,0.0,0.0,0.0,0.0,0.0,0.0,2.2747,2.2324,2.2446,2.246,2.231,2.2166,2.2166,2.2296,2.2166,2.2166,2.2296,2.2296,2.2296,2.231,2.246,2.2542,2.2542,2.2694,2.2756,2.2769,2.2884,2.3022,2.3168,2.3206,2.3289,2.3393,2.3393,2.3377,2.3348,1.701,1.7048,1.7074,1.7124,1.7174,1.7358,1.7889,1.8959,1.9849,2.0259,2.0741,2.1035,2.0961,2.0858,2.0586,2.012,2.0294,2.0273,0.0,0.0,1.93,0.0,0.0,0.0,0.0,1.7702,1.7503,1.7503,1.7545,1.7552,1.7552,1.7616,1.7895,1.8372,1.8643,1.9,1.9399,0.0,2.0141,2.026,2.1017,2.1431,2.168,2.2327,2.2543,2.2411,2.2251,2.2462,2.2528,2.0776,2.1305,0.0,2.1038,0.0,0.0,0.0,0.0,0.0,2.3771,0.0,0.0,0.0,0.0,0.0,0.0,0.0,0.0,0.0,0.0,0.0,0.0,0.0,0.0,2.0478,0.0,2.0676,0.0,0.0,0.0,0.0,0.0,0.0,0.0,0.0,0.0,0.0,2.2695,2.2733,2.2432,2.2592,2.2605,2.2422,2.2338,2.2296,2.2296,2.2296,2.2296,2.2296,2.2363,2.2405,2.2419,2.2699,2.2812,2.2825,2.3022,2.3091,2.3121,2.3194,2.3324,2.3492,2.3342,2.3295,2.3295,2.3224,2.3336,2.3515,1.7083,1.6994,1.6934,1.6985,1.6959,1.6972,1.7115,1.7338,1.7988,1.9369,1.9498,0.0,0.0,0.0,0.0,0.0,0.0,2.1981,2.0572,0.0,2.1381,0.0,0.0,1.8803,0.0,0.0,1.7503,1.7503,1.7624,1.7687,1.7698,1.7889,1.8,1.7989,1.7085,1.7496,1.8812,1.8631,1.9793,2.1781,2.2526,2.3255,2.3735,0.0,2.2425,2.3197,2.2671,0.0,0.0,2.2876,2.2824,0.0,0.0,0.0,0.0,0.0,0.0,0.0,0.0,0.0,0.0,2.2161,0.0,0.0,0.0,0.0,2.0746,0.0,0.0,0.0,0.0,0.0,1.989,1.9013,1.9572,0.0,0.0,0.0,0.0,0.0,0.0,0.0,0.0,0.0,0.0,2.1532,2.203,2.2429,2.266,2.2699,2.2699,2.2685,2.2432,2.2296,2.2296,2.2296,2.2296,2.231,2.2552,2.2685,2.2699,2.296,2.3096,2.3096,2.3109,2.3091,2.3116,2.3371,2.3492,2.3526,2.37,2.3785,2.3753,2.3553,2.3486,2.3538,1.7099,1.7111,1.7124,1.7199,1.7149,1.7295,0.0,1.8016,0.0,0.0,2.0129,0.0,0.0,2.1341,2.1293,0.0,0.0,2.1768,2.126,2.1129,0.0,0.0,0.0,1.9199,0.0,0.0,0.0,0.0,1.7557,1.7617,1.7698,1.7772,1.7878,1.8045,1.9204,1.9638,0.0,0.0,0.0,0.0,0.0,2.3255,2.3407,0.0,0.0,2.3184,2.2688,2.2764,0.0,2.3001,2.2944,2.2893,2.3015,2.3102,2.3205,2.3324,2.3453,0.0,0.0,0.0,2.3547,2.274,0.0,0.0,0.0,0.0,0.0,0.0,0.0,0.0,0.0,2.0411,2.0033,1.972,1.9971,2.0111,0.0,0.0,0.0,0.0,0.0,0.0,0.0,0.0,0.0,2.1854,2.088,2.0991,0.0,2.3133,2.3077,2.2712,2.2605,2.2487,2.2296,2.2296,2.2377,2.2569,2.2659,2.2786,2.2973,2.3242,2.3359,2.3371,2.3502,2.3551,2.358,2.3657,2.3689,2.3718,2.3774,2.3806,2.3795,2.3721,2.3689,2.37,1.7097,1.7099,1.7162,1.7269,1.7482,1.7789,0.0,0.0,0.0,0.0,2.0448,0.0,2.1228,0.0,2.1262,0.0,2.145,2.1657,2.2042,2.1703,0.0,2.1669,2.0841,0.0,0.0,0.0,0.0,0.0,1.8176,1.7973,1.7805,1.7872,1.7992,1.8262,2.018,2.067,2.025,2.2138,2.2596,0.0,0.0,2.3731,0.0,0.0,2.3834,2.3557,0.0,2.3186,2.354,2.3207,2.3003,2.2932,2.307,2.3082,2.307,2.3193,2.3324,2.3453,2.3589,2.3656,0.0,2.3012,2.2511,0.0,2.1358,0.0,0.0,0.0,0.0,0.0,0.0,0.0,2.0467,2.0182,2.0235,2.0276,0.0,2.0169,0.0,0.0,0.0,0.0,0.0,0.0,1.8676,2.0481,2.0219,2.0919,0.0,0.0,2.3336,2.3003,2.2889,2.2708,2.2446,2.2538,2.2632,2.2699,2.2889,2.3089,2.3253,2.3497,2.3609,2.3609,2.3742,2.3806,2.3806,2.3806,2.3806,2.3806,2.3806,2.3806,2.3806,2.3806,2.3806,2.3831,1.7165,1.7078,1.7187,0.0,1.7963,0.0,0.0,0.0,1.9675,0.0,2.0363,2.0486,2.1246,2.1199,2.1198,2.1462,2.1386,2.1758,2.2776,2.2872,0.0,0.0,2.2192,2.1926,2.2161,0.0,0.0,0.0,0.0,1.8745,1.8067,1.8159,1.8307,1.8555,1.9915,2.0529,2.0644,2.1961,2.2515,2.2634,2.4084,2.4665,2.475,2.5586,0.0,2.4395,2.386,2.4196,2.4705,2.3557,2.3125,2.3107,2.3107,2.3107,2.3107,2.3107,2.3193,2.3313,2.3441,2.3596,2.3573,2.2992,0.0,0.0,0.0,0.0,2.3121,0.0,0.0,0.0,0.0,0.0,2.1171,2.0334,2.0242,2.0272,2.0219,0.0,0.0,0.0,0.0,0.0,0.0,1.8221,1.9013,1.7891,1.9993,2.1963,0.0,0.0,0.0,2.3504,2.3253,2.2985,2.2725,2.2973,2.2985,2.2751,2.3271,2.3515,2.3508,2.371,2.3806,2.3806,2.3806,2.3806,2.3806,2.3806,2.3806,2.3806,2.3806,2.3813,2.385,2.3813,2.3842,2.3958,1.7773,1.827,1.8735,0.0,1.865,1.8831,0.0,0.0,0.0,0.0,2.0827,2.0479,2.1626,2.1358,2.1119,2.1198,2.154,0.0,0.0,0.0,0.0,2.2826,2.2299,2.1955,2.1824,2.1121,0.0,2.0213,0.0,1.907,1.9026,1.8454,1.8307,1.8565,2.0057,2.0935,2.1389,2.2324,2.2725,2.2794,2.3722,2.4116,0.0,0.0,2.5867,2.5439,2.4925,2.4126,2.3419,2.3845,2.3593,2.3107,2.3107,2.3107,2.3107,2.3107,2.3114,2.318,2.3313,2.3441,2.3558,2.3611,2.3212,2.2832,0.0,0.0,0.0,0.0,0.0,0.0,0.0,0.0,0.0,2.0307,2.0144,2.0227,2.0192,0.0,0.0,2.0991,0.0,0.0,0.0,1.8245,1.8614,2.0576,1.9601,0.0,0.0,0.0,0.0,2.3497,2.3429,2.3265,2.2998,2.3072,2.317,2.3307,2.3417,2.3576,2.3721,2.3774,2.3806,2.3806,2.3806,2.3806,2.3806,2.3806,2.3806,2.3806,2.3806,2.4157,2.461,2.4013,2.4176,2.4719,1.8393,1.9141,1.9801,1.9829,0.0,0.0,2.064,2.0611,0.0,2.189,2.1407,0.0,2.1598,2.152,2.1509,2.1613,2.1866,0.0,2.2699,0.0,0.0,2.3605,2.3073,2.2894,2.3172,2.2266,0.0,2.1431,0.0,1.9602,1.9386,1.8579,1.8307,1.8565,2.0111,2.0968,2.1324,2.2457,2.3136,2.3497,2.3912,0.0,0.0,2.6045,2.608,2.568,2.5738,2.4893,2.3765,2.3775,2.347,2.3107,2.3107,2.3107,2.3107,2.3107,2.3107,2.3132,2.3265,2.3348,2.3476,2.3747,2.3508,2.3274,2.3575,2.3699,2.3785,0.0,0.0,0.0,0.0,0.0,0.0,2.0847,2.0655,2.0591,0.0,0.0,0.0,0.0,2.15,0.0,0.0,0.0,1.8601,1.9703,0.0,0.0,0.0,0.0,0.0,2.3146,2.3469,2.352,2.3277,2.3365,2.3434,2.3504,2.3587,2.3678,2.3806,2.3806,2.3806,2.3806,2.3806,2.3806,2.3806,2.3806,2.3806,2.3806,2.3806,2.4502,2.5425,2.461,2.4827,2.557,1.9042,1.9963,0.0,0.0,0.0,0.0,0.0,2.1708,0.0,2.1952,0.0,2.207,2.1826,2.1924,2.2132,2.2397,0.0,2.2777,2.3612,2.3581,2.3816,2.445,2.3939,2.4055,2.4969,2.3644,2.2942,0.0,0.0,2.017,1.9419,1.8621,1.8328,1.8565,2.0005,2.076,0.0,2.2716,2.3751,2.4321,2.4519,2.5401,2.6598,2.6704,2.6262,2.5616,2.6244,2.5719,2.4608,2.3587,2.3195,2.3107,2.3107,2.3107,2.3107,2.3107,2.3107,2.3132,2.3241,2.3289,2.336,2.3589,2.3678,2.3765,2.4024,2.419,2.4312,2.4444,2.4578,0.0,0.0,0.0,0.0,2.1806,0.0,0.0,0.0,0.0,0.0,0.0,0.0,0.0,0.0,0.0,0.0,0.0,0.0,0.0,0.0,0.0,0.0,0.0,2.3469,0.0,2.3531,0.0,2.371,2.3531,2.371,2.3806,2.3806,2.3806,2.3806,2.3806,2.3806,2.3806,2.3806,2.3806,2.385,2.3958,2.4067,2.5027,2.6276,2.557,2.5823,2.659,1.9866,2.1326,0.0,0.0,0.0,2.2884,2.2277,2.2393,2.2932,2.4062,2.2606,2.2232,2.4232,2.3372,2.2748,2.3032,2.3391,0.0,0.0,0.0,0.0,2.3379,2.3688,2.4031,2.4432,2.3963,2.3498,0.0,0.0,2.0366,1.9637,1.8813,1.8465,1.8547,1.9478,2.0602,2.1937,2.4085,0.0,2.4414,2.5682,2.6367,2.6669,2.728,2.7052,2.6318,2.5805,2.466,2.3495,2.3944,2.3646,2.3107,2.3107,2.3107,2.3107,2.3107,2.3107,2.3107,2.3132,2.3217,2.3313,2.336,2.3544,2.3743,2.3904,2.4036,2.4181,2.4303,2.4435,2.4286,2.3476,0.0,0.0,0.0,0.0,0.0,0.0,0.0,0.0,0.0,0.0,0.0,0.0,0.0,0.0,0.0,0.0,0.0,0.0,0.0,0.0,0.0,0.0,0.0,0.0,0.0,0.0,2.3742,2.3785,2.3806,2.3806,2.3806,2.3806,2.3806,2.3806,2.3806,2.3806,2.3806,2.4194,2.4864,2.5516,2.6355,2.717,2.7025,2.7495,2.8093,2.2083,0.0,0.0,0.0,0.0,0.0,0.0,2.4016,0.0,2.3552,2.3341,2.3408,2.3901,2.3982,2.4066,2.4224,2.4483,2.4321,2.3628,2.3665,2.3716,2.3716,2.3575,0.0,2.484,2.4375,2.3977,2.3716,0.0,0.0,2.0234,1.9057,1.8495,1.8565,2.0181,2.1744,0.0,0.0,0.0,2.5524,2.5858,2.6472,2.7174,2.7139,2.6911,2.6546,2.616,2.5283,2.423,2.3821,2.3418,2.3107,2.3107,2.3107,2.3177,2.3593,2.3435,2.3195,2.3611,2.3455,2.3217,2.3289,2.3395,2.3555,2.3747,2.3904,2.4036,2.4181,2.4303,2.4428,2.4534,2.4701,0.0,0.0,0.0,0.0,0.0,0.0,0.0,0.0,0.0,0.0,0.0,0.0,0.0,0.0,0.0,0.0,0.0,0.0,0.0,0.0,0.0,0.0,0.0,0.0,0.0,2.3806,2.3806,2.3806,2.3806,2.3806,2.3806,2.3806,2.3806,2.3806,2.3831,2.4248,2.5135,2.6228,2.6222,2.6952,2.7966,2.755,2.7912,2.8545,0.0,2.4132,0.0,0.0,2.4843,0.0,2.5196,2.5513,2.5161,2.3473,2.4199,2.463,2.3906,2.4686,2.5285,2.5397,2.5338,2.5005,2.4318,2.412,2.4045,2.4045,2.3593,2.3997,2.5384,2.4835,2.4537,0.0,0.0,0.0,0.0,1.9391,0.0,0.0,0.0,0.0,0.0,0.0,2.602,2.6563,2.6086,2.6613,2.7631,2.7052,2.6753,2.6598,2.6598,2.6072,2.5208,2.4002,2.3581,2.3581,2.3581,2.3581,2.3704,2.4361,2.3962,2.3488,2.4133,2.3716,2.3132,2.3229,2.3277,2.3425,2.3842,2.3887,2.4016,2.4553,2.4735,2.506,2.5872,2.6491,0.0,0.0,0.0,0.0,0.0,0.0,0.0,0.0,0.0,0.0,0.0,0.0,0.0,0.0,0.0,0.0,0.0,0.0,0.0,0.0,0.0,2.3858,2.3858,0.0,2.3806,0.0,2.3806,2.3806,2.3806,2.3806,2.3806,2.3806,2.3806,2.3896,2.4121,2.5117,2.6258,2.7351,2.688,2.7477,2.8527,2.7894,2.8057,2.8618,0.0,0.0,0.0,0.0,0.0,0.0,0.0,2.595,2.6522,2.6303,2.5272,2.5142,2.6722,2.6199,2.5836,2.6078,2.561,2.4978,2.4261,2.3578,2.3212,2.3212,2.3852,2.4572,2.5384,2.5331,2.5296,0.0,0.0,0.0,0.0,0.0,0.0,0.0,0.0,0.0,0.0,2.5875,2.6528,2.6651,2.7245,2.7561,2.7683,2.7613,2.7174,2.6598,2.6598,2.6072,2.5384,2.5243,2.5177,2.5177,2.5177,2.5177,2.5208,2.5279,2.4783,2.4203,2.4286,2.3716,2.3089,2.3119,2.3217,2.3561,2.4559,2.4226,2.4237,2.6084,2.648,2.6589,2.6985,2.6391,2.578,0.0,0.0,0.0,0.0,0.0,0.0,2.5686,0.0,0.0,0.0,0.0,0.0,0.0,0.0,0.0,0.0,0.0,0.0,2.4165,0.0,2.4074,2.4074,2.3896,0.0,2.3806,2.3806,2.3806,2.3806,2.3806,2.3806,2.3806,2.3806,2.4212,2.5009,2.6536,2.726,2.7459,2.8129,2.8473,2.86,2.8527,2.8545,2.8708,0.0,0.0,0.0,0.0,0.0,0.0,0.0,2.6786,2.7072,2.7072,2.6331,2.5859,2.5957,2.6406,2.6769,2.6909,2.6735,2.6318,2.5642,2.4892,2.4476,2.4476,2.4361,2.4642,2.5384,2.5862,2.5879,0.0,0.0,0.0,0.0,0.0,0.0,0.0,0.0,2.4927,2.5752,2.6806,2.7262,2.7297,2.7578,2.7701,2.7701,2.7701,2.7526,2.7262,2.7262,2.7052,2.6771,2.6771,2.6174,2.5401,2.5401,2.5401,2.5476,2.5967,2.5577,2.4963,2.4963,2.4401,2.3699,2.3212,2.3144,2.3435,2.4432,2.4403,2.4604,2.6147,2.7071,2.7642,2.7783,2.7969,2.7922,0.0,0.0,0.0,0.0,0.0,0.0,0.0,0.0,2.6196,0.0,0.0,0.0,0.0,0.0,0.0,0.0,0.0,0.0,2.3608,0.0,2.4094,2.4094,2.3907,2.3806,2.3806,2.3806,2.4049,2.452,2.452,2.4773,2.5244,2.5244,2.5697,2.6482,2.7133,2.7676,2.8147,2.8473,2.86,2.86,2.86,2.8907,2.9381,2.7222,0.0,2.6407,0.0,2.6833,2.6644,2.7213,2.7299,2.7299,2.7299,2.7039,2.6602,2.5855,2.6722,2.7392,2.7438,2.7289,2.6999,2.6533,2.5816,2.5401,2.5401,2.4892,0.0,2.5752,2.6314,2.6423,2.6086,2.5345,0.0,0.0,0.0,0.0,0.0,2.5419,2.6191,2.6964,2.7473,2.7701,2.7701,2.7701,2.7701,2.7701,2.7701,2.7701,2.7701,2.7701,2.7701,2.7701,2.7701,2.6981,2.6086,2.6086,2.6086,2.6191,2.6771,2.637,2.5739,2.5739,2.5191,2.4449,2.3646,2.3616,2.3965,2.4713,2.4855,2.5155,2.635,2.7555,2.841,2.8479,2.8913,2.898,2.8137,0.0,0.0,0.0,0.0,0.0,0.0,2.6622,2.6338,2.6029,0.0,0.0,0.0,0.0,0.0,0.0,0.0,0.0,0.0,0.0,0.0,0.0,2.3907,2.3806,2.3795,2.4031,2.4447,2.5009,2.5244,2.566,2.621,2.6457,2.688,2.7423,2.7658,2.8093,2.86,2.86,2.86,2.8636,2.8871,2.9339,2.9937,2.7299,2.7282,2.7282,2.7299,2.7282,2.7297,2.7299,2.7299,2.7299,2.7299,2.7299,2.7296,2.7355,2.745,2.7496,2.7496,2.6891,2.6498,2.6498,2.5816,2.5401,0.0,0.0,2.577,2.6563,2.6598,2.6964,2.7666,0.0,0.0,2.5366,0.0,2.4677,2.5419,2.6244,2.6999,2.7683,2.7701,2.7701,2.7701,2.7701,2.7701,2.7701,2.7701,2.7701,2.7701,2.7701,2.7701,2.7701,2.7701,2.7683,2.7666,2.7666,2.7666,2.7666,2.7683,2.7157,2.6581,2.6581,2.6002,2.5208,2.4466,2.4835,2.5447,2.5727,2.5681,2.5904,2.7059,2.813,2.8956,2.9158,2.8662,2.795,2.7149,0.0,0.0,0.0,0.0,0.0,0.0,2.5252,2.5064,2.5925,0.0,0.0,0.0,0.0,0.0,0.0,0.0,0.0,2.4522,2.4356,0.0,2.4094,2.3907,2.3806,2.3824,2.461,2.499,2.5027,2.5823,2.6192,2.6228,2.7043,2.7387,2.7459,2.8256,2.86,2.86,2.86,2.86,2.8708,2.9481,2.9913,3.0216,2.7385,2.7299,2.7299,2.7299,2.7299,2.7299,2.7299,2.7299,2.7299,2.7299,2.7346,2.7407,2.7513,2.7467,2.7452,0.0,2.7362,2.7253,0.0,2.6591,2.6437,2.6946,2.649,2.6335,2.6581,2.7087,2.7227,2.6964,0.0,0.0,0.0,2.5981,2.6262,2.6981,2.7245,2.7473,2.7701,2.7701,2.7701,2.7701,2.7701,2.7701,2.7701,2.7701,2.7701,2.7701,2.7701,2.7701,2.7701,2.7701,2.7701,2.7701,2.7701,2.7701,2.7701,2.7701,2.7526,2.7245,2.6753,2.6405,2.6033,2.5243,2.5226,2.5555,2.6196,2.6868,2.7486,2.7838,2.8378,2.8784,2.886,2.8828,2.8738,2.8538,0.0,0.0,0.0,0.0,0.0,0.0,2.5748,2.5692,0.0,2.5214,0.0,0.0,0.0,0.0,0.0,0.0,0.0,0.0,2.4781,0.0,2.518,2.4951,2.5103,2.5632,2.5201,2.557,2.6675,2.7614,2.8037,2.8056,2.8414,2.8551,2.8569,2.8845,2.8936,2.8936,2.8936,2.8936,2.895,2.9132,2.9624,3.0262,2.7747,2.7489,2.7299,2.7299,2.7299,2.7299,2.7299,2.7299,2.7299,2.7299,2.7346,2.7392,2.7515,2.7438,0.0,2.7554,2.7615,2.763,2.763,2.7251,2.7227,2.7683,2.7262,2.7016,2.7016,0.0,0.0,2.7016,2.7016,2.7016,2.7016,2.7016,2.7262,2.7701,2.7701,2.7701,2.7701,2.7701,2.7701,2.7701,2.7701,2.7701,2.7701,2.7701,2.7701,2.7701,2.7701,2.7701,2.7701,2.7701,2.7701,2.7701,2.7701,2.7701,2.7701,2.7701,2.7701,2.7596,2.7139,2.7016,2.6841,2.6051,2.6068,2.6402,2.6911,2.7536,2.801,2.801,2.835,2.8628,2.8529,2.883,2.9004,2.8749,2.7713,2.6888,2.673,0.0,0.0,0.0,0.0,0.0,0.0,2.5027,0.0,0.0,0.0,0.0,0.0,0.0,0.0,2.4399,2.5193,0.0,2.5551,2.5609,2.5728,2.594,2.5916,2.659,2.7857,2.8585,2.8905,2.8917,2.9038,2.9097,2.9097,2.9097,2.9097,2.9097,2.9097,2.9097,2.913,2.9338,2.9842,3.0402,2.8196,2.7799,0.0,0.0,2.7299,0.0,2.7299,2.7299,2.7299,2.7299,2.7299,2.733,2.7392,2.7392,2.7483,2.7672,0.0,0.0,0.0,2.7701,2.7701,2.7701,2.7701,2.7701,2.7701,2.7701,2.7701,2.7701,2.7701,2.7701,2.7701,2.7701,2.7701,2.7701,2.7701,2.7701,2.7701,2.7701,2.7701,2.7701,2.7701,2.7701,2.7701,2.7701,2.7701,2.7701,2.7701,2.7701,2.7701,2.7701,2.7701,2.7701,2.7701,2.7701,2.7701,2.7701,2.7701,2.7701,2.7701,2.7701,2.7543,2.6858,2.7192,2.7701,2.7701,2.7701,2.7716,2.7713,2.8183,2.8491,2.8264,2.87,2.8853,2.8094,2.7329,2.6634,2.6138,0.0,0.0,0.0,0.0,0.0,0.0,2.4869,2.4869,0.0,0.0,0.0,0.0,0.0,2.4245,2.5667,2.5709,2.5639,2.5499,2.6038,2.5925,2.519,2.6735,2.7876,2.86,2.8822,2.8917,2.8922,2.9068,2.9137,2.9148,2.9148,2.9148,2.9148,2.9148,2.9148,2.924,2.9965,3.0353,3.0532,0.0,0.0,2.7954,2.7385,2.7299,2.7299,2.7299,2.7299,2.7299,2.7299,2.7299,2.733,2.7392,2.7436,2.7511,2.7632,2.7615,2.7644,2.7701,2.7701,2.7701,2.7701,2.7701,2.7701,2.7701,2.7701,2.7701,2.7701,2.7701,2.7701,2.7701,2.7701,2.7701,2.7701,2.7701,2.7701,2.7701,2.7701,2.7701,2.7701,2.7701,2.7701,2.7701,2.7701,2.7701,2.7701,2.7701,2.7701,2.7701,2.7701,2.7701,2.7701,2.7701,2.7701,2.7701,2.7701,2.7701,2.7701,2.7701,2.7701,2.7648,2.7473,2.7561,2.7701,2.7701,2.7701,2.7757,2.795,2.8129,2.8259,2.8402,2.8761,2.8956,2.8776,2.8244,2.7819,2.7746,2.7044,0.0,0.0,2.6579,2.6604,2.6604,2.6604,2.6604,0.0,0.0,0.0,0.0,0.0,2.4937,2.5895,2.7,2.7557,2.7509,2.7405,2.7171,2.6844,2.7839,2.8419,2.86,2.8822,2.8968,2.906,2.9241,2.9423,2.956,2.956,2.956,2.956,2.956,2.956,2.9569,2.9597,2.9732,2.986,2.7816,2.7851,2.7764,2.7368,2.7299,2.7299,2.7299,2.7299,2.7299,2.7299,2.7299,2.7297,2.7362,2.7392,2.7452,2.7542,2.76,2.7674,2.7701,2.7701,2.7701,2.7701,2.7701,2.7701,2.7701,2.7701,2.7701,2.7701,2.7701,2.7701,2.7701,2.7701,2.7701,2.7701,2.7701,2.7508,2.721,2.721,2.721,2.7206,2.7331,2.7515,2.7698,2.7844,2.7815,2.7701,2.7701,2.7701,2.7701,2.7701,2.7701,2.7701,2.7701,2.7786,2.7855,2.7745,2.7701,2.7701,2.7701,2.7701,2.7701,2.7701,2.7701,2.7701,2.7701,2.7701,2.7728,2.7883,2.8098,2.8285,2.8311,2.8688,2.9003,2.8989,2.8418,2.8036,2.823,2.7587,0.0,2.7099,2.717,2.7204,2.7204,2.7204,2.7204,2.7204,0.0,0.0,2.7148,2.6714,2.6658,2.7073,2.7811,2.8202,2.8193,2.797,2.7952,2.8187,2.8567,2.8767,2.8827,2.8932,2.9079,2.9251,2.9453,2.9607,2.9701,2.9701,2.9701,2.9701,2.9701,2.9701,2.9692,2.9569,2.9617,2.9664,2.8472,2.8058,2.7592,2.7489,2.7368,2.7299,2.7299,2.7299,2.7299,2.7299,2.7299,2.7299,2.7299,2.7299,2.7345,2.7465,2.7615,2.7686,2.7701,2.7701,2.7701,2.7701,2.7701,2.7701,2.7701,2.7701,2.7701,2.7701,2.7824,2.7824,2.7701,2.7824,2.7824,2.7701,2.7701,2.7297,2.6598,2.6598,2.6528,2.6434,2.6677,2.7008,2.7411,2.7796,2.7762,2.7543,2.7707,2.7728,2.7701,2.7701,2.7745,2.7757,2.7757,2.7926,2.8061,2.7869,2.78,2.7757,2.7757,2.7786,2.7815,2.7771,2.7757,2.7757,2.7757,2.7745,2.7698,2.7742,2.8112,2.8371,2.8192,2.8615,2.9003,2.9003,2.8408,2.8057,2.8349,0.0,2.7456,2.7455,2.7518,2.7571,2.758,2.758,2.758,2.758,2.7467,0.0,0.0,2.8097,2.8463,2.8585,2.8465,2.836,2.8341,2.8209,2.8487,2.9104,2.8966,2.8996,2.9097,2.9097,2.922,2.9412,2.9569,2.9664,2.9701,2.9701,2.9701,2.9701,2.9701,2.9701,2.9701,2.9701,2.9701,2.9701,2.9437,2.9248,2.8972,2.8334,2.7713,2.7299,2.7299,2.7299,2.7299,2.7299,2.7299,2.7299,2.7299,2.7299,2.7329,2.7407,2.7544,2.7644,2.7701,2.7701,2.7701,2.7701,2.7701,2.7701,2.7701,2.7701,2.7701,2.7701,2.8386,2.8368,2.7701,2.8403,2.8351,2.7701,2.7701,2.7297,2.6598,2.6598,2.6209,2.5595,2.5618,2.5688,2.585,2.6814,2.7,2.6887,2.7737,2.7897,2.7701,2.7701,2.784,2.8034,2.8034,2.8075,2.8143,2.8324,2.8219,2.8034,2.8034,2.8206,2.8324,2.8084,2.8034,2.8034,2.8034,2.7855,2.7757,2.7992,2.8098,2.8219,2.8397,2.8737,2.9003,2.9003,2.9078,2.9161,2.9202,0.0,2.907,2.9128,2.9195,2.9252,2.9307,2.9307,2.9307,2.9307,2.8622,2.8547,2.927,2.8735,2.8735,2.9476,2.9305,2.9136,2.8973,2.8941,2.8986,2.9097,2.9082,2.9082,2.9097,2.9097,2.922,2.9402,2.9433,2.954,2.9701,2.9701,2.9701,2.9701,2.9701,2.9701,2.9701,2.9701,2.9701,2.9701,2.8385,2.8316,2.8334,2.8385,2.7782,2.742,2.7833,2.7558,2.7299,2.7299,2.7299,2.7299,2.7299,2.7299,2.7315,2.7329,2.7407,2.7498,2.7632,2.7689,2.7701,2.7701,2.7701,2.7701,2.7701,2.7701,2.7701,2.7701,2.807,2.8052,2.7701,2.807,2.8052,2.7716,2.784,2.719,2.5963,2.6122,2.5637,2.4831,2.4964,2.5438,2.6128,2.6913,2.703,2.6845,2.744,2.7592,2.7464,2.7319,2.764,2.8102,2.8102,2.8102,2.8112,2.8246,2.8298,2.8324,2.8324,2.8415,2.846,2.835,2.8324,2.8324,2.8324,2.8219,2.8166,2.8285,2.8458,2.8615,2.8737,2.9007,2.9229,2.9229,2.9315,0.0,0.0,2.9401,2.9423,2.9492,2.955,2.9626,2.9683,2.9701,2.9701,2.9701,2.9326,2.9288,2.9683,2.9326,2.9288,2.9683,2.9617,2.9521,2.9414,2.9414,2.9414,2.9414,2.9304,2.9332,2.9414,2.9304,2.9373,2.956,2.956,2.9617,2.9701,2.9701,2.9701,2.9701,2.9701,2.9701,2.9739,3.019,3.0359,3.0415,2.7799,2.7661,2.773,2.8299,2.7782,2.7489,2.8058,2.7661,2.7299,2.7299,2.7299,2.7315,2.733,2.7315,2.7315,2.733,2.7313,2.7392,2.7576,2.763,2.7686,2.7701,2.7701,2.7824,2.807,2.7824,2.7877,2.8263,2.8263,2.8263,2.8263,2.8421,2.8421,2.826,2.8337,2.7498,2.6033,2.6058,2.5641,2.4935,2.5082,2.572,2.6651,2.712,2.7033,2.668,2.6952,2.7031,2.7031,2.7,2.7435,2.8052,2.8249,2.8303,2.8303,2.8303,2.8402,2.8516,2.8609,2.867,2.8676,2.8633,2.8621,2.8621,2.8621,2.8554,2.8504,2.8504,2.8694,2.8874,2.8874,2.9115,2.9296,2.9296,0.0,0.0,0.0,2.9411,2.9423,2.9492,2.9531,2.9588,2.9645,2.9664,2.9683,2.9683,2.9701,2.9701,2.9701,2.9701,2.9701,2.9701,2.9701,2.9701,2.9701,2.9701,2.9701,2.9701,2.954,2.955,2.9683,2.954,2.955,2.9701,2.9701,2.9701,2.9701,2.9701,2.9701,2.9701,2.9701,2.9814,3.0058,3.0668,3.1025,3.1269,2.9351,2.8799,2.8334,2.8385,2.7782,2.7316,2.7368,2.7333,2.7299,2.7299,2.7299,2.7313,2.7393,2.7346,2.733,2.7393,2.7392,2.7438,2.7496,2.7572,2.763,2.7701,2.7701,2.8157,2.9158,2.821,2.8438,2.993,2.993,2.993,2.9948,3.0615,3.058,2.9895,2.9423,2.8717,2.7861,2.7192,2.6871,2.6778,2.6559,2.6521,2.6623,2.6917,2.655,2.5925,2.6189,2.6253,2.6302,2.7043,2.747,2.7878,2.8677,2.8927,2.8927,2.8927,2.8725,2.8566,2.8892,2.9138,2.9265,2.9026,2.895,2.895,2.895,2.8725,2.8504,2.8504,2.8529,2.8541,2.8541,2.8814,2.9027,2.9027,0.0,0.0,2.9482,2.9443,2.9423,2.9492,2.9453,2.9443,2.9502,2.956,2.9607,2.9607,2.9655,2.9701,2.9701,2.9701,2.9701,2.9701,2.9701,2.9701,2.9701,2.9701,2.9701,2.9701,2.9673,2.9692,2.9701,2.9673,2.9692,2.9701,2.9701,2.9701,2.9701,2.9701,2.9701,2.9701,2.9701,3.0152,3.0818,3.0875,3.1363,3.2011,2.8816,2.8213,2.7851,2.8316,2.8161,2.8144,2.8592,2.8282,2.7971,2.7971,2.7575,2.7315,2.7346,2.7362,2.7378,2.7392,2.7438,2.7498,2.7557,2.7587,2.7857,2.8421,2.893,2.9386,2.979,2.9404,2.9492,3.0106,3.0106,3.0106,3.0124,3.0387,3.0106,2.9384,2.9849,2.9337,2.8192,2.8563,2.8469,2.8048,2.7929,2.8182,2.8613,2.8693,2.8526,2.8201,2.7973,2.7533,2.7212,2.8079,2.8057,2.8026,2.9903,2.9667,2.8737,2.8938,2.8915,2.8874,2.9178,2.9052,2.8867,2.8962,2.9003,2.9037,2.92,2.9149,2.9064,2.9064,2.9064,2.9064,2.9064,2.9155,2.9241,2.9241,0.0,2.9502,2.9502,2.9472,2.9482,2.955,2.954,2.955,2.9626,2.9645,2.9655,2.9655,2.9692,2.9701,2.9701,2.9701,2.9701,2.9701,2.9701,2.9701,2.9701,2.9701,2.9701,2.9701,2.9701,2.9701,2.9701,2.9701,2.9701,2.9701,2.9701,2.9701,2.9739,3.0246,3.0152,2.9795,3.079,3.1072,3.1025,3.2076,3.2639,3.2987,2.8351,2.7799,2.7454,2.7971,2.8247,2.8575,2.9075,2.873,2.8403,2.8403,2.7747,2.7315,2.733,2.7345,2.7376,2.7438,2.7452,2.7513,2.7602,2.7859,2.8167,2.8509,2.9369,2.993,3.0106,2.9915,3.0176,3.0826,3.0675,3.0693,3.0826,3.0904,3.0623,3.0017,3.0579,3.0264,2.9304,2.9895,3.0005,2.9759,2.9802,3.0098,3.0526,3.0259,3.0031,2.9786,2.9155,2.8624,2.836,2.9215,2.9104,2.8957,3.0904,3.0387,2.9022,2.9,2.8927,2.8874,2.9064,2.882,2.8591,2.9026,2.9134,2.9167,2.9365,2.9396,2.9396,2.9396,2.9396,2.9396,2.9396,2.9624,2.9719,2.944,2.9686,2.9811,2.9578,2.954,2.955,2.9598,2.9588,2.9598,2.9636,2.9655,2.9683,2.9683,2.9692,2.9701,2.9701,2.9439,2.942,2.9683,2.9439,2.942,2.9701,2.9701,2.9701,2.9701,2.9701,2.9701,2.9701,2.9701,2.9701,2.9701,2.9701,2.9701,2.9758,3.0574,3.0574,3.0208,3.156,3.1936,3.1813,3.2977,3.3569,3.3869,2.8265,2.7816,2.7316,2.7299,2.792,2.8403,2.8403,2.8403,2.8403,2.8403,2.7747,2.733,2.7376,2.7346,2.736,2.7481,2.7436,2.7469,2.7587,2.841,2.8526,2.7736,2.8737,2.9562,3.0088,2.9579,3.0317,3.2371,3.1907,3.1943,3.2405,3.2669,3.267,3.237,3.1838,3.1607,3.1569,3.1117,3.1387,3.2119,3.219,3.2222,3.2131,3.1325,3.0695,3.0105,2.932,2.9189,2.9545,3.0344,3.0604,3.0734,3.1533,3.106,3.0062,2.9242,2.8761,2.8516,2.8516,2.8516,2.8658,2.9254,2.9396,2.9396,2.9396,2.9396,2.9396,2.9396,2.9396,2.9396,2.9415,3.0126,3.0408,2.9551,3.0202,3.0524,2.9729,2.9616,2.9616,2.9616,2.9559,2.9521,2.9521,2.9578,2.9598,2.9598,2.9655,2.9701,2.9701,2.8885,2.881,2.9664,2.8866,2.8829,2.9683,2.9701,2.9701,2.9701,2.9701,2.9701,2.9701,2.9701,2.9701,2.9701,2.9701,2.9701,2.9777,3.0593,3.0912,3.0987,3.1804,3.2649,3.339,3.3408,3.3907,3.4612,2.9972,2.9386,2.8678,2.8161,2.8678,2.9006,2.8472,2.8403,2.8403,2.8403,2.7747,2.7315,2.733,2.7345,2.7407,2.7496,2.7511,2.7572,2.7657,2.7914,2.7947,2.7701,2.9579,3.0475,3.0124,3.0457,3.0685,3.0791,3.1169,3.1529,3.1906,3.2515,3.2606,3.2293,3.264,3.2505,3.2061,3.2666,3.3067,3.33,3.3526,3.3603,3.3572,3.312,3.2873,3.2627,3.1806,3.1183,3.088,3.1929,3.1533,3.0641,3.0883,3.1136,3.1043,2.9672,2.9599,2.9968,2.9968,3.0385,3.054,2.9411,2.9123,2.9167,2.9365,2.9396,2.9564,3.0121,3.0233,3.04,3.0976,3.0871,3.0799,3.1097,3.0949,3.0937,3.1293,3.1342,3.1353,3.1353,3.0845,3.0479,3.0479,2.9992,2.9664,2.9664,2.9692,2.9701,2.9701,2.9457,2.9439,2.9683,2.9457,2.9439,2.9701,2.9701,2.9701,2.9701,2.9701,2.9701,2.9701,2.9701,3.0002,3.0537,3.0537,3.0865,3.1447,3.2301,3.2282,3.1879,3.3306,3.3663,3.3475,3.4038,3.4395,3.4612,3.0645,3.0058,2.9368,2.892,2.9472,2.9713,2.8954,2.8834,2.873,2.8437,2.7747,2.7299,2.7299,2.7346,2.7392,2.7452,2.7836,2.8102,2.8175,2.8175,2.8175,2.8175,2.9527,3.0071,2.965,3.0053,3.0229,3.0106,3.0654,3.0977,3.1075,3.1732,3.1861,3.1556,3.2434,3.2582,3.2226,3.3319,3.3807,3.3815,3.4099,3.4197,3.4185,3.4023,3.3959,3.3886,3.3406,3.2896,3.2551,3.3239,3.2834,3.1905,3.1273,3.1626,3.1961,3.0344,3.0437,3.1069,3.1069,3.144,3.1537,3.0401,3.0109,3.0142,3.0312,3.0344,3.0493,3.0976,3.1069,3.1218,3.1719,3.1704,3.1671,3.1827,3.1806,3.1823,3.2029,3.2073,3.2105,3.2105,3.1673,3.1363,3.1363,3.0922,3.0509,3.0208,3.0171,3.0039,2.972,2.9701,2.9701,2.9701,2.9701,2.9852,3.0171,3.049,3.0321,2.9701,3.0021,3.0171,3.019,3.049,3.0903,3.1363,3.1363,3.1654,3.2161,3.3043,3.31,3.2743,3.4076,3.4301,3.3926,3.4414,3.4612,3.4612,3.0558,3.011,2.9558,2.9437,3.0006,3.0231,2.9437,2.9299,2.9058,2.8385,2.7713,2.7299,2.7299,2.7299,2.733,2.7392,2.8274,2.8817,2.8912,2.8965,2.8983,2.8895,2.8895,2.8877,2.8789,2.886,2.9228,2.9895,3.0204,3.0254,3.0078,3.0629,3.0792,3.0667,3.1697,3.2172,3.2212,3.3346,3.3815,3.3815,3.4099,3.4197,3.4197,3.4197,3.4197,3.4197,3.4197,3.4197,3.4197,3.4197,3.4197,3.3918,3.2388,3.2407,3.2704,3.1162,3.1273,3.1905,3.1905,3.1961,3.2017,3.2017,3.2017,3.1979,3.1831,3.1794,3.1831,3.1886,3.1905,3.1924,3.1998,3.2555,3.2778,3.2128,3.2683,3.2974,3.2313,3.2277,3.2311,3.2311,3.2255,3.2217,3.2217,3.2142,3.1804,3.1062,3.1006,3.0687,2.9945,2.9908,2.9908,2.9908,2.9908,3.0265,3.1006,3.1729,3.1354,2.9908,3.0649,3.1006,3.1025,3.1767,3.2142,3.2217,3.2217,3.2255,3.2386,3.3175,3.3513,3.3588,3.4301,3.4612,3.4612,3.4612,3.4612,3.4612,3.0783,3.0558,3.0058,2.8851,2.8782,2.8644,2.7885,2.7782,2.7713,2.7558,2.7385,2.7299,2.7299,2.7299,2.733,2.7392,2.8274,2.8817,2.8912,2.9492,2.9562,2.893,2.8895,2.8614,2.7964,2.8579,2.8684,2.821,2.8901,2.947,2.9895,3.0568,3.1112,3.1568,3.2428,3.2679,3.2559,3.3647,3.3998,3.3815,3.4099,3.4197,3.4197,3.4197,3.4197,3.4197,3.4197,3.4197,3.4197,3.4197,3.4197,3.403,3.3045,3.2871,3.2816,3.1831,3.2109,3.2741,3.2741,3.3194,3.3677,3.3677,3.3677,3.3343,3.2091,3.1794,3.1979,3.2611,3.2741,3.2915,3.3547,3.3317,3.315,3.3615,3.3422,3.337,3.3825,3.3992,3.4057,3.4057,3.3494,3.3118,3.3118,3.2499,3.2029,3.186,3.1842,3.1767,3.1579,3.1579,3.1579,3.1579,3.1579,3.1654,3.1842,3.2011,3.1917,3.1579,3.1767,3.1842,3.1842,3.2011,3.248,3.3118,3.3118,3.3475,3.4057,3.4264,3.4339,3.4358,3.4526,3.4612,3.4612,3.4612,3.4612,3.4612,3.13,3.1214,3.0955,3.0162,2.973,2.923,2.8472,2.804,2.7696,2.7351,2.7299,2.7299,2.7299,2.7299,2.7469,2.7878,2.9048,2.9807,2.9954,2.9989,2.9847,2.9492,2.8737,2.8122,2.7701,2.8105,2.8122,2.7701,2.8122,2.8549,2.8986,2.9502,3.0002,3.0505,3.1451,3.1992,3.2281,3.3239,3.3771,3.3961,3.374,3.3863,3.416,3.377,3.3863,3.4197,3.4197,3.4197,3.4197,3.4197,3.4197,3.4048,3.3262,3.325,3.3398,3.2611,3.2946,3.3566,3.3566,3.3881,3.4197,3.4197,3.4197,3.3974,3.3138,3.2946,3.3057,3.3503,3.3566,3.3696,3.4123,3.3863,3.3714,3.4123,3.3927,3.3866,3.4295,3.4473,3.455,3.455,3.4215,3.3963,3.3963,3.3212,3.2724,3.2724,3.2724,3.2536,3.2123,3.2499,3.2536,3.2105,3.2499,3.2724,3.2724,3.31,3.3287,3.3287,3.2893,3.2724,3.2724,3.3118,3.3531,3.3963,3.3963,3.4207,3.4612,3.4612,3.4612,3.4612,3.4612,3.4612,3.4612,3.4612,3.4612,3.4612,3.1627,3.161,3.1576,3.1438,3.0903,3.0265,2.961,2.8989,2.8368,2.7747,2.7678,2.7627,2.7489,2.7489,2.7762,2.8432,2.9902,3.089,3.1095,3.0484,3.0097,3.009,2.873,2.7883,2.7701,2.7742,2.776,2.7701,2.7701,2.7844,2.8116,2.8358,2.867,2.9051,3.0117,3.105,3.1849,3.2518,3.325,3.3918,3.3131,3.3187,3.3714,3.3045,3.3224,3.3807,3.3956,3.4067,3.4197,3.4197,3.4197,3.4067,3.3417,3.3658,3.4067,3.341,3.3677,3.4197,3.4197,3.4197,3.4197,3.4197,3.4197,3.4197,3.4197,3.4197,3.4197,3.4197,3.4197,3.4197,3.4197,3.4309,3.442,3.442,3.448,3.4572,3.4703,3.4584,3.454,3.4682,3.4644,3.4612,3.4612,3.4001,3.3607,3.3607,3.3607,3.3287,3.2574,3.3212,3.3269,3.2555,3.3231,3.3607,3.3607,3.4264,3.4612,3.4594,3.3926,3.3607,3.3625,3.4301,3.4612,3.4612,3.4612,3.4612,3.4612,3.4612,3.4612,3.4612,3.4612,3.4612,3.4612,3.4612,3.4612,3.4612,3.0955,3.0852,3.0627,2.9937,2.973,2.9627,2.9523,2.942,2.9317,2.9213,2.9213,2.8972,2.8316,2.8247,2.8332,2.8483,2.9902,3.089,3.1095,3.0991,3.0674,3.0108,2.9452,2.8649,2.7716,2.794,2.794,2.7701,2.7701,2.7844,2.8116,2.8358,2.867,2.9051,3.0117,3.105,3.1812,3.1924,3.2425,3.3094,3.2295,3.2035,3.2109,3.1998,3.2035,3.2221,3.2908,3.3615,3.4197,3.4197,3.4197,3.4179,3.4067,3.4104,3.4179,3.4067,3.4104,3.4197,3.4197,3.4197,3.4197,3.4197,3.4197,3.4197,3.4197,3.4197,3.4197,3.4197,3.4197,3.4197,3.4197,3.4822,3.5324,3.5324,3.5374,3.5671,3.636,3.5284,3.4682,3.5457,3.4982,3.4612,3.4612,3.4489,3.4433,3.4433,3.4433,3.4376,3.4264,3.4358,3.4376,3.4274,3.4376,3.4433,3.4433,3.4556,3.4612,3.4612,3.4489,3.4433,3.4433,3.4545,3.4612,3.4612,3.4612,3.4612,3.4612,3.4612,3.4612,3.4612,3.4612,3.4612,3.4612,3.4612,3.4612,3.4612,3.1369,3.13,3.1196,3.0851,3.0437,3.0162,3.0162,2.9782,2.9506,2.9506,2.9506,2.9386,2.9058,2.942,2.9696,2.973,3.0715,3.1409,3.155,3.1202,3.0678,3.0025,2.9556,2.887,2.7943,2.8179,2.8272,2.8156,2.784,2.7844,2.8116,2.8358,2.867,2.9021,2.9654,3.0381,3.1125,3.1125,3.1589,3.2258,3.144,3.1403,3.1756,3.1292,3.1403,3.1905,3.2704,3.3522,3.4197,3.4197,3.4197,3.4197,3.4197,3.4197,3.4197,3.4197,3.4197,3.4197,3.4197,3.4197,3.4197,3.4197,3.4197,3.4197,3.4197,3.4197,3.4327,3.4841,3.4934,3.5064,3.5497,3.5919,3.6179,3.6179,3.6204,3.618,3.6087,3.5876,3.5725,3.5689,3.5023,3.455,3.4602,3.4612,3.4612,3.4612,3.4612,3.4612,3.4612,3.4612,3.4612,3.4612,3.4612,3.4612,3.4612,3.4612,3.4612,3.4612,3.4612,3.4612,3.4612,3.4612,3.4612,3.4612,3.4612,3.4612,3.4612,3.4612,3.4612,3.4612,3.4612,3.4668,3.4791,3.4841,3.4879,3.4879]}]]